[[{"header":{"parameterUnit":"m.s-1","parameterCategory":1,"la1":31.0,"la2":29.5877,"lo1":-88.7671,"lo2":-86.6584,"dy":0.0162,"dx":0.0185,"nx":115,"ny":88,"refTime":"2023-07-31T06:00:00:Z","depth":0,"parameterNumber":2,"parameterNumberName":"U-component_of_WINDS"},"data":[0.0,0.0,0.0,0.0,0.0,0.0,0.0,0.0,0.0,0.0,0.0,0.0,0.0,0.0,0.0,0.0,0.0,0.0,0.0,0.0,0.0,0.0,0.0,0.0,0.0,0.0,0.0,0.0,0.0,0.0,0.0,0.0,0.0,0.0,0.0,0.0,0.0,0.0,0.0,0.0,0.0,0.0,0.0,0.0,0.0,0.0,0.0,0.0,0.0,0.0,0.0,0.0,0.0,0.0,0.0,0.0,0.0,0.0,0.0,0.0,0.0,0.0,0.0,0.0,0.0,0.0,0.0,0.0,0.0,0.0,0.0,0.0,0.0,0.0,0.0,0.0,0.0,0.0,0.0,0.0,0.0,0.0,0.0,0.0,0.0,0.0,0.0,0.0,0.0,0.0,0.0,0.0,0.0,0.0,0.0,0.0,0.0,0.0,0.0,0.0,0.0,0.0,0.0,0.0,0.0,0.0,0.0,0.0,0.0,0.0,0.0,0.0,0.0,0.0,0.0,0.0,0.0,0.0,0.0,0.0,0.0,0.0,0.0,0.0,0.0,0.0,0.0,0.0,0.0,0.0,0.0,0.0,0.0,0.0,0.0,0.0,0.0,0.0,0.0,0.0,0.0,0.0,0.0,0.0,0.0,0.0,0.0,0.0,0.0,0.0,0.0,0.0,0.0,0.0,0.0,0.0,0.0,0.0,0.0,0.0,0.0,0.0,0.0,0.0,0.0,0.0,0.0,0.0,0.0,0.0,0.0,0.0,0.0,0.0,0.0,0.0,0.0,0.0,0.0,0.0,0.0,0.0,0.0,0.0,0.0,0.0,0.0,0.0,0.0,0.0,0.0,0.0,0.0,0.0,0.0,0.0,0.0,0.0,0.0,0.0,0.0,0.0,0.0,0.0,0.0,0.0,0.0,0.0,0.0,0.0,0.0,0.0,0.0,0.0,0.0,0.0,0.0,0.0,0.0,0.0,0.0,0.0,0.0,0.0,0.0,0.0,0.0,0.0,0.0,0.0,0.0,0.0,0.0,0.0,0.0,0.0,0.0,0.0,0.0,0.0,0.0,0.0,0.0,0.0,0.0,0.0,0.0,0.0,0.0,0.0,0.0,0.0,0.0,0.0,0.0,0.0,0.0,0.0,0.0,0.0,0.0,0.0,0.0,0.0,0.0,0.0,0.0,0.0,0.0,0.0,0.0,0.0,0.0,0.0,0.0,0.0,0.0,0.0,0.0,0.0,0.0,0.0,0.0,0.0,0.0,0.0,0.0,0.0,0.0,0.0,0.0,0.0,0.0,0.0,0.0,0.0,0.0,0.0,0.0,0.0,0.0,0.0,0.0,0.0,0.0,0.0,0.0,0.0,0.0,0.0,0.0,0.0,0.0,0.0,0.0,0.0,0.0,0.0,0.0,0.0,0.0,0.0,0.0,0.0,0.0,0.0,0.0,0.0,0.0,0.0,0.0,0.0,0.0,0.0,0.0,0.0,0.0,0.0,0.0,0.0,0.0,0.0,0.0,0.0,0.0,0.0,0.0,0.0,0.0,0.0,0.0,0.0,0.0,0.0,0.0,0.0,0.0,0.0,0.0,0.0,0.0,0.0,0.0,0.0,0.0,0.0,0.0,0.0,0.0,0.0,0.0,0.0,0.0,0.0,0.0,0.0,0.0,0.0,0.0,0.0,0.0,0.0,0.0,0.0,0.0,0.0,0.0,0.0,0.0,0.0,0.0,0.0,0.0,0.0,0.0,0.0,0.0,0.0,0.0,0.0,0.0,0.0,0.0,0.0,0.0,0.0,0.0,0.0,0.0,0.0,0.0,0.0,0.0,0.0,0.0,0.0,0.0,0.0,0.0,0.0,0.0,0.0,0.0,0.0,0.0,0.0,0.0,0.0,0.0,0.0,0.0,0.0,0.0,0.0,0.0,0.0,0.0,0.0,0.0,0.0,0.0,0.0,0.0,0.0,0.0,0.0,0.0,0.0,0.0,0.0,0.0,0.0,0.0,0.0,0.0,0.0,0.0,0.0,0.0,0.0,0.0,0.0,0.0,0.0,0.0,0.0,0.0,0.0,0.0,0.0,0.0,0.0,0.0,0.0,0.0,0.0,0.0,0.0,0.0,0.0,0.0,0.0,0.0,0.0,0.0,0.0,0.0,0.0,0.0,0.0,0.0,0.0,0.0,0.0,0.0,0.0,0.0,0.0,0.0,0.0,0.0,0.0,0.0,0.0,0.0,0.0,0.0,0.0,0.0,0.0,0.0,0.0,0.0,0.0,0.0,0.0,0.0,0.0,0.0,0.0,0.0,0.0,0.0,0.0,0.0,0.0,0.0,0.0,0.0,0.0,0.0,0.0,0.0,0.0,0.0,0.0,0.0,0.0,0.0,0.0,0.0,0.0,0.0,0.0,0.0,0.0,0.0,0.0,0.0,0.0,0.0,0.0,0.0,0.0,0.0,0.0,0.0,0.0,0.0,0.0,0.0,0.0,0.0,0.0,0.0,0.0,0.0,0.0,0.0,0.0,0.0,0.0,0.0,0.0,0.0,0.0,0.0,0.0,0.0,0.0,0.0,0.0,0.0,0.0,0.0,0.0,0.0,0.0,0.0,0.0,0.0,0.0,0.0,0.0,0.0,0.0,0.0,0.0,0.0,0.0,0.0,0.0,0.0,0.0,0.0,0.0,0.0,0.0,0.0,0.0,0.0,0.0,0.0,0.0,0.0,0.0,0.0,0.0,0.0,0.0,0.0,0.0,0.0,0.0,0.0,0.0,0.0,0.0,0.0,0.0,0.0,0.0,0.0,0.0,0.0,0.0,0.0,0.0,0.0,0.0,0.0,0.0,0.0,0.0,0.0,0.0,0.0,0.0,0.0,0.0,0.0,0.0,0.0,0.0,0.0,0.0,0.0,0.0,0.0,0.0,0.0,0.0,0.0,0.0,0.0,0.0,0.0,0.0,0.0,0.0,0.0,0.0,0.0,0.0,0.0,0.0,0.0,0.0,0.0,0.0,0.0,0.0,0.0,0.0,0.0,0.0,0.0,0.0,0.0,0.0,0.0,0.0,0.0,0.0,0.0,0.0,0.0,0.0,0.0,0.0,0.0,0.0,0.0,0.0,0.0,0.0,0.0,0.0,0.0,0.0,0.0,0.0,0.0,0.0,0.0,0.0,0.0,0.0,0.0,0.0,0.0,0.0,0.0,0.0,0.0,0.0,0.0,0.0,0.0,0.0,0.0,0.0,0.0,0.0,0.0,0.0,0.0,0.0,0.0,0.0,0.0,0.0,0.0,0.0,0.0,0.0,0.0,0.0,0.0,0.0,0.0,0.0,0.0,0.0,0.0,0.0,0.0,0.0,0.0,0.0,0.0,0.0,0.0,0.0,0.0,0.0,0.0,0.0,0.0,0.0,0.0,0.0,0.0,0.0,0.0,0.0,0.0,0.0,0.0,0.0,0.0,0.0,0.0,0.0,0.0,0.0,0.0,0.0,0.0,0.0,0.0,0.0,0.0,0.0,0.0,0.0,0.0,0.0,0.0,0.0,0.0,0.0,0.0,0.0,0.0,0.0,0.0,0.0,0.0,0.0,0.0,0.0,0.0,0.0,0.0,0.0,0.0,0.0,0.0,0.0,0.0,0.0,0.0,0.0,0.0,0.0,0.0,0.0,0.0,0.0,0.0,0.0,0.0,0.0,0.0,0.0,0.0,0.0,0.0,0.0,0.0,0.0,0.0,0.0,0.0,0.0,0.0,0.0,0.0,0.0,0.0,0.0,0.0,0.0,0.0,0.0,0.0,0.0,0.0,0.0,0.0,0.0,0.0,0.0,0.0,0.0,0.0,0.0,0.0,0.0,0.0,0.0,0.0,0.0,0.0,0.0,0.0,0.0,0.0,0.0,0.0,0.0,0.0,0.0,0.0,0.0,0.0,0.0,0.0,0.0,0.0,0.0,0.0,0.0,0.0,0.0,0.0,0.0,0.0,0.0,0.0,0.0,0.0,0.0,0.0,0.0,0.0,0.0,0.0,0.0,0.0,0.0,0.0,0.0,0.0,0.0,0.0,0.0,0.0,0.0,0.0,0.0,0.0,0.0,0.0,0.0,0.0,0.0,0.0,0.0,0.0,0.0,0.0,0.0,0.0,0.0,0.0,0.0,0.0,0.0,0.0,0.0,0.0,0.0,0.0,0.0,0.0,0.0,0.0,0.0,0.0,0.0,0.0,0.0,0.0,0.0,0.0,0.0,0.0,0.0,0.0,0.0,0.0,0.0,0.0,0.0,-2.2712,0.0,0.0,0.0,0.0,0.0,0.0,0.0,0.0,0.0,0.0,0.0,0.0,0.0,0.0,0.0,0.0,0.0,0.0,0.0,0.0,0.0,0.0,0.0,0.0,0.0,0.0,0.0,0.0,0.0,0.0,0.0,0.0,0.0,0.0,0.0,0.0,0.0,0.0,0.0,0.0,0.0,0.0,0.0,0.0,0.0,0.0,0.0,0.0,0.0,0.0,0.0,0.0,0.0,0.0,0.0,0.0,0.0,0.0,0.0,0.0,0.0,0.0,0.0,0.0,0.0,0.0,0.0,0.0,0.0,0.0,0.0,0.0,0.0,0.0,0.0,0.0,0.0,0.0,0.0,0.0,0.0,0.0,0.0,0.0,0.0,0.0,0.0,0.0,0.0,0.0,0.0,0.0,0.0,0.0,0.0,0.0,0.0,0.0,0.0,0.0,0.0,0.0,0.0,0.0,0.0,0.0,0.0,0.0,0.0,0.0,-2.4612,-2.3805,-2.3095,-2.2712,-2.2712,0.0,0.0,0.0,0.0,0.0,0.0,0.0,0.0,0.0,0.0,0.0,0.0,0.0,0.0,0.0,0.0,0.0,0.0,0.0,0.0,0.0,0.0,0.0,0.0,0.0,0.0,0.0,0.0,0.0,0.0,0.0,0.0,0.0,0.0,0.0,0.0,0.0,0.0,0.0,0.0,0.0,0.0,0.0,0.0,0.0,0.0,0.0,0.0,0.0,0.0,0.0,0.0,0.0,0.0,0.0,0.0,0.0,0.0,0.0,0.0,0.0,0.0,0.0,0.0,0.0,0.0,0.0,0.0,0.0,0.0,0.0,0.0,0.0,0.0,0.0,0.0,0.0,0.0,0.0,0.0,0.0,0.0,0.0,0.0,0.0,0.0,0.0,0.0,0.0,0.0,0.0,0.0,0.0,0.0,0.0,0.0,0.0,0.0,0.0,0.0,0.0,0.0,0.0,0.0,0.0,0.0,0.0,0.0,0.0,0.0,0.0,0.0,-2.3336,-2.2871,-2.2716,0.0,0.0,0.0,0.0,0.0,0.0,0.0,0.0,0.0,0.0,0.0,0.0,0.0,0.0,0.0,0.0,0.0,0.0,0.0,0.0,0.0,0.0,0.0,0.0,0.0,0.0,0.0,0.0,0.0,0.0,0.0,0.0,0.0,0.0,0.0,0.0,0.0,0.0,0.0,0.0,0.0,0.0,0.0,0.0,0.0,0.0,0.0,0.0,0.0,0.0,0.0,0.0,0.0,0.0,0.0,0.0,0.0,0.0,0.0,0.0,0.0,0.0,0.0,0.0,0.0,0.0,0.0,0.0,0.0,0.0,0.0,0.0,0.0,0.0,0.0,0.0,0.0,0.0,0.0,0.0,0.0,0.0,0.0,0.0,0.0,0.0,0.0,0.0,0.0,0.0,0.0,0.0,0.0,0.0,0.0,0.0,0.0,0.0,0.0,0.0,0.0,0.0,0.0,0.0,0.0,0.0,0.0,0.0,0.0,0.0,-2.5628,-2.4902,-2.4112,0.0,-2.2767,0.0,0.0,0.0,0.0,0.0,0.0,0.0,0.0,0.0,0.0,0.0,0.0,0.0,0.0,0.0,0.0,0.0,0.0,0.0,0.0,0.0,0.0,0.0,0.0,0.0,0.0,0.0,0.0,0.0,0.0,0.0,0.0,0.0,0.0,0.0,0.0,0.0,0.0,0.0,0.0,0.0,0.0,0.0,0.0,0.0,0.0,0.0,0.0,0.0,0.0,0.0,0.0,0.0,0.0,0.0,0.0,0.0,0.0,0.0,0.0,0.0,0.0,0.0,0.0,0.0,0.0,0.0,0.0,0.0,0.0,0.0,0.0,0.0,0.0,0.0,0.0,0.0,0.0,0.0,0.0,0.0,0.0,0.0,0.0,0.0,0.0,0.0,0.0,0.0,0.0,0.0,0.0,0.0,0.0,0.0,0.0,0.0,0.0,0.0,0.0,0.0,0.0,0.0,0.0,0.0,0.0,0.0,0.0,0.0,0.0,-2.5956,-2.5661,-2.4439,-2.3443,0.0,0.0,0.0,0.0,0.0,0.0,0.0,0.0,0.0,0.0,0.0,0.0,0.0,0.0,0.0,0.0,0.0,0.0,0.0,0.0,0.0,0.0,0.0,0.0,0.0,0.0,0.0,0.0,0.0,0.0,0.0,0.0,0.0,0.0,0.0,0.0,0.0,0.0,0.0,0.0,0.0,0.0,0.0,0.0,0.0,0.0,0.0,0.0,0.0,0.0,0.0,0.0,0.0,0.0,0.0,0.0,0.0,0.0,0.0,0.0,0.0,0.0,0.0,0.0,0.0,0.0,0.0,0.0,0.0,0.0,0.0,0.0,0.0,0.0,0.0,0.0,0.0,0.0,0.0,0.0,0.0,0.0,0.0,0.0,0.0,0.0,0.0,0.0,0.0,0.0,0.0,0.0,0.0,0.0,0.0,0.0,0.0,0.0,0.0,0.0,0.0,0.0,0.0,0.0,0.0,0.0,0.0,0.0,0.0,0.0,-2.673,-2.6333,-2.6042,-2.4818,-2.3767,-2.3026,0.0,0.0,0.0,0.0,0.0,0.0,0.0,0.0,0.0,0.0,0.0,0.0,0.0,0.0,0.0,0.0,0.0,0.0,0.0,0.0,0.0,0.0,0.0,0.0,0.0,0.0,0.0,0.0,0.0,0.0,0.0,0.0,0.0,0.0,0.0,0.0,0.0,0.0,0.0,0.0,0.0,0.0,0.0,0.0,0.0,0.0,0.0,0.0,0.0,0.0,0.0,0.0,0.0,0.0,0.0,0.0,0.0,0.0,0.0,0.0,0.0,0.0,0.0,0.0,0.0,0.0,0.0,0.0,0.0,0.0,0.0,0.0,0.0,0.0,0.0,0.0,0.0,0.0,0.0,0.0,0.0,0.0,0.0,0.0,0.0,0.0,0.0,0.0,0.0,0.0,0.0,0.0,0.0,0.0,0.0,0.0,0.0,0.0,0.0,0.0,0.0,0.0,0.0,0.0,0.0,0.0,0.0,0.0,-2.7349,-2.7264,-2.6868,-2.6126,-2.5335,-2.456,0.0,0.0,0.0,0.0,0.0,0.0,0.0,0.0,0.0,0.0,0.0,0.0,0.0,0.0,0.0,0.0,0.0,0.0,0.0,0.0,0.0,0.0,0.0,0.0,0.0,0.0,0.0,0.0,0.0,0.0,0.0,0.0,0.0,0.0,0.0,0.0,0.0,0.0,0.0,0.0,0.0,0.0,0.0,0.0,0.0,0.0,0.0,0.0,0.0,0.0,0.0,0.0,0.0,0.0,0.0,0.0,0.0,0.0,0.0,0.0,0.0,0.0,0.0,0.0,0.0,0.0,0.0,0.0,0.0,0.0,0.0,0.0,0.0,0.0,0.0,0.0,0.0,0.0,0.0,0.0,0.0,0.0,0.0,0.0,0.0,0.0,0.0,0.0,0.0,0.0,0.0,0.0,0.0,0.0,0.0,0.0,0.0,0.0,0.0,0.0,0.0,0.0,0.0,0.0,0.0,0.0,0.0,0.0,0.0,-2.7366,-2.7315,-2.6919,-2.6143,-2.5835,-2.5335,0.0,0.0,0.0,0.0,0.0,0.0,0.0,0.0,0.0,0.0,0.0,0.0,0.0,0.0,0.0,0.0,0.0,0.0,0.0,0.0,0.0,0.0,0.0,0.0,0.0,0.0,0.0,0.0,0.0,0.0,0.0,0.0,0.0,0.0,0.0,0.0,0.0,0.0,0.0,0.0,0.0,0.0,0.0,0.0,0.0,0.0,0.0,0.0,0.0,0.0,0.0,0.0,0.0,0.0,0.0,0.0,0.0,0.0,0.0,0.0,0.0,0.0,0.0,0.0,0.0,0.0,0.0,0.0,0.0,0.0,0.0,0.0,0.0,0.0,0.0,0.0,0.0,0.0,0.0,0.0,0.0,0.0,0.0,0.0,0.0,0.0,0.0,0.0,0.0,0.0,0.0,0.0,0.0,0.0,0.0,0.0,0.0,0.0,0.0,0.0,0.0,0.0,0.0,0.0,0.0,0.0,0.0,0.0,0.0,-2.7598,0.0,-2.77,-2.7135,-2.6908,-2.6459,0.0,0.0,0.0,0.0,0.0,0.0,0.0,0.0,0.0,0.0,0.0,0.0,0.0,0.0,0.0,0.0,0.0,0.0,0.0,0.0,0.0,0.0,0.0,0.0,0.0,0.0,0.0,0.0,0.0,0.0,0.0,0.0,0.0,0.0,0.0,0.0,0.0,0.0,0.0,0.0,0.0,0.0,0.0,0.0,0.0,0.0,0.0,0.0,0.0,0.0,0.0,0.0,0.0,0.0,0.0,0.0,0.0,0.0,0.0,0.0,0.0,0.0,0.0,0.0,0.0,0.0,0.0,0.0,0.0,0.0,0.0,0.0,0.0,0.0,0.0,0.0,0.0,0.0,0.0,0.0,0.0,0.0,0.0,0.0,0.0,0.0,0.0,0.0,0.0,0.0,0.0,0.0,0.0,0.0,0.0,0.0,0.0,0.0,0.0,0.0,0.0,0.0,0.0,0.0,0.0,0.0,0.0,0.0,-2.8169,-2.8152,-2.8922,-2.923,-2.916,-2.8562,-2.7859,0.0,0.0,0.0,0.0,0.0,0.0,0.0,0.0,0.0,0.0,0.0,0.0,0.0,0.0,0.0,0.0,0.0,0.0,0.0,0.0,0.0,0.0,0.0,0.0,0.0,0.0,0.0,0.0,0.0,0.0,0.0,0.0,0.0,0.0,0.0,0.0,0.0,0.0,0.0,0.0,0.0,0.0,0.0,0.0,0.0,0.0,0.0,0.0,0.0,0.0,0.0,0.0,0.0,0.0,0.0,0.0,0.0,0.0,0.0,0.0,0.0,0.0,0.0,0.0,0.0,0.0,0.0,0.0,0.0,0.0,0.0,0.0,0.0,0.0,0.0,0.0,0.0,0.0,0.0,0.0,0.0,0.0,0.0,0.0,0.0,0.0,0.0,0.0,0.0,0.0,0.0,0.0,0.0,0.0,0.0,0.0,0.0,0.0,0.0,0.0,0.0,0.0,0.0,0.0,0.0,0.0,0.0,0.0,0.0,-2.8886,-2.9109,-2.9229,-2.9176,-2.9024,-2.8545,0.0,0.0,0.0,0.0,0.0,0.0,0.0,0.0,0.0,0.0,0.0,0.0,0.0,0.0,0.0,0.0,0.0,0.0,0.0,0.0,0.0,0.0,0.0,0.0,0.0,0.0,0.0,0.0,0.0,0.0,0.0,0.0,0.0,0.0,0.0,0.0,0.0,0.0,0.0,0.0,0.0,0.0,0.0,0.0,0.0,0.0,0.0,0.0,0.0,0.0,0.0,0.0,0.0,0.0,0.0,0.0,0.0,0.0,0.0,0.0,0.0,0.0,0.0,0.0,0.0,0.0,0.0,0.0,0.0,0.0,0.0,0.0,0.0,0.0,0.0,0.0,0.0,0.0,0.0,0.0,0.0,0.0,0.0,0.0,0.0,0.0,0.0,0.0,0.0,0.0,0.0,0.0,0.0,0.0,0.0,0.0,0.0,0.0,0.0,0.0,0.0,0.0,0.0,0.0,0.0,0.0,0.0,0.0,0.0,-3.0807,-3.1085,-3.1255,-3.1272,-3.0747,-3.008,-2.9273,0.0,0.0,0.0,0.0,0.0,0.0,0.0,0.0,0.0,0.0,0.0,0.0,0.0,0.0,0.0,0.0,0.0,0.0,0.0,0.0,0.0,0.0,0.0,0.0,0.0,0.0,0.0,0.0,0.0,0.0,0.0,0.0,0.0,0.0,0.0,0.0,0.0,0.0,0.0,0.0,0.0,0.0,0.0,0.0,0.0,0.0,0.0,0.0,0.0,0.0,0.0,0.0,0.0,0.0,0.0,0.0,0.0,0.0,0.0,0.0,0.0,0.0,0.0,0.0,0.0,0.0,0.0,0.0,0.0,0.0,0.0,0.0,0.0,0.0,0.0,0.0,0.0,0.0,0.0,0.0,0.0,0.0,0.0,0.0,0.0,0.0,0.0,0.0,0.0,0.0,0.0,0.0,0.0,0.0,0.0,0.0,0.0,0.0,0.0,0.0,0.0,0.0,0.0,0.0,0.0,0.0,0.0,0.0,-3.3651,-3.4544,-3.4868,-3.4657,-3.3278,-3.2185,0.0,0.0,0.0,0.0,0.0,0.0,0.0,0.0,0.0,0.0,0.0,0.0,0.0,0.0,0.0,0.0,0.0,0.0,0.0,0.0,0.0,0.0,0.0,0.0,0.0,0.0,0.0,0.0,0.0,0.0,0.0,0.0,0.0,0.0,0.0,0.0,0.0,0.0,0.0,0.0,0.0,0.0,0.0,0.0,0.0,0.0,0.0,0.0,0.0,0.0,0.0,0.0,0.0,0.0,0.0,0.0,0.0,0.0,0.0,0.0,0.0,0.0,0.0,0.0,0.0,0.0,0.0,0.0,0.0,0.0,0.0,0.0,0.0,0.0,0.0,0.0,0.0,0.0,0.0,0.0,0.0,0.0,0.0,0.0,0.0,0.0,0.0,0.0,0.0,0.0,0.0,0.0,0.0,0.0,0.0,0.0,0.0,0.0,0.0,0.0,0.0,0.0,0.0,0.0,0.0,0.0,0.0,0.0,0.0,-3.5926,-3.7583,-3.7393,-3.5132,-3.3472,-3.2416,0.0,0.0,0.0,0.0,0.0,0.0,0.0,0.0,0.0,0.0,0.0,0.0,0.0,0.0,0.0,0.0,0.0,0.0,0.0,0.0,0.0,0.0,0.0,0.0,0.0,0.0,0.0,0.0,0.0,0.0,0.0,0.0,0.0,0.0,0.0,0.0,0.0,0.0,0.0,0.0,0.0,0.0,0.0,0.0,0.0,0.0,0.0,0.0,0.0,0.0,0.0,0.0,0.0,0.0,0.0,0.0,0.0,0.0,0.0,0.0,0.0,0.0,0.0,0.0,0.0,0.0,0.0,0.0,0.0,0.0,0.0,0.0,0.0,0.0,0.0,0.0,0.0,0.0,0.0,0.0,0.0,0.0,0.0,0.0,0.0,0.0,0.0,0.0,0.0,0.0,0.0,0.0,0.0,0.0,0.0,0.0,0.0,0.0,0.0,0.0,0.0,0.0,0.0,0.0,0.0,0.0,0.0,0.0,-3.5655,-3.7232,-3.8836,-3.893,-3.7399,-3.5473,-3.3918,0.0,0.0,0.0,0.0,0.0,0.0,0.0,0.0,0.0,0.0,0.0,0.0,0.0,0.0,0.0,0.0,0.0,0.0,0.0,0.0,0.0,0.0,0.0,0.0,0.0,0.0,0.0,0.0,0.0,0.0,0.0,0.0,0.0,0.0,0.0,0.0,0.0,0.0,0.0,0.0,0.0,0.0,0.0,0.0,0.0,0.0,0.0,0.0,0.0,0.0,0.0,0.0,0.0,0.0,0.0,0.0,0.0,0.0,0.0,0.0,0.0,0.0,0.0,0.0,0.0,0.0,0.0,0.0,0.0,0.0,0.0,0.0,0.0,0.0,0.0,0.0,0.0,0.0,0.0,0.0,0.0,0.0,0.0,0.0,0.0,0.0,0.0,0.0,0.0,0.0,0.0,0.0,0.0,0.0,0.0,0.0,0.0,0.0,0.0,0.0,0.0,0.0,0.0,0.0,0.0,0.0,0.0,0.0,-3.6733,-3.8051,-3.9228,-4.002,-4.0317,-3.8194,-3.5992,0.0,0.0,0.0,0.0,0.0,0.0,0.0,0.0,0.0,0.0,0.0,0.0,0.0,0.0,0.0,0.0,0.0,0.0,0.0,0.0,0.0,0.0,0.0,0.0,0.0,0.0,0.0,0.0,0.0,0.0,0.0,0.0,0.0,0.0,0.0,0.0,0.0,0.0,0.0,0.0,0.0,0.0,0.0,0.0,0.0,0.0,0.0,0.0,0.0,0.0,0.0,0.0,0.0,0.0,0.0,0.0,0.0,0.0,0.0,0.0,0.0,0.0,0.0,0.0,0.0,0.0,0.0,0.0,0.0,0.0,0.0,0.0,0.0,0.0,0.0,0.0,0.0,0.0,0.0,0.0,0.0,0.0,0.0,0.0,0.0,0.0,0.0,0.0,0.0,0.0,0.0,0.0,0.0,0.0,0.0,0.0,0.0,0.0,0.0,0.0,0.0,0.0,0.0,0.0,0.0,0.0,0.0,0.0,-3.7875,-3.9289,-4.1034,-4.1499,-4.0563,-3.8123,-3.6578,0.0,0.0,0.0,0.0,0.0,0.0,0.0,0.0,0.0,0.0,0.0,0.0,0.0,0.0,0.0,0.0,0.0,0.0,0.0,0.0,0.0,0.0,0.0,0.0,0.0,0.0,0.0,0.0,0.0,0.0,0.0,0.0,0.0,0.0,0.0,0.0,0.0,0.0,0.0,0.0,0.0,0.0,0.0,0.0,0.0,0.0,0.0,0.0,-2.4008,0.0,0.0,0.0,0.0,0.0,0.0,0.0,0.0,0.0,0.0,0.0,0.0,0.0,0.0,0.0,0.0,0.0,0.0,0.0,0.0,0.0,0.0,0.0,0.0,0.0,0.0,0.0,0.0,0.0,0.0,0.0,0.0,0.0,0.0,0.0,0.0,0.0,0.0,0.0,0.0,0.0,0.0,0.0,0.0,0.0,0.0,0.0,0.0,0.0,0.0,0.0,0.0,0.0,0.0,0.0,0.0,0.0,0.0,0.0,-3.8758,-4.0181,-4.147,-4.1789,-4.1036,-3.9468,-3.7799,0.0,0.0,0.0,0.0,0.0,0.0,0.0,0.0,0.0,0.0,0.0,0.0,0.0,0.0,0.0,0.0,0.0,0.0,0.0,0.0,0.0,0.0,0.0,0.0,0.0,0.0,0.0,0.0,0.0,0.0,0.0,0.0,0.0,0.0,0.0,0.0,0.0,0.0,0.0,0.0,0.0,0.0,0.0,0.0,0.0,0.0,0.0,0.0,0.0,0.0,0.0,0.0,0.0,0.0,0.0,0.0,0.0,0.0,0.0,0.0,0.0,0.0,0.0,0.0,0.0,0.0,0.0,0.0,0.0,0.0,0.0,0.0,0.0,0.0,0.0,0.0,0.0,0.0,0.0,0.0,0.0,0.0,0.0,0.0,0.0,0.0,0.0,0.0,0.0,0.0,0.0,0.0,0.0,0.0,0.0,0.0,0.0,0.0,0.0,0.0,0.0,0.0,0.0,0.0,0.0,0.0,0.0,-3.7804,-3.9496,-4.088,-4.1467,-4.172,-4.1606,-4.0956,-3.9122,-3.5991,0.0,0.0,0.0,0.0,0.0,0.0,0.0,0.0,0.0,0.0,0.0,0.0,0.0,0.0,0.0,0.0,0.0,0.0,0.0,0.0,0.0,0.0,0.0,0.0,0.0,0.0,0.0,0.0,0.0,0.0,0.0,0.0,0.0,0.0,0.0,0.0,0.0,0.0,-2.0673,-2.2865,0.0,0.0,0.0,0.0,0.0,0.0,0.0,0.0,-2.6368,0.0,0.0,0.0,0.0,0.0,0.0,0.0,0.0,0.0,0.0,0.0,0.0,0.0,0.0,0.0,0.0,0.0,0.0,0.0,0.0,0.0,0.0,0.0,0.0,0.0,0.0,0.0,0.0,0.0,0.0,0.0,0.0,0.0,0.0,0.0,0.0,0.0,0.0,0.0,0.0,0.0,0.0,0.0,0.0,0.0,0.0,0.0,0.0,0.0,0.0,0.0,0.0,0.0,0.0,0.0,0.0,-3.6273,-3.8271,-4.0021,-4.1433,-4.2094,-4.2174,-4.1606,-4.0941,-3.955,-3.727,0.0,0.0,0.0,0.0,0.0,0.0,0.0,0.0,0.0,0.0,0.0,0.0,0.0,0.0,0.0,0.0,0.0,0.0,0.0,0.0,0.0,0.0,0.0,0.0,0.0,0.0,0.0,0.0,0.0,0.0,0.0,0.0,0.0,0.0,0.0,0.0,0.0,0.0,0.0,-2.5116,-2.7055,0.0,0.0,0.0,0.0,0.0,0.0,0.0,0.0,-2.8558,0.0,0.0,0.0,0.0,0.0,0.0,0.0,0.0,0.0,0.0,0.0,0.0,0.0,0.0,0.0,0.0,0.0,0.0,0.0,0.0,0.0,0.0,0.0,0.0,0.0,0.0,0.0,0.0,0.0,0.0,0.0,0.0,0.0,0.0,0.0,0.0,0.0,0.0,0.0,0.0,0.0,0.0,0.0,0.0,0.0,0.0,0.0,0.0,0.0,0.0,0.0,0.0,0.0,0.0,0.0,-3.6911,-3.8984,-4.0545,-4.1558,-4.19,-4.1932,-4.1621,-4.0941,-3.9629,0.0,0.0,0.0,0.0,0.0,0.0,0.0,0.0,0.0,0.0,0.0,0.0,0.0,0.0,0.0,0.0,0.0,0.0,0.0,0.0,0.0,0.0,0.0,0.0,0.0,0.0,0.0,0.0,0.0,0.0,0.0,0.0,0.0,0.0,0.0,0.0,0.0,0.0,0.0,0.0,-2.6505,-2.8434,-3.0254,0.0,0.0,0.0,0.0,0.0,0.0,-3.142,-3.03,0.0,0.0,0.0,0.0,0.0,0.0,0.0,0.0,0.0,0.0,0.0,0.0,0.0,0.0,0.0,0.0,0.0,0.0,0.0,0.0,0.0,0.0,0.0,0.0,0.0,0.0,0.0,0.0,0.0,0.0,0.0,0.0,0.0,0.0,0.0,0.0,0.0,0.0,0.0,0.0,0.0,0.0,0.0,0.0,0.0,0.0,0.0,0.0,0.0,0.0,0.0,0.0,0.0,0.0,0.0,-3.77,-3.9613,-4.0925,-4.1557,-4.1588,-4.1588,-4.1573,-4.0798,-3.9471,0.0,0.0,0.0,0.0,0.0,0.0,0.0,0.0,0.0,0.0,0.0,0.0,0.0,0.0,0.0,0.0,0.0,0.0,0.0,0.0,0.0,0.0,0.0,0.0,0.0,0.0,0.0,0.0,0.0,0.0,0.0,0.0,0.0,0.0,0.0,0.0,0.0,0.0,0.0,0.0,0.0,-2.9513,-3.1421,-3.114,0.0,0.0,0.0,0.0,-3.3283,-3.2748,0.0,0.0,0.0,0.0,0.0,0.0,0.0,0.0,0.0,0.0,0.0,0.0,0.0,0.0,0.0,0.0,0.0,0.0,0.0,0.0,0.0,0.0,0.0,0.0,0.0,0.0,0.0,0.0,0.0,0.0,0.0,0.0,0.0,0.0,0.0,0.0,0.0,0.0,0.0,0.0,0.0,0.0,0.0,0.0,0.0,0.0,0.0,0.0,0.0,0.0,0.0,0.0,0.0,0.0,0.0,0.0,-3.8349,-3.985,-4.0909,-4.1557,-4.1588,-4.1588,-4.1573,-4.0309,-3.895,0.0,0.0,0.0,0.0,0.0,0.0,0.0,0.0,0.0,0.0,0.0,0.0,0.0,0.0,0.0,0.0,0.0,0.0,0.0,0.0,0.0,0.0,0.0,0.0,0.0,0.0,0.0,0.0,0.0,0.0,0.0,0.0,0.0,0.0,0.0,0.0,0.0,0.0,0.0,0.0,0.0,-3.0441,-3.2148,-3.3006,-3.3499,0.0,0.0,-3.4818,-3.4904,-3.4318,0.0,0.0,0.0,0.0,0.0,0.0,0.0,0.0,0.0,0.0,0.0,0.0,0.0,0.0,0.0,0.0,0.0,0.0,0.0,0.0,0.0,0.0,0.0,0.0,0.0,0.0,0.0,0.0,0.0,0.0,0.0,0.0,0.0,0.0,0.0,0.0,0.0,0.0,0.0,0.0,0.0,0.0,0.0,0.0,0.0,0.0,0.0,0.0,0.0,0.0,0.0,0.0,0.0,0.0,0.0,-3.6817,-3.8491,-4.0261,-4.1288,-4.1588,-4.1588,-4.1588,-4.1588,-4.023,-3.8886,0.0,0.0,0.0,0.0,0.0,0.0,0.0,0.0,0.0,0.0,0.0,0.0,0.0,0.0,0.0,0.0,0.0,0.0,0.0,0.0,0.0,0.0,0.0,0.0,0.0,0.0,0.0,0.0,0.0,0.0,0.0,0.0,0.0,0.0,0.0,0.0,0.0,0.0,0.0,0.0,0.0,0.0,-3.2688,-3.3558,0.0,0.0,0.0,-3.5183,-3.5578,0.0,0.0,0.0,0.0,0.0,0.0,0.0,0.0,0.0,0.0,0.0,0.0,0.0,0.0,0.0,0.0,0.0,0.0,0.0,0.0,0.0,0.0,0.0,0.0,0.0,0.0,0.0,0.0,0.0,0.0,0.0,0.0,0.0,0.0,0.0,0.0,0.0,0.0,0.0,0.0,0.0,0.0,0.0,0.0,0.0,0.0,0.0,0.0,0.0,0.0,0.0,0.0,0.0,0.0,0.0,0.0,0.0,-3.876,-4.0625,-4.1588,-4.1588,-4.1588,-4.1588,-4.1573,-4.0419,0.0,0.0,0.0,0.0,0.0,0.0,0.0,0.0,0.0,0.0,0.0,0.0,0.0,0.0,0.0,0.0,0.0,0.0,0.0,0.0,0.0,0.0,0.0,0.0,0.0,0.0,0.0,-2.4216,0.0,0.0,0.0,0.0,0.0,0.0,0.0,0.0,0.0,0.0,0.0,0.0,0.0,0.0,-3.1105,-3.2988,-3.3918,-3.4762,0.0,0.0,-3.5365,-3.5912,-3.5536,-3.4596,0.0,0.0,0.0,0.0,0.0,0.0,0.0,0.0,0.0,0.0,0.0,0.0,0.0,0.0,0.0,0.0,0.0,0.0,0.0,0.0,0.0,0.0,0.0,0.0,0.0,0.0,0.0,0.0,0.0,0.0,0.0,0.0,0.0,0.0,0.0,0.0,0.0,0.0,0.0,0.0,0.0,0.0,0.0,0.0,0.0,0.0,0.0,0.0,0.0,0.0,0.0,0.0,0.0,0.0,0.0,-3.9439,-4.0862,-4.1588,-4.1588,-4.1588,-4.1588,-4.1573,-4.0909,-3.9913,0.0,0.0,0.0,0.0,0.0,0.0,0.0,0.0,0.0,0.0,0.0,0.0,0.0,0.0,0.0,0.0,0.0,0.0,0.0,0.0,0.0,0.0,0.0,0.0,0.0,0.0,0.0,0.0,0.0,0.0,0.0,0.0,0.0,0.0,0.0,0.0,0.0,0.0,0.0,0.0,0.0,-3.1539,-3.2926,-3.4242,-3.5323,0.0,0.0,-3.5946,-3.5997,-3.598,-3.5173,-3.2886,0.0,0.0,0.0,0.0,0.0,0.0,0.0,0.0,0.0,0.0,0.0,0.0,0.0,0.0,0.0,0.0,0.0,0.0,0.0,0.0,0.0,0.0,0.0,0.0,0.0,0.0,0.0,0.0,0.0,0.0,0.0,0.0,0.0,0.0,0.0,0.0,0.0,0.0,0.0,0.0,0.0,0.0,0.0,0.0,0.0,0.0,0.0,0.0,0.0,0.0,0.0,0.0,0.0,-3.857,-3.9503,-4.0877,-4.1588,-4.1588,-4.1588,-4.1588,-4.1588,-4.0941,-4.0087,0.0,0.0,0.0,0.0,0.0,0.0,0.0,0.0,0.0,0.0,0.0,0.0,0.0,0.0,0.0,0.0,0.0,0.0,0.0,0.0,0.0,0.0,0.0,0.0,0.0,0.0,0.0,0.0,-3.0336,-3.0745,-2.9463,0.0,0.0,0.0,0.0,0.0,0.0,0.0,0.0,0.0,0.0,-3.2696,-3.4326,-3.5498,0.0,0.0,-3.7165,-3.6995,-3.6559,-3.6508,-3.5875,-3.4033,-3.3371,0.0,0.0,0.0,0.0,0.0,0.0,0.0,0.0,0.0,0.0,0.0,0.0,0.0,0.0,0.0,0.0,0.0,0.0,0.0,0.0,0.0,0.0,0.0,0.0,0.0,0.0,0.0,0.0,0.0,0.0,0.0,0.0,0.0,0.0,0.0,0.0,0.0,0.0,0.0,0.0,0.0,0.0,0.0,0.0,0.0,0.0,0.0,0.0,0.0,0.0,0.0,0.0,-3.9234,-4.0119,-4.1509,-4.2236,-4.2236,-4.2031,-4.192,-4.1904,-4.1257,-4.061,0.0,0.0,0.0,0.0,0.0,0.0,0.0,0.0,0.0,0.0,0.0,0.0,0.0,0.0,0.0,0.0,0.0,0.0,0.0,0.0,0.0,0.0,0.0,0.0,0.0,0.0,0.0,0.0,-3.1228,-3.1187,-2.9979,0.0,0.0,0.0,0.0,0.0,0.0,0.0,0.0,0.0,0.0,-3.3905,-3.5534,-3.6434,-3.7114,-3.7797,-3.7898,-3.7719,-3.7235,-3.6948,-3.644,-3.5374,0.0,0.0,0.0,0.0,0.0,0.0,0.0,0.0,0.0,0.0,0.0,0.0,0.0,0.0,0.0,0.0,0.0,0.0,0.0,0.0,0.0,0.0,0.0,0.0,0.0,0.0,0.0,0.0,0.0,0.0,0.0,0.0,0.0,0.0,0.0,0.0,0.0,0.0,0.0,0.0,0.0,0.0,0.0,0.0,0.0,0.0,0.0,0.0,0.0,0.0,0.0,0.0,0.0,0.0,-4.1541,-4.2884,-4.3608,-4.3608,-4.3026,-4.2663,-4.2665,-4.1985,-4.163,-4.1727,0.0,0.0,0.0,0.0,0.0,0.0,0.0,0.0,0.0,0.0,0.0,0.0,0.0,0.0,0.0,0.0,0.0,0.0,0.0,0.0,0.0,0.0,0.0,0.0,0.0,0.0,-3.1804,-3.1632,-3.1131,0.0,0.0,0.0,0.0,0.0,0.0,0.0,0.0,0.0,0.0,-3.3979,-3.5082,-3.6267,-3.6811,-3.7344,-3.7884,-3.7956,-3.7922,-3.7889,-3.7297,-3.6795,0.0,0.0,0.0,0.0,0.0,0.0,0.0,0.0,0.0,0.0,0.0,0.0,0.0,0.0,0.0,0.0,0.0,0.0,0.0,0.0,0.0,0.0,0.0,0.0,0.0,0.0,0.0,-3.311,-3.5488,0.0,0.0,0.0,0.0,0.0,0.0,0.0,0.0,0.0,0.0,0.0,-4.0847,-4.0216,0.0,0.0,0.0,0.0,0.0,0.0,0.0,0.0,0.0,0.0,0.0,0.0,-4.113,-4.1636,-4.2995,-4.3687,-4.3687,-4.3466,-4.3325,-4.3297,-4.3057,-4.284,-4.267,0.0,0.0,0.0,0.0,0.0,0.0,0.0,0.0,0.0,0.0,0.0,0.0,0.0,0.0,0.0,0.0,0.0,0.0,0.0,0.0,0.0,0.0,0.0,0.0,0.0,-3.156,0.0,0.0,0.0,0.0,0.0,0.0,0.0,0.0,0.0,0.0,0.0,-3.329,-3.4182,-3.5431,-3.6684,-3.7736,-3.8153,-3.8596,0.0,0.0,0.0,0.0,0.0,0.0,0.0,0.0,0.0,0.0,0.0,0.0,0.0,0.0,-3.1627,-3.0246,-3.0456,-3.0857,-3.0908,0.0,0.0,0.0,0.0,0.0,0.0,0.0,0.0,0.0,0.0,0.0,0.0,0.0,0.0,0.0,0.0,-3.899,0.0,0.0,0.0,0.0,0.0,0.0,0.0,0.0,-4.2729,-4.3207,-4.3897,-4.3268,-4.2839,0.0,-4.2041,-4.0817,0.0,0.0,0.0,0.0,0.0,0.0,0.0,0.0,-4.2094,-4.2396,-4.3722,-4.4448,-4.4397,-4.4161,-4.4161,-4.4366,-4.4327,-4.4188,-4.3962,-4.2913,-4.1767,0.0,0.0,0.0,0.0,0.0,0.0,0.0,0.0,0.0,0.0,0.0,0.0,0.0,0.0,0.0,0.0,0.0,0.0,0.0,0.0,0.0,0.0,0.0,-3.252,0.0,0.0,0.0,0.0,0.0,0.0,0.0,0.0,0.0,-3.1897,-3.3529,-3.4895,-3.5567,-3.6832,-3.7987,-3.8856,0.0,0.0,0.0,0.0,0.0,0.0,0.0,-3.8871,-3.8512,-3.8268,-3.7842,-3.7168,-3.6337,-3.5775,-3.5678,0.0,0.0,-3.3024,-3.303,-3.3274,-3.2898,-3.2954,-3.3081,-3.3034,-3.3341,-3.35,0.0,0.0,0.0,0.0,0.0,0.0,0.0,0.0,-4.0094,-4.0475,0.0,-4.2021,0.0,0.0,0.0,0.0,0.0,0.0,0.0,0.0,-4.54,-4.5798,-4.5767,-4.5593,-4.5563,-4.5579,-4.5258,-4.487,-4.4215,-4.131,0.0,0.0,0.0,0.0,0.0,0.0,-4.3074,-4.3706,-4.5065,-4.5807,-4.576,-4.5112,-4.5088,-4.5761,-4.5677,-4.5618,-4.5591,-4.4697,-4.3812,-4.3039,-4.0656,0.0,0.0,0.0,0.0,0.0,0.0,0.0,0.0,0.0,0.0,0.0,0.0,0.0,0.0,0.0,0.0,0.0,0.0,0.0,0.0,-3.3414,0.0,0.0,0.0,0.0,0.0,0.0,0.0,0.0,0.0,0.0,-3.2865,-3.4104,-3.5521,-3.6906,0.0,0.0,0.0,0.0,-4.0113,-4.0113,-4.0113,-4.0096,-4.0096,-3.9478,-3.9226,-3.9792,0.0,0.0,-3.847,-3.7734,-3.7185,-3.7185,-3.7801,-3.7533,-3.4679,-3.4288,-3.4127,-3.3467,-3.3922,-3.4129,-3.4101,-3.51,-3.5684,-3.9139,0.0,0.0,0.0,0.0,-3.576,-3.803,-4.1607,-4.1823,-4.3081,-4.5036,-4.4903,0.0,0.0,0.0,0.0,0.0,0.0,-4.4854,-4.6212,-4.593,-4.592,-4.6126,-4.5634,-4.5227,-4.4968,-4.4656,-4.4423,-4.4255,-4.3597,-4.3013,-4.2554,0.0,0.0,0.0,0.0,-4.4227,-4.4464,-4.5349,-4.5807,-4.5807,-4.5602,-4.5792,-4.6421,-4.634,-4.6299,-4.6306,-4.603,-4.5232,-4.3847,-4.2586,0.0,0.0,0.0,0.0,0.0,0.0,0.0,0.0,0.0,0.0,0.0,0.0,0.0,0.0,0.0,0.0,0.0,0.0,0.0,-3.3942,-3.4594,-3.4549,0.0,0.0,0.0,0.0,0.0,0.0,0.0,0.0,0.0,-3.5247,-3.6222,-3.7044,0.0,0.0,-3.9152,-3.9329,-3.979,-4.0113,-4.0113,0.0,0.0,0.0,-3.9926,-3.9825,-3.9893,-3.9622,-3.9376,-3.9211,-3.8992,-3.879,-3.8669,-3.8861,-3.8603,-3.7481,-3.756,-3.758,-3.7009,-3.7313,-3.7603,-3.7178,-3.7713,-3.8041,-4.5748,-4.3048,-3.9007,-3.8212,-3.9642,-3.9675,-4.1562,-4.4705,-4.4688,-4.5533,-4.6891,-4.6742,-4.6113,-4.5086,-4.4671,0.0,0.0,0.0,-4.6195,-4.7322,-4.6874,-4.6763,-4.693,-4.6536,-4.6241,-4.5996,-4.5814,-4.563,-4.5496,-4.5539,-4.5295,-4.4706,0.0,0.0,-4.3753,-4.4369,-4.4717,-4.4749,-4.5683,-4.6191,-4.6191,-4.6724,-4.6941,-4.675,-4.7208,-4.721,-4.6623,-4.6598,-4.5973,-4.4698,-4.3855,-4.2586,0.0,0.0,0.0,0.0,0.0,0.0,0.0,0.0,0.0,0.0,0.0,-3.1654,0.0,0.0,0.0,0.0,-3.4131,-3.461,-3.5229,-3.5429,0.0,0.0,0.0,0.0,0.0,0.0,0.0,-3.3195,-3.4328,-3.5354,-3.6052,-3.7123,-3.7947,-3.8119,-3.865,-3.9142,-3.9382,0.0,-4.0113,-4.0113,-4.0299,-4.045,-4.0467,-4.0669,-4.0675,-4.0232,-4.005,-3.9811,-3.9481,-3.9405,-3.9379,-3.9325,-3.9315,-3.9175,-3.8772,-3.9104,-3.9121,-3.8181,-3.8451,-3.8745,-3.8379,-3.8827,-3.9121,-5.1481,-5.0835,-4.3393,-4.1773,-4.4062,-4.4111,-4.5618,-4.805,-4.8084,-4.7669,-4.704,-4.7719,-4.7239,-4.598,-4.598,0.0,-4.699,-4.699,-4.7338,-4.8001,-4.7934,-4.7918,-4.7918,-4.7835,-4.7819,-4.7802,-4.7802,-4.7573,-4.7125,-4.6867,-4.6571,-4.6154,-4.5258,-4.4496,-4.3959,-4.4496,-4.4796,-4.4796,-4.607,-4.6742,-4.6811,-4.8111,-4.8207,-4.7019,-4.8179,-4.8168,-4.6857,-4.6724,-4.6293,-4.5535,-4.4655,-4.3864,-4.3091,0.0,0.0,0.0,0.0,0.0,0.0,0.0,0.0,0.0,0.0,0.0,0.0,0.0,0.0,0.0,-3.5396,0.0,-3.6445,-3.5922,0.0,0.0,0.0,-3.4566,-3.452,-3.4597,-3.4688,-3.4718,0.0,0.0,-3.6143,0.0,-3.8505,-3.9024,-3.9002,-3.9193,-3.9792,-4.0154,-4.0282,-4.0367,-4.0762,-4.1096,-4.1139,-4.152,-4.1569,-4.0882,-4.0602,-4.0315,-3.974,-3.9574,-3.9541,-3.958,-3.9481,-3.9514,-3.9481,-3.9537,-3.9122,-3.8107,-3.8148,-3.8407,-3.8351,-3.8843,-3.9121,-5.2904,-5.2638,-4.9674,-4.8514,-4.863,-4.8647,-4.873,-4.8845,-4.8845,-4.8431,-4.7769,-4.7918,-4.7802,-4.7487,-4.7487,-4.757,-4.7736,-4.7736,-4.7835,-4.7968,-4.7421,-4.7156,-4.7123,-4.6593,-4.6311,-4.6311,-4.6073,-4.5783,-4.5438,-4.5586,-4.5568,-4.534,-4.5599,-4.5619,-4.5333,-4.5476,-4.5539,-4.5555,-4.5877,-4.6282,-4.6828,-4.7671,-4.8224,-4.8398,-4.8714,-4.8699,-4.8272,-4.7709,-4.7086,-4.6328,-4.5526,-4.4715,-4.3864,-4.198,0.0,0.0,0.0,0.0,0.0,0.0,0.0,0.0,0.0,-3.492,-3.5414,0.0,-3.767,0.0,-3.7017,-3.6876,-3.6522,-3.6353,0.0,0.0,-3.5367,-3.5075,-3.4566,-3.5429,-3.6213,-3.6735,-3.7971,-3.9124,-3.9931,-4.0094,-4.0484,-4.1301,-4.0779,-4.0581,-4.1278,-4.1603,-4.1762,-4.1745,-4.1871,-4.198,-4.2004,-4.2025,-4.1953,-4.1642,-4.1571,-4.1449,-4.1189,-4.1145,-4.1084,-4.0939,-4.0912,-4.0895,-4.0878,-4.0912,-4.0795,-4.043,-3.9698,-3.8898,-3.8435,-3.8843,-3.9245,-5.3897,-5.3848,-5.3053,-5.2307,-5.1562,-5.0634,-4.9972,-4.9607,-4.9591,-4.9359,-4.8978,-4.8978,-4.8812,-4.8498,-4.8481,-4.8299,-4.8017,-4.8001,-4.8001,-4.7984,-4.757,-4.7404,-4.7371,-4.6974,-4.6775,-4.6775,-4.6583,-4.6388,-4.6225,-4.625,-4.6191,-4.6088,-4.6141,-4.612,-4.6028,-4.5988,-4.5916,-4.5932,-4.6227,-4.6687,-4.7288,-4.7998,-4.8383,-4.8446,-4.9087,-4.9048,-4.8401,-4.8237,-4.7827,-4.7103,-4.6345,-4.5671,-4.5083,-4.3354,-4.1696,0.0,0.0,0.0,0.0,0.0,0.0,0.0,0.0,0.0,0.0,0.0,-3.8809,0.0,-3.7986,-3.78,-3.743,-3.74,-3.723,-3.6876,-3.683,-3.6692,-3.6307,-3.6938,-3.7528,-3.7904,-3.867,-3.9456,-4.0025,-4.0132,-4.0621,-4.1789,-4.1693,-4.1643,-4.1957,-4.1974,-4.1974,-4.226,-4.2537,-4.2766,-4.2959,-4.2903,-4.2645,-4.226,-4.2166,-4.2038,-4.1621,-4.1571,-4.1543,-4.1425,-4.1397,-4.1397,-4.1397,-4.1397,-4.1397,-4.1309,-4.0796,-4.004,-3.9385,-3.9528,-3.973,-5.4622,-5.4643,-5.4523,-5.4109,-5.3417,-5.1562,-5.0618,-5.0336,-5.0353,-5.0303,-5.022,-5.022,-4.9856,-4.926,-4.9243,-4.8895,-4.8299,-4.8282,-4.8233,-4.8133,-4.815,-4.8084,-4.8001,-4.8001,-4.8001,-4.8001,-4.8001,-4.7968,-4.7902,-4.7555,-4.7387,-4.7337,-4.674,-4.6407,-4.6407,-4.6333,-4.6294,-4.6223,-4.6825,-4.7439,-4.7982,-4.8635,-4.8728,-4.8208,-4.935,-4.9387,-4.8184,-4.8569,-4.8499,-4.7872,-4.7165,-4.6628,-4.632,-4.4555,-4.3071,0.0,-4.0585,0.0,0.0,0.0,0.0,0.0,0.0,0.0,0.0,-3.8974,-3.937,-3.8692,-3.8631,-3.86,-3.8523,-3.8508,-3.8508,-3.8508,-3.8508,-3.8508,-3.8508,-3.8585,-3.8648,-3.8729,-3.8889,-3.9034,-3.9357,-3.9677,-4.0601,-4.1863,-4.2318,-4.2553,-4.2581,-4.2205,-4.2094,-4.252,-4.3012,-4.3468,-4.3731,-4.371,-4.3376,-4.28,-4.2667,-4.2435,-4.1872,-4.1756,-4.174,-4.1711,-4.1778,-4.1744,-4.1678,-4.1711,-4.1695,-4.1806,-4.1728,-4.1413,-4.0702,-4.047,-4.0326,-5.5383,-5.5334,-5.4775,-5.439,-5.4278,-5.3827,-5.2705,-5.11,-5.11,-5.075,-5.022,-5.022,-5.0121,-5.0005,-5.0005,-4.9939,-4.979,-4.979,-4.9475,-4.8912,-4.8895,-4.858,-4.8017,-4.8001,-4.8001,-4.8001,-4.8001,-4.7853,-4.7521,-4.7454,-4.7354,-4.7235,-4.7098,-4.7046,-4.7064,0.0,0.0,0.0,-4.7338,-4.7836,-4.8528,-4.9195,-4.9483,-4.9376,-4.9772,0.0,-4.9578,-4.9063,-4.8723,-4.8568,-4.7879,0.0,0.0,0.0,0.0,0.0,0.0,0.0,0.0,0.0,0.0,0.0,-3.8888,-3.9049,-3.9172,-3.9878,-4.0013,-3.9367,-3.929,-3.9059,-3.8569,-3.8508,-3.8508,-3.8508,-3.8523,-3.8508,-3.8539,-3.9,-3.9508,-4.0067,-4.1056,-4.1913,-4.2327,-4.316,-4.3621,-4.375,-4.3581,-4.356,-4.4046,-4.3805,-4.3827,-4.4119,-4.4041,-4.4028,-4.3939,-4.3852,-4.3684,-4.3459,-4.3383,-4.33,-4.3151,-4.3135,-4.3168,-4.3118,-4.3184,-4.3135,-4.3135,-4.3168,-4.3085,-4.3168,-4.3151,-4.2771,-4.1508,-4.1226,-4.1177,-5.615,0.0,-5.5752,-5.5388,0.0,-5.5019,-5.4245,-5.2854,-5.2489,-5.1943,-5.128,-5.128,-5.1082,-5.075,-5.0734,-5.0535,-5.022,-5.022,-5.0021,-4.9657,-4.9657,-4.926,-4.8564,-4.8564,-4.8365,-4.8001,-4.8001,-4.7886,-4.7704,-4.7704,-4.7688,-4.7588,-4.7404,-4.7286,-4.7302,-4.7538,-4.7638,-4.7605,-4.7439,-4.7819,-4.8762,-4.9101,-4.9466,-4.983,0.0,0.0,0.0,0.0,0.0,0.0,0.0,0.0,0.0,0.0,0.0,-4.244,-4.0967,-3.9868,-3.9203,-3.9267,-3.9405,-3.963,-3.9865,-3.9982,-3.9982,-4.0305,-4.0351,-4.0028,-3.9982,-3.9844,-3.9521,-3.9474,-3.9493,-3.9474,-3.9508,-3.9474,-3.9539,-4.0073,-4.0593,-4.1003,-4.1853,-4.2645,-4.2937,-4.3303,-4.3693,-4.3972,-4.3764,-4.3764,-4.4384,-4.4179,-4.4047,-4.4514,-4.4355,-4.4138,-4.4027,-4.3822,-4.3734,-4.3628,-4.3615,-4.3615,-4.3615,-4.3615,-4.3615,-4.3615,-4.3615,-4.3615,-4.3615,-4.3615,-4.3615,-4.3615,-4.3615,-4.3416,-4.2618,-4.2191,-4.1811,-5.6697,-5.6697,-5.6697,-5.6349,-5.5819,-5.5819,-5.5322,-5.444,0.0,0.0,0.0,-5.2556,-5.2158,-5.1514,-5.1514,-5.1164,-5.0601,-5.0618,-5.0535,-5.0402,-5.0402,-5.0021,-4.9326,-4.9309,-4.8995,-4.8415,-4.8249,-4.8199,-4.8199,-4.8067,-4.8001,-4.7968,-4.7671,-4.7555,-4.7721,-4.7572,-4.7836,-4.843,-4.777,-4.7917,-4.8992,-4.8917,-4.9142,-4.9729,-4.9637,-4.9614,-4.9597,-4.9597,-4.9597,-4.9579,-4.9085,-4.8368,-4.7367,-4.6271,-4.4608,-4.2422,-4.149,-4.0713,-3.9885,-3.9755,-3.998,-4.0462,-4.0489,-4.0489,-4.0489,-4.0489,-4.0489,-4.0489,-4.0489,-4.0489,-4.0489,-4.0489,-4.0489,-4.0489,-4.0489,-4.0509,-4.0665,-4.1142,-4.1478,-4.1722,-4.2284,-4.2676,-4.2722,-4.2909,-4.3061,-4.3558,-4.3781,-4.3869,-4.4367,-4.4133,-4.3943,-4.4327,-4.4229,-4.4097,-4.3981,-4.3805,-4.3615,-4.3615,-4.3615,-4.3615,-4.3615,-4.3615,-4.3615,-4.3615,-4.3615,-4.3615,-4.3615,-4.3615,-4.3615,-4.3615,-4.3615,-4.3615,-4.3565,-4.3118,-4.2522,-5.6697,-5.6697,-5.6697,-5.663,-5.6547,-5.6531,-5.5769,-5.449,-5.4394,-5.3947,-5.3268,-5.3268,-5.2887,-5.226,-5.2224,-5.2194,-5.2075,-5.2075,-5.1728,0.0,-5.1166,-5.075,-5.0071,-5.0055,-5.0005,-4.9856,-4.9226,-4.8945,-4.8895,-4.8315,-4.8001,-4.8001,-4.7935,-4.8307,-4.8978,-4.8274,-4.8574,-5.004,-4.9026,-4.8841,-4.9555,-4.8956,-4.8706,-4.8776,-4.8322,-4.8017,-4.8027,-4.8034,-4.8045,-4.8045,-4.8517,-4.8172,-4.68,-4.5409,-4.3853,-4.2094,-4.0099,-3.8873,-3.875,-3.9169,-3.9764,-4.0404,-4.0489,-4.0489,-4.0489,-4.0489,-4.0489,-4.0489,-4.0489,-4.0489,-4.0489,-4.0489,-4.0489,-4.0489,-4.0489,-4.073,-4.1194,-4.1393,-4.1706,-4.2205,-4.2953,-4.3317,-4.3347,-4.381,-4.4207,-4.4384,-4.4338,-4.4468,-4.4542,-4.4514,-4.4298,-4.4085,-4.4056,-4.3981,-4.3835,-4.3658,-4.3645,-4.3615,-4.3598,-4.3615,-4.3615,-4.3615,-4.3615,-4.3615,-4.3615,-4.3615,-4.3615,-4.3615,-4.3615,-4.3615,-4.3615,-4.3615,-4.3615,-4.3449,-4.3333,-5.6697,-5.6697,-5.6697,-5.6697,-5.6702,-5.6575,-5.592,-5.5004,-5.5259,-5.4391,-5.294,-5.2854,-5.2672,-5.2426,-5.2409,-5.2409,-5.2409,-5.2409,-5.2191,-5.1912,-5.1912,-5.1479,-5.0833,-5.08,-5.0585,-5.0204,-4.9872,-4.9508,-4.911,-4.8746,-4.8513,-4.8389,-4.8371,-4.8562,-4.8858,-4.8656,-4.8968,-4.9854,-4.9178,-4.9148,-4.9813,-4.9533,-4.9154,-4.8724,-4.8419,-4.8086,-4.7717,-4.7717,-4.7717,-4.7717,-4.8,-4.7707,-4.6655,-4.5781,-4.43,-4.2109,-4.0755,-3.9748,-3.9013,-3.9617,-4.0135,-4.0462,-4.0489,-4.0489,-4.0489,-4.0489,-4.0489,-4.0489,-4.0489,-4.0489,-4.0489,-4.0489,-4.0489,-4.0489,-4.0489,-4.0612,-4.0922,-4.1309,-4.1624,-4.1981,-4.2862,-4.3466,-4.3495,-4.4133,-4.4598,-4.4598,-4.4598,-4.4598,-4.4598,-4.4598,-4.453,-4.4315,-4.4241,-4.4155,-4.3993,-4.3835,-4.3793,-4.378,-4.3674,-4.3615,-4.3615,-4.3615,-4.3615,-4.3615,-4.3615,-4.3615,-4.3615,-4.3615,-4.3615,-4.3615,-4.3615,-4.3615,-4.3615,-4.3615,-4.3615,-5.6829,-5.6697,-5.6697,-5.6597,-5.6459,-5.6365,-5.5842,-5.5131,-5.5621,-5.4668,-5.2916,-5.2772,-5.2665,-5.2409,-5.2409,-5.2445,-5.2535,-5.257,-5.2624,-5.2729,-5.2746,-5.2429,-5.1911,-5.1774,-5.1406,-5.0873,-5.0604,-5.0137,-4.9607,-4.936,-4.9123,-4.8894,-4.8841,-4.8858,-4.8858,-4.9107,-4.9381,-4.9649,-4.9359,-4.9466,-4.9964,-4.9838,-4.9441,-4.8844,-4.862,-4.8275,-4.7751,-4.7717,-4.7717,-4.7717,-4.7717,-4.7389,-4.6621,-4.6117,-4.4742,-4.2427,-4.1516,-4.0635,-3.9597,-4.0242,-4.0646,-4.0489,-4.0489,-4.0489,-4.0489,-4.0489,-4.0489,-4.0489,-4.0489,-4.0489,-4.0489,-4.0489,-4.0489,-4.0489,-4.0662,-4.087,-4.099,-4.1558,-4.2013,-4.2285,-4.3122,-4.3781,-4.3839,-4.4236,-4.457,-4.4598,-4.4598,-4.4598,-4.4598,-4.4598,-4.4598,-4.457,-4.4423,-4.4265,-4.4253,-4.4056,-4.3927,-4.3898,-4.378,-4.3674,-4.3628,-4.3628,-4.3628,-4.3628,-4.3615,-4.3615,-4.3615,-4.3615,-4.3615,-4.3615,-4.3615,-4.3615,-4.3615,-4.3615,-4.3615,-5.7293,-5.673,-5.6697,-5.6299,-5.5767,-5.6002,-5.5432,-5.4478,-5.4873,-5.4631,-5.3784,-5.3973,-5.3402,-5.2495,-5.2409,-5.2659,-5.3025,-5.3043,-5.3281,-5.3699,-5.3748,-5.3714,-5.3546,-5.3129,-5.2908,-5.2655,-5.1759,-5.1202,-5.0987,-5.0158,-4.9601,-4.9367,-4.9342,-4.9521,-4.989,-4.9832,-4.9965,-5.0285,-5.0171,-5.0046,-4.9959,-4.9275,-4.8861,-4.8792,-4.8155,-4.7758,-4.7717,-4.7717,-4.7717,-4.7717,-4.7683,-4.7327,-4.6603,-4.5654,-4.4436,-4.2964,-4.1377,-4.0095,-3.9565,-4.067,-4.1127,-4.0593,-4.0558,-4.0524,-4.0505,-4.0539,-4.0489,-4.0489,-4.0489,-4.0505,-4.0489,-4.0524,-4.0593,-4.0715,-4.1125,-4.1641,-4.2173,-4.2907,-4.3588,-4.427,-4.415,-4.4485,-4.4338,-4.4468,-4.457,-4.4598,-4.4598,-4.4598,-4.4598,-4.4598,-4.4598,-4.457,-4.444,-4.4298,-4.4184,-4.3998,-4.3939,-4.3927,-4.3898,-4.3793,-4.3717,-4.3717,-4.3822,-4.3628,-4.3615,-4.3615,-4.3615,-4.3615,-4.3615,-4.3615,-4.3615,-4.3615,-4.3615,-4.3615,-4.3615,-5.7624,-5.7293,-5.6879,-5.6208,-5.5551,-5.5808,-5.5388,-5.4554,-5.5084,-5.4974,-5.4431,-5.4449,-5.4038,-5.3281,-5.2973,-5.3094,-5.355,-5.3247,-5.3382,-5.3879,-5.3912,-5.3912,-5.3879,-5.3682,-5.3583,-5.3566,-5.3044,-5.2438,-5.1682,-5.0681,-5.0178,-5.0099,-4.9926,-4.9873,-4.9976,-4.9902,-5.008,-5.0369,-5.0274,-5.016,-5.0086,-4.9712,-4.9304,-4.881,-4.8499,-4.812,-4.7769,-4.7717,-4.751,-4.7113,-4.7062,-4.6645,-4.5817,-4.5285,-4.4528,-4.3436,-4.1844,-4.0802,-4.0547,-4.111,-4.1342,-4.1127,-4.1459,-4.1376,-4.0578,-4.087,-4.0938,-4.0558,-4.0489,-4.0662,-4.1024,-4.1091,-4.1243,-4.1608,-4.1933,-4.2205,-4.2489,-4.2722,-4.3061,-4.335,-4.3722,-4.3972,-4.4018,-4.4338,-4.457,-4.4598,-4.4598,-4.4598,-4.4598,-4.4598,-4.4598,-4.457,-4.4514,-4.4468,-4.44,-4.4241,-4.4155,-4.4109,-4.4068,-4.3969,-4.3868,-4.3822,-4.3822,-4.3628,-4.3628,-4.3645,-4.3615,-4.3615,-4.3615,-4.3615,-4.3615,-4.3615,-4.3615,-4.3615,-4.3615,-5.8256,-5.7986,-5.7373,-5.6592,-5.5887,-5.5945,-5.5636,-5.5102,-5.5369,-5.5282,-5.4944,-5.4913,-5.471,-5.4284,-5.3632,-5.3616,-5.4009,-5.3715,-5.3814,-5.4316,-5.4348,-5.433,-5.433,-5.4171,-5.4106,-5.4074,-5.3945,-5.3372,-5.2444,-5.1711,-5.1201,-5.0986,-5.0755,-5.0459,-5.0228,-5.0165,-5.0268,-5.0425,-5.0313,-5.0246,-5.0189,-5.0063,-4.9735,-4.9172,-4.912,-4.8861,-4.839,-4.831,-4.7976,-4.7241,-4.7027,-4.6463,-4.5564,-4.5206,-4.4599,-4.3702,-4.2769,-4.2014,-4.1645,-4.1852,-4.1924,-4.1821,-4.2221,-4.2013,-4.1192,-4.1393,-4.1426,-4.0904,-4.0938,-4.1276,-4.1409,-4.1492,-4.1804,-4.2395,-4.2645,-4.2769,-4.28,-4.2909,-4.3152,-4.3139,-4.3676,-4.381,-4.3869,-4.4265,-4.4598,-4.4598,-4.4598,-4.4598,-4.4598,-4.4598,-4.4598,-4.4598,-4.4598,-4.4598,-4.457,-4.4412,-4.4338,-4.431,-4.4212,-4.4097,-4.3998,-4.3969,-4.3969,-4.3864,-4.3776,-4.3763,-4.3793,-4.3763,-4.3645,-4.3615,-4.3615,-4.3615,-4.3615,-4.3615,-4.3615,-5.9425,-5.8656,-5.8204,-5.7654,-5.7158,-5.6749,-5.6305,-5.5807,-5.5631,-5.5513,-5.5471,-5.5448,-5.5448,-5.5347,-5.4365,-5.4171,-5.4617,-5.4637,-5.4855,-5.5312,-5.5376,-5.5419,-5.5419,-5.4913,-5.4662,-5.4648,-5.4252,-5.3825,-5.3462,-5.3303,-5.2862,-5.199,-5.1861,-5.1503,-5.0897,-5.0792,-5.0747,-5.0602,-5.0436,-5.0313,-5.0217,-5.008,-4.9976,-4.989,-4.9942,-4.9855,-4.9786,-4.9855,-4.943,-4.8672,-4.7896,-4.7152,-4.6268,-4.5429,-4.4528,-4.3627,-4.4001,-4.3737,-4.2638,-4.292,-4.3068,-4.2567,-4.2583,-4.2237,-4.1624,-4.2078,-4.2157,-4.1525,-4.1917,-4.2078,-4.1739,-4.1689,-4.1852,-4.2489,-4.3075,-4.3363,-4.3453,-4.3972,-4.444,-4.4412,-4.4395,-4.4412,-4.4514,-4.457,-4.4598,-4.4598,-4.4598,-4.4598,-4.4598,-4.4598,-4.4598,-4.4598,-4.4598,-4.4598,-4.457,-4.4468,-4.4367,-4.4338,-4.4338,-4.4253,-4.4212,-4.4184,-4.4155,-4.4097,-4.4039,-4.401,-4.401,-4.3939,-4.3763,-4.3674,-4.3615,-4.3615,-4.3674,-4.3628,-4.3628,-6.0448,-5.9213,-5.841,-5.7973,-5.7786,-5.751,-5.6996,-5.6366,-5.6225,-5.621,-5.6122,-5.5718,-5.5771,-5.6145,-5.5305,-5.5053,-5.5226,-5.5386,-5.5492,-5.5571,-5.5999,-5.5964,-5.5495,-5.5282,-5.5221,-5.5191,-5.5005,-5.4866,-5.4673,-5.3944,-5.3269,-5.2765,-5.2242,-5.1645,-5.1031,-5.0891,-5.0846,-5.0774,-5.0537,-5.0369,-5.0302,-5.012,-5.0011,-5.0011,-5.0011,-4.9769,-4.924,-4.9252,-4.8654,-4.7458,-4.7148,-4.6549,-4.5657,-4.5132,-4.449,-4.3725,-4.3745,-4.358,-4.3166,-4.3272,-4.3339,-4.3224,-4.3604,-4.332,-4.252,-4.2722,-4.2862,-4.2363,-4.2332,-4.2473,-4.2676,-4.2426,-4.2426,-4.3015,-4.3347,-4.3706,-4.4105,-4.444,-4.4598,-4.4598,-4.4598,-4.4598,-4.4598,-4.4598,-4.4598,-4.4598,-4.4598,-4.4598,-4.4598,-4.4598,-4.4598,-4.4598,-4.4598,-4.4598,-4.4598,-4.457,-4.4497,-4.4497,-4.4468,-4.4384,-4.4327,-4.4281,-4.4253,-4.4184,-4.4155,-4.4097,-4.4068,-4.3923,-4.3776,-4.3687,-4.3658,-4.3717,-4.3763,-4.3747,-4.3793,-6.1345,-6.0199,-5.9439,-5.8961,-5.8696,-5.8335,-5.7895,-5.7368,-5.7105,-5.6982,-5.6877,-5.6455,-5.6403,-5.6561,-5.635,-5.6069,-5.5899,-5.6034,-5.5907,-5.5583,-5.628,-5.621,-5.5613,-5.5525,-5.5525,-5.5525,-5.5525,-5.5525,-5.5443,-5.4603,-5.3957,-5.3541,-5.2769,-5.2014,-5.1329,-5.1031,-5.0891,-5.0836,-5.0582,-5.0397,-5.0359,-5.0138,-5.0011,-5.0011,-5.0011,-4.9631,-4.8844,-4.8792,-4.8103,-4.6855,-4.6586,-4.618,-4.5297,-4.4978,-4.4637,-4.4177,-4.4028,-4.3929,-4.3929,-4.3912,-4.3922,-4.3918,-4.4321,-4.4105,-4.3031,-4.3469,-4.3469,-4.3061,-4.3092,-4.3333,-4.3333,-4.3075,-4.3106,-4.3722,-4.3839,-4.4047,-4.4497,-4.457,-4.4598,-4.4598,-4.4598,-4.4598,-4.4598,-4.4598,-4.4598,-4.4598,-4.4598,-4.4598,-4.4598,-4.4598,-4.4598,-4.4598,-4.4598,-4.4598,-4.4598,-4.457,-4.457,-4.457,-4.4542,-4.4514,-4.444,-4.4395,-4.4338,-4.427,-4.4229,-4.4172,-4.4039,-4.3923,-4.3835,-4.3747,-4.3805,-4.3894,-4.3939,-4.3939,-4.3939,-6.2211,-6.1485,-6.1333,-6.0621,-5.9867,-5.9268,-5.8983,-5.872,-5.8035,-5.7719,-5.7772,-5.7667,-5.7175,-5.6964,-5.7333,-5.728,-5.6719,-5.6728,-5.636,-5.5753,-5.6368,-5.6262,-5.5543,-5.5525,-5.5525,-5.5525,-5.5525,-5.5525,-5.5478,-5.5343,-5.4922,-5.4261,-5.3454,-5.2646,-5.1951,-5.1277,-5.0891,-5.0819,-5.0554,-5.0397,-5.0341,-5.0138,-5.0011,-5.0011,-5.0011,-4.9631,-4.8827,-4.8758,-4.8034,-4.682,-4.6562,-4.6136,-4.5324,-4.5086,-4.4988,-4.4937,-4.4927,-4.4944,-4.4944,-4.4892,-4.4766,-4.4703,-4.4776,-4.4435,-4.3823,-4.4105,-4.4236,-4.3735,-4.4018,-4.4265,-4.3706,-4.3558,-4.3706,-4.4412,-4.4338,-4.4384,-4.4542,-4.4598,-4.4598,-4.4598,-4.4598,-4.4598,-4.4598,-4.4598,-4.4598,-4.4598,-4.4598,-4.4598,-4.4598,-4.4598,-4.4598,-4.4598,-4.4598,-4.4598,-4.4598,-4.4598,-4.4598,-4.4598,-4.457,-4.457,-4.4542,-4.4497,-4.4497,-4.4457,-4.4372,-4.4315,-4.4212,-4.408,-4.4068,-4.401,-4.4068,-4.4039,-4.4068,-4.4097,-4.4039,-6.2854,-6.2085,-6.1551,-6.0826,-6.0107,-5.9843,-5.9475,-5.8948,-5.8158,-5.8123,-5.8369,-5.7456,-5.7421,-5.8035,-5.8,-5.7667,-5.7474,-5.793,-5.7544,-5.6561,-5.7052,-5.6719,-5.5701,-5.5525,-5.5525,-5.5525,-5.5525,-5.5525,-5.5543,-5.5543,-5.5104,-5.4296,-5.3559,-5.2786,-5.2049,-5.1294,-5.0846,-5.0702,-5.0509,-5.0359,-5.0274,-5.008,-5.0011,-5.0011,-4.9993,-4.9602,-4.8827,-4.831,-4.7596,-4.6648,-4.6069,-4.5656,-4.5369,-4.522,-4.514,-4.514,-4.5059,-4.5022,-4.5022,-4.5022,-4.4978,-4.4951,-4.494,-4.4786,-4.4463,-4.4564,-4.4581,-4.4265,-4.4468,-4.444,-4.431,-4.4265,-4.4162,-4.3869,-4.3839,-4.4133,-4.4514,-4.4598,-4.4598,-4.4598,-4.4598,-4.4598,-4.4598,-4.4598,-4.4598,-4.4598,-4.4598,-4.4598,-4.4598,-4.4598,-4.4598,-4.4598,-4.4598,-4.4598,-4.4598,-4.4598,-4.4598,-4.4598,-4.4598,-4.4598,-4.4598,-4.4598,-4.4598,-4.457,-4.4514,-4.4457,-4.4355,-4.4298,-4.4241,-4.4184,-4.4126,-4.4155,-4.4241,-4.4241,-4.4212,-6.2687,-6.195,-6.1494,-6.0826,-6.0124,-6.0089,-5.9843,-5.9387,-5.8878,-5.8948,-5.9124,-5.8386,-5.8263,-5.8878,-5.8737,-5.8492,-5.8334,-5.8808,-5.8316,-5.7245,-5.7509,-5.6964,-5.5683,-5.5525,-5.5525,-5.5578,-5.5788,-5.5911,-5.5911,-5.5894,-5.5648,-5.5069,-5.3857,-5.2962,-5.2365,-5.1417,-5.0801,-5.0602,-5.0481,-5.0313,-5.0206,-5.0063,-5.0011,-5.0011,-5.0011,-4.9752,-4.9252,-4.8499,-4.762,-4.67,-4.5828,-4.5432,-4.5397,-4.5327,-4.5274,-4.5274,-4.5211,-4.514,-4.514,-4.5184,-4.5113,-4.5086,-4.5086,-4.5005,-4.4869,-4.4831,-4.4765,-4.4682,-4.4626,-4.4598,-4.457,-4.4598,-4.4367,-4.3972,-4.3972,-4.4105,-4.4525,-4.4598,-4.4598,-4.4598,-4.4598,-4.4598,-4.4598,-4.4598,-4.4598,-4.4598,-4.4598,-4.4598,-4.4598,-4.4598,-4.4598,-4.4598,-4.4598,-4.4598,-4.4598,-4.4598,-4.4598,-4.4598,-4.4598,-4.4598,-4.4598,-4.4598,-4.4598,-4.457,-4.4542,-4.4542,-4.4457,-4.4429,-4.4372,-4.4286,-4.4258,-4.4327,-4.4412,-4.4412,-4.4384,-6.1967,-6.1336,-6.1318,-6.0826,-6.0124,-6.0089,-6.0054,-6.0036,-5.9791,-5.9791,-5.9949,-5.9563,-5.944,-5.9282,-5.9633,-5.9545,-5.9159,-5.8966,-5.8562,-5.786,-5.7632,-5.6842,-5.5665,-5.563,-5.5718,-5.5771,-5.635,-5.6648,-5.6684,-5.6526,-5.6578,-5.621,-5.4279,-5.3173,-5.2786,-5.1645,-5.0774,-5.0575,-5.0453,-5.0302,-5.0206,-5.0155,-5.0045,-5.0028,-5.0097,-5.008,-4.9804,-4.8993,-4.7948,-4.6717,-4.5845,-4.5414,-4.5414,-4.5414,-4.5397,-4.5397,-4.5397,-4.5371,-4.5414,-4.5371,-4.53,-4.522,-4.522,-4.515,-4.5032,-4.494,-4.4831,-4.4793,-4.4682,-4.4598,-4.4598,-4.4598,-4.4542,-4.457,-4.4468,-4.4542,-4.457,-4.4598,-4.4598,-4.4598,-4.4598,-4.4598,-4.4598,-4.4598,-4.4598,-4.4598,-4.4598,-4.4598,-4.4598,-4.4598,-4.4598,-4.4598,-4.4598,-4.4598,-4.4598,-4.4598,-4.4598,-4.4598,-4.4598,-4.4598,-4.4598,-4.4598,-4.4598,-4.457,-4.4587,-4.4587,-4.4587,-4.4514,-4.4485,-4.4485,-4.4514,-4.457,-4.457,-4.4525,-4.4497,-6.1967,-6.1336,-6.1318,-6.0844,-6.0142,-6.0089,-6.0089,-5.9931,-5.8895,-5.9194,-5.9668,-5.8878,-5.9053,-5.9791,-5.9984,-5.9966,-5.9685,-5.9211,-5.8579,-5.7807,-5.7158,-5.6455,-5.5806,-5.6069,-5.6315,-5.642,-5.7087,-5.7491,-5.7438,-5.6982,-5.6684,-5.6508,-5.4448,-5.3208,-5.2944,-5.1563,-5.0672,-5.0453,-5.0331,-5.0241,-5.0201,-5.0574,-5.0528,-5.008,-5.0511,-5.0476,-4.9942,-4.87,-4.7586,-4.6682,-4.5855,-4.5414,-4.5414,-4.5414,-4.5414,-4.5414,-4.5414,-4.5414,-4.5414,-4.5414,-4.5397,-4.5353,-4.5327,-4.5291,-4.5167,-4.5113,-4.5022,-4.4858,-4.4748,-4.4709,-4.4626,-4.4598,-4.4598,-4.4598,-4.4598,-4.4598,-4.4598,-4.4598,-4.4598,-4.4598,-4.4598,-4.4598,-4.4598,-4.4598,-4.4598,-4.4598,-4.4598,-4.4598,-4.4598,-4.4598,-4.4598,-4.4598,-4.4598,-4.4598,-4.4598,-4.4598,-4.4598,-4.4598,-4.4598,-4.4598,-4.4598,-4.4598,-4.4598,-4.4598,-4.4598,-4.4598,-4.4598,-4.457,-4.4598,-4.4598,-4.4598,-4.4598,-4.4598,-4.457,-4.457,-6.1178,-6.0791,-6.0791,-6.0528,-6.0107,-6.0089,-5.9914,-5.958,-5.9106,-5.9018,-5.944,-5.9106,-5.9247,-6.0054,-6.0089,-6.0089,-5.9966,-5.8983,-5.8263,-5.7772,-5.7,-5.6403,-5.6157,-5.6473,-5.6771,-5.7193,-5.793,-5.8263,-5.8246,-5.7825,-5.7474,-5.6771,-5.4805,-5.3587,-5.3102,-5.1892,-5.1008,-5.0954,-5.1003,-5.098,-5.0545,-5.0873,-5.0631,-5.0218,-5.0459,-5.039,-4.9873,-4.8792,-4.7734,-4.6707,-4.5862,-4.5414,-4.5414,-4.5414,-4.5414,-4.5414,-4.5414,-4.5414,-4.5414,-4.5414,-4.5414,-4.5397,-4.5414,-4.5371,-4.5274,-4.5247,-4.5113,-4.5005,-4.494,-4.4803,-4.4709,-4.4626,-4.4598,-4.4598,-4.4598,-4.4598,-4.4598,-4.4598,-4.4598,-4.4598,-4.4598,-4.4598,-4.4598,-4.4598,-4.4598,-4.4598,-4.4598,-4.4598,-4.4598,-4.4598,-4.4598,-4.4598,-4.4598,-4.4598,-4.4598,-4.4598,-4.4598,-4.4598,-4.4598,-4.4598,-4.4598,-4.4598,-4.4598,-4.4598,-4.4598,-4.4598,-4.4598,-4.4598,-4.4598,-4.4598,-4.4598,-4.4598,-4.4598,-4.4598,-4.4598,-6.01,-6.0048,-6.0104,-6.0072,-5.9984,-6.0054,-5.9721,-5.9247,-5.9545,-5.9492,-5.9247,-5.9685,-5.9808,-6.0089,-6.0089,-6.0089,-6.0001,-5.8597,-5.779,-5.7316,-5.6859,-5.6596,-5.6806,-5.7035,-5.7421,-5.7983,-5.8737,-5.9053,-5.9036,-5.8983,-5.8492,-5.7316,-5.5367,-5.405,-5.3302,-5.2302,-5.1776,-5.1749,-5.1836,-5.162,-5.1122,-5.1045,-5.0718,-5.0149,-5.0045,-5.0114,-4.9838,-4.912,-4.8137,-4.6759,-4.5949,-4.5587,-4.5483,-4.5414,-4.5414,-4.5414,-4.5414,-4.5414,-4.5414,-4.5414,-4.5414,-4.5414,-4.5414,-4.5414,-4.5371,-4.53,-4.5272,-4.5407,-4.5155,-4.4968,-4.4793,-4.4682,-4.4598,-4.4598,-4.4598,-4.4598,-4.4598,-4.4598,-4.4598,-4.4598,-4.4598,-4.4598,-4.4598,-4.4598,-4.4598,-4.4598,-4.4598,-4.4598,-4.4598,-4.4598,-4.4598,-4.4598,-4.4598,-4.4598,-4.4598,-4.4598,-4.4598,-4.4598,-4.4598,-4.4598,-4.4598,-4.4598,-4.4598,-4.4598,-4.4598,-4.4598,-4.4598,-4.4598,-4.4598,-4.4598,-4.4598,-4.4598,-4.4598,-4.4598,-4.4598,-6.0114,-5.9584,-5.9953,-5.9756,-5.9387,-5.9826,-5.9668,-5.9018,-5.9159,-5.9176,-5.9071,-5.9194,-5.9598,-6.0089,-6.0089,-6.0089,-5.9896,-5.8492,-5.7228,-5.6087,-5.6526,-5.6982,-5.7561,-5.8105,-5.8544,-5.8913,-5.951,-5.9826,-5.9738,-5.9264,-5.8597,-5.7579,-5.5736,-5.4244,-5.3881,-5.2698,-5.2094,-5.2387,-5.2016,-5.1644,-5.1383,-5.1156,-5.0752,-5.0097,-5.0011,-5.0011,-4.9826,-4.9206,-4.8361,-4.7517,-4.6803,-4.6173,-4.5569,-4.5414,-4.5414,-4.5414,-4.5414,-4.5414,-4.5414,-4.5414,-4.5414,-4.5414,-4.5414,-4.5414,-4.5414,-4.5405,-4.561,-4.5787,-4.5554,-4.5247,-4.4916,-4.4716,-4.4632,-4.4632,-4.4598,-4.4598,-4.4598,-4.4598,-4.4598,-4.4598,-4.4598,-4.4598,-4.4598,-4.4598,-4.4598,-4.4598,-4.4598,-4.4598,-4.4598,-4.4598,-4.4598,-4.4598,-4.4598,-4.4598,-4.4598,-4.4598,-4.4598,-4.4598,-4.4598,-4.4598,-4.4598,-4.4598,-4.4598,-4.4598,-4.4598,-4.4598,-4.4598,-4.4598,-4.4598,-4.4598,-4.4598,-4.4598,-4.4598,-4.4598,-4.4598,-5.9793,-5.9142,-5.9571,-5.9554,-5.9258,-5.9468,-5.9159,-5.8632,-5.886,-5.879,-5.8685,-5.9124,-5.9738,-6.0089,-6.0089,-6.0089,-5.9738,-5.8509,-5.7175,-5.6438,-5.6824,-5.7614,-5.8369,-5.9089,-5.951,-5.9563,-5.9861,-6.0072,-5.9966,-5.965,-5.8948,-5.779,-5.6122,-5.5033,-5.4373,-5.3311,-5.3172,-5.3271,-5.2834,-5.2292,-5.1904,-5.1366,-5.0794,-5.0149,-5.0011,-5.0011,-4.9942,-4.962,-4.8803,-4.7982,-4.762,-4.6896,-4.5673,-4.5414,-4.5414,-4.5414,-4.5414,-4.5414,-4.5414,-4.5414,-4.5414,-4.5449,-4.5414,-4.5414,-4.5535,-4.5707,-4.6104,-4.635,-4.6357,-4.6189,-4.5521,-4.5235,-4.5021,-4.4649,-4.4598,-4.4598,-4.4598,-4.4598,-4.4598,-4.4598,-4.4598,-4.4598,-4.4598,-4.4598,-4.4598,-4.4598,-4.4598,-4.4598,-4.4598,-4.4598,-4.4598,-4.4598,-4.4598,-4.4598,-4.4598,-4.4598,-4.4598,-4.4598,-4.4598,-4.4598,-4.4598,-4.4598,-4.4598,-4.4598,-4.4598,-4.4598,-4.4598,-4.4598,-4.4598,-4.4598,-4.4598,-4.4598,-4.4598,-4.4598,-4.4598,-5.9434,-5.8734,-5.9165,-5.9337,-5.9307,-5.9095,-5.8597,-5.8,-5.8667,-5.8597,-5.8211,-5.9422,-6.0019,-6.0089,-6.0089,-6.0019,-5.9369,-5.8544,-5.728,-5.6684,-5.7298,-5.8088,-5.8895,-5.958,-5.9984,-6.0089,-6.0089,-6.0089,-6.0089,-5.9966,-5.9176,-5.7895,-5.6982,-5.5806,-5.4741,-5.4075,-5.3842,-5.3917,-5.3334,-5.2804,-5.2183,-5.1448,-5.0656,-5.0178,-5.0011,-5.0131,-5.0235,-5.0097,-4.9493,-4.8051,-4.8568,-4.7655,-4.6259,-4.5725,-4.5759,-4.5811,-4.5949,-4.6,-4.6052,-4.5931,-4.5897,-4.5759,-4.5811,-4.5811,-4.6,-4.6414,-4.6828,-4.7128,-4.7279,-4.7225,-4.6379,-4.579,-4.5359,-4.4925,-4.4733,-4.4615,-4.4598,-4.4598,-4.4598,-4.4598,-4.4598,-4.4598,-4.4598,-4.4598,-4.4598,-4.4598,-4.4598,-4.4598,-4.4598,-4.4598,-4.4598,-4.4598,-4.4598,-4.4598,-4.4598,-4.4598,-4.4598,-4.4598,-4.4598,-4.4598,-4.4598,-4.4598,-4.4598,-4.4598,-4.4598,-4.4598,-4.4598,-4.4598,-4.4598,-4.4598,-4.4598,-4.4598,-4.4598,-4.4598,-4.4598,-5.9445,-5.8699,-5.8941,-5.9063,-5.9063,-5.9001,-5.8527,-5.8018,-5.8597,-5.8544,-5.807,-5.9387,-6.0036,-6.0089,-6.0089,-5.9422,-5.8527,-5.7895,-5.7421,-5.6912,-5.7474,-5.8246,-5.9141,-5.9773,-6.0072,-6.0089,-6.0089,-6.0089,-6.0089,-6.0001,-5.9247,-5.7948,-5.707,-5.6139,-5.5069,-5.418,-5.3765,-5.3824,-5.3026,-5.2241,-5.183,-5.1003,-5.0362,-5.0028,-5.008,-5.0373,-5.0787,-5.0838,-5.0188,-4.8879,-4.9378,-4.8465,-4.7207,-4.7052,-4.7251,-4.7103,-4.7086,-4.7,-4.7052,-4.7172,-4.7258,-4.731,-4.7155,-4.7189,-4.7269,-4.7441,-4.7769,-4.8185,-4.8198,-4.7911,-4.6941,-4.6259,-4.5766,-4.5399,-4.497,-4.4615,-4.4598,-4.4598,-4.4598,-4.4598,-4.4598,-4.4598,-4.4598,-4.4598,-4.4598,-4.4598,-4.4598,-4.4598,-4.4598,-4.4598,-4.4626,-4.4598,-4.4598,-4.4598,-4.4598,-4.4598,-4.4598,-4.4598,-4.4598,-4.4598,-4.4598,-4.4598,-4.4598,-4.4598,-4.4598,-4.4598,-4.4598,-4.4598,-4.4598,-4.4598,-4.4598,-4.4598,-4.4598,-4.4598,-4.4598,-5.9193,-5.8389,-5.8698,-5.8984,-5.9078,-5.8607,-5.8176,-5.7825,-5.779,-5.779,-5.8141,-5.9001,-5.9773,-6.0001,-6.0089,-5.9229,-5.8158,-5.7807,-5.7561,-5.7368,-5.7667,-5.8474,-5.9405,-5.9966,-6.0054,-6.0089,-6.0089,-6.0089,-6.0089,-6.0089,-5.9211,-5.807,-5.7368,-5.6473,-5.5121,-5.4226,-5.3717,-5.3513,-5.2544,-5.1801,-5.1625,-5.0679,-5.0132,-5.0109,-5.0407,-5.0752,-5.1045,-5.1533,-5.1119,-5.0309,-5.0373,-4.97,-4.8924,-4.851,-4.851,-4.7941,-4.7769,-4.7751,-4.7734,-4.7717,-4.7638,-4.7683,-4.7751,-4.7717,-4.7838,-4.8034,-4.8586,-4.9097,-4.913,-4.8651,-4.7812,-4.683,-4.6189,-4.5652,-4.5043,-4.4666,-4.4598,-4.4598,-4.4598,-4.4598,-4.4598,-4.4598,-4.4598,-4.4598,-4.4598,-4.4598,-4.4598,-4.4598,-4.4598,-4.4654,-4.4709,-4.4709,-4.4737,-4.472,-4.4692,-4.4692,-4.4682,-4.4654,-4.4654,-4.4654,-4.4654,-4.4665,-4.4626,-4.4598,-4.4598,-4.4626,-4.4598,-4.4598,-4.4598,-4.4598,-4.4598,-4.4598,-4.4598,-4.4598,-4.4598,-5.8871,-5.825,-5.8499,-5.8923,-5.9168,-5.8246,-5.7825,-5.7649,-5.6982,-5.7122,-5.786,-5.8667,-5.9457,-5.9949,-5.9931,-5.9352,-5.8088,-5.8088,-5.807,-5.807,-5.8123,-5.8843,-5.9738,-6.0089,-6.0089,-6.0089,-6.0089,-6.0089,-6.0054,-5.9861,-5.9036,-5.7983,-5.7596,-5.642,-5.4682,-5.3805,-5.3524,-5.2944,-5.2207,-5.1672,-5.1372,-5.0749,-5.035,-5.0459,-5.1045,-5.1395,-5.177,-5.2183,-5.2015,-5.1464,-5.1218,-5.089,-5.0166,-4.9993,-4.9424,-4.8424,-4.8183,-4.8165,-4.8217,-4.8269,-4.8407,-4.8441,-4.8241,-4.8217,-4.8338,-4.8827,-4.9275,-4.9768,-4.9615,-4.9202,-4.8464,-4.7471,-4.6629,-4.5974,-4.5213,-4.4598,-4.4598,-4.4598,-4.4598,-4.4598,-4.4598,-4.4598,-4.4598,-4.4598,-4.4598,-4.4626,-4.4626,-4.4682,-4.4709,-4.482,-4.4831,-4.4858,-4.4886,-4.4869,-4.4869,-4.4814,-4.4831,-4.4776,-4.4776,-4.4776,-4.4776,-4.4776,-4.472,-4.4709,-4.4682,-4.4682,-4.4626,-4.4598,-4.4598,-4.4598,-4.4598,-4.4598,-4.4598,-4.4598,-4.4598,-5.8511,-5.8923,-5.8448,-5.8697,-5.9191,-5.8294,-5.7807,-5.7702,-5.6912,-5.707,-5.7754,-5.8615,-5.9352,-5.9949,-6.0089,-5.9598,-5.9018,-5.8755,-5.872,-5.8702,-5.8755,-5.9194,-5.9984,-6.0089,-6.0089,-6.0089,-6.0089,-6.0089,-5.9896,-5.944,-5.8755,-5.779,-5.6543,-5.5244,-5.4226,-5.3138,-5.2232,-5.2049,-5.1435,-5.1227,-5.1435,-5.1217,-5.1383,-5.176,-5.2076,-5.2369,-5.2848,-5.3142,-5.2938,-5.2287,-5.208,-5.1373,-5.0321,-5.0011,-4.9976,-4.9786,-4.9735,-4.9717,-4.9579,-4.9476,-4.9441,-4.9407,-4.9499,-4.9683,-4.9562,-4.9562,-4.9729,-4.9686,-4.956,-4.9406,-4.8877,-4.7666,-4.695,-4.6194,-4.5365,-4.4801,-4.4598,-4.4598,-4.4598,-4.4598,-4.4598,-4.4598,-4.4626,-4.4598,-4.4598,-4.4654,-4.4682,-4.4737,-4.482,-4.4913,-4.5022,-4.5049,-4.5049,-4.5032,-4.4988,-4.4978,-4.4923,-4.4896,-4.4886,-4.4886,-4.4886,-4.4886,-4.4886,-4.4831,-4.482,-4.4765,-4.472,-4.4665,-4.4626,-4.4598,-4.4626,-4.4598,-4.4598,-4.4598,-4.4598,-5.8168,-5.9077,-5.8844,-5.9242,-5.9835,-5.8653,-5.7973,-5.7574,-5.6526,-5.642,-5.7175,-5.7965,-5.8948,-5.9896,-6.0089,-5.9685,-5.9141,-5.9036,-5.9018,-5.9036,-5.9089,-5.9405,-5.9931,-6.0089,-6.0089,-6.0089,-6.0019,-5.9773,-5.951,-5.9124,-5.8597,-5.7649,-5.6245,-5.4893,-5.3787,-5.2576,-5.1856,-5.1407,-5.1002,-5.1094,-5.1451,-5.1587,-5.183,-5.2471,-5.2904,-5.3337,-5.3667,-5.4117,-5.4121,-5.3541,-5.3026,-5.2084,-5.1213,-5.0545,-4.9993,-4.9993,-4.9976,-4.9959,-4.9959,-5.0011,-5.0011,-5.0011,-5.0011,-4.9942,-4.9993,-4.9982,-4.9982,-4.9906,-4.9637,-4.9488,-4.9095,-4.7764,-4.7115,-4.638,-4.5449,-4.4925,-4.4598,-4.4598,-4.4598,-4.4598,-4.4598,-4.4626,-4.4654,-4.4654,-4.4682,-4.472,-4.4776,-4.4858,-4.494,-4.5032,-4.5157,-4.5264,-4.5238,-4.522,-4.515,-4.5096,-4.5059,-4.5005,-4.4995,-4.4995,-4.5022,-4.5022,-4.5022,-4.5005,-4.5005,-4.4923,-4.4831,-4.4748,-4.4692,-4.4665,-4.4654,-4.4654,-4.4626,-4.4598,-4.4598,-5.7893,-5.8925,-5.906,-5.9542,-6.0095,-5.8822,-5.8154,-5.7766,-5.6222,-5.5946,-5.6736,-5.7684,-5.8913,-5.9826,-6.0054,-5.9808,-5.9334,-5.9282,-5.9282,-5.9282,-5.9334,-5.9615,-5.9966,-6.0089,-6.0089,-6.0036,-5.944,-5.9299,-5.8966,-5.8351,-5.7667,-5.7403,-5.5543,-5.4384,-5.326,-5.2207,-5.14,-5.1031,-5.0754,-5.1049,-5.1612,-5.1882,-5.2312,-5.299,-5.3669,-5.4169,-5.4273,-5.4609,-5.483,-5.4481,-5.3255,-5.2317,-5.1886,-5.0787,-5.008,-5.0011,-5.0011,-5.0011,-5.0011,-5.0011,-5.0011,-5.0011,-5.0011,-5.0011,-5.0011,-5.0011,-4.9982,-4.9982,-4.9742,-4.9577,-4.915,-4.7886,-4.7077,-4.6341,-4.5512,-4.5004,-4.4598,-4.4598,-4.4598,-4.4598,-4.4626,-4.4682,-4.4709,-4.4737,-4.4748,-4.4831,-4.4886,-4.4968,-4.5059,-4.5194,-4.5247,-4.5344,-4.5344,-4.5318,-4.5274,-4.522,-4.5167,-4.514,-4.5103,-4.5103,-4.5157,-4.5184,-4.5167,-4.5194,-4.5167,-4.5059,-4.4923,-4.4858,-4.4776,-4.4776,-4.4748,-4.4709,-4.4682,-4.4626,-4.4598,-5.7695,-5.8477,-5.8889,-5.9184,-5.9253,-5.8543,-5.8285,-5.806,-5.6276,-5.5994,-5.6859,-5.8123,-5.9176,-5.9931,-6.0089,-6.0036,-5.9966,-6.0019,-5.9931,-5.9931,-6.0019,-5.9931,-6.0001,-5.9966,-5.9861,-5.9668,-5.8931,-5.8615,-5.8351,-5.7052,-5.6631,-5.6297,-5.4665,-5.3664,-5.2751,-5.1803,-5.1171,-5.0891,-5.0747,-5.1119,-5.1815,-5.2375,-5.2968,-5.3751,-5.4465,-5.4905,-5.4905,-5.4987,-5.4839,-5.4668,-5.332,-5.2342,-5.1877,-5.0764,-5.0091,-5.0022,-5.0022,-5.0022,-5.0011,-5.0011,-5.0011,-5.0011,-5.0011,-5.0011,-5.0011,-5.0011,-5.0011,-4.9964,-4.9772,-4.9637,-4.909,-4.8128,-4.7068,-4.645,-4.5693,-4.4902,-4.4598,-4.4598,-4.4598,-4.4643,-4.4671,-4.4737,-4.482,-4.4858,-4.4858,-4.4923,-4.5076,-4.514,-4.5238,-4.5318,-4.5344,-4.5414,-4.5414,-4.5397,-4.5397,-4.5344,-4.5291,-4.5291,-4.5264,-4.5291,-4.5344,-4.5344,-4.53,-4.5274,-4.522,-4.514,-4.5032,-4.4978,-4.4923,-4.4896,-4.4886,-4.4848,-4.4765,-4.4709,-4.4626,-5.7369,-5.7706,-5.8398,-5.9105,-5.9751,-5.8596,-5.8189,-5.8031,-5.6511,-5.6358,-5.7351,-5.8035,-5.8948,-5.9808,-6.0089,-6.0089,-6.0089,-6.0089,-6.0036,-5.9896,-5.9721,-5.9738,-5.9668,-5.9194,-5.8632,-5.8579,-5.7983,-5.7228,-5.6613,-5.6069,-5.563,-5.4963,-5.377,-5.3032,-5.2242,-5.1523,-5.1031,-5.0891,-5.0969,-5.1352,-5.2509,-5.2901,-5.3597,-5.4792,-5.5019,-5.5217,-5.5122,-5.5126,-5.4774,-5.4083,-5.3107,-5.2436,-5.1783,-5.0685,-5.0207,-5.012,-5.0138,-5.008,-5.0022,-5.0011,-5.0011,-5.0011,-5.0011,-5.0011,-5.0011,-5.0011,-5.0011,-4.9935,-4.983,-4.9696,-4.9431,-4.8131,-4.6906,-4.6525,-4.584,-4.4931,-4.4626,-4.4626,-4.4654,-4.4709,-4.4765,-4.4803,-4.4913,-4.5005,-4.5005,-4.5032,-4.5194,-4.5344,-4.5371,-4.5414,-4.5414,-4.5414,-4.5414,-4.5414,-4.5414,-4.5414,-4.5414,-4.5414,-4.5414,-4.5414,-4.5414,-4.5414,-4.5371,-4.5327,-4.53,-4.5264,-4.5211,-4.513,-4.5059,-4.5032,-4.5005,-4.4968,-4.4886,-4.4765,-4.4709,-5.7188,-5.7261,-5.7804,-5.8696,-5.9502,-5.8502,-5.8068,-5.7918,-5.6674,-5.6745,-5.7942,-5.8114,-5.886,-5.9791,-5.9808,-5.9738,-5.9615,-5.9457,-5.9387,-5.9159,-5.8931,-5.9001,-5.879,-5.8299,-5.7544,-5.7368,-5.6824,-5.6104,-5.5806,-5.563,-5.4893,-5.4015,-5.3225,-5.2523,-5.2049,-5.1312,-5.0908,-5.0891,-5.1013,-5.1294,-5.2383,-5.2734,-5.3296,-5.4513,-5.4846,-5.5191,-5.5201,-5.5242,-5.4802,-5.402,-5.31,-5.2306,-5.1541,-5.0834,-5.0361,-5.0246,-5.0217,-5.0178,-5.008,-4.9993,-5.0011,-5.0011,-5.0011,-5.0011,-5.0011,-5.0011,-5.0011,-5.0011,-4.986,-4.9784,-4.9652,-4.8248,-4.7191,-4.6776,-4.5552,-4.4692,-4.4709,-4.4709,-4.4737,-4.4793,-4.4858,-4.4951,-4.4978,-4.5086,-4.514,-4.5167,-4.5264,-4.5371,-4.5371,-4.5414,-4.5414,-4.5414,-4.5414,-4.5414,-4.5414,-4.5414,-4.5414,-4.5414,-4.5414,-4.5414,-4.5414,-4.5414,-4.5414,-4.5371,-4.5371,-4.5414,-4.5423,-4.5432,-4.5327,-4.5167,-4.513,-4.5049,-4.4968,-4.4831,-4.4803,-5.7188,-5.7188,-5.7243,-5.775,-5.8505,-5.815,-5.8008,-5.8043,-5.7045,-5.7221,-5.8302,-5.8748,-5.9313,-5.9858,-5.9524,-5.9229,-5.9036,-5.8457,-5.8123,-5.8141,-5.7983,-5.7912,-5.7632,-5.7158,-5.6473,-5.6227,-5.5648,-5.5227,-5.5367,-5.4559,-5.3763,-5.3183,-5.2558,-5.1979,-5.1881,-5.1259,-5.0908,-5.0891,-5.0891,-5.1066,-5.1435,-5.1997,-5.2734,-5.3682,-5.4296,-5.4776,-5.5261,-5.5354,-5.4857,-5.3847,-5.3177,-5.2364,-5.1446,-5.0791,-5.0432,-5.0369,-5.0302,-5.0246,-5.0189,-5.008,-5.0022,-4.9993,-5.0011,-5.0011,-5.0011,-5.0011,-5.0011,-5.0011,-4.9964,-4.986,-4.9303,-4.8443,-4.7574,-4.6772,-4.5625,-4.4803,-4.4803,-4.4803,-4.4831,-4.4886,-4.5032,-4.515,-4.5113,-4.5113,-4.5247,-4.5318,-4.5371,-4.5414,-4.5414,-4.5414,-4.5414,-4.5414,-4.5414,-4.5414,-4.5414,-4.5414,-4.5414,-4.5414,-4.5414,-4.5414,-4.5414,-4.5414,-4.5414,-4.5414,-4.5414,-4.5414,-4.5607,-4.5752,-4.5537,-4.5291,-4.5157,-4.5076,-4.4995,-4.4906,-4.4855,-5.7188,-5.7188,-5.7188,-5.7659,-5.8249,-5.772,-5.7933,-5.8601,-5.8254,-5.8431,-5.9141,-5.934,-5.9699,-5.9951,-5.9446,-5.8931,-5.879,-5.8211,-5.7807,-5.7702,-5.7263,-5.7474,-5.714,-5.6139,-5.5437,-5.5472,-5.4823,-5.4384,-5.4665,-5.3945,-5.3576,-5.3113,-5.1961,-5.1312,-5.1207,-5.0943,-5.0908,-5.0891,-5.0943,-5.1119,-5.1575,-5.1909,-5.2541,-5.3699,-5.4086,-5.4583,-5.5196,-5.5231,-5.4659,-5.3591,-5.2933,-5.2241,-5.1326,-5.0672,-5.0554,-5.0519,-5.0464,-5.0397,-5.0274,-5.0149,-5.0063,-5.0022,-5.0011,-5.0011,-5.0011,-5.0011,-5.0011,-5.0011,-5.0011,-4.9935,-4.9648,-4.8363,-4.7495,-4.709,-4.6144,-4.5224,-4.494,-4.494,-4.4968,-4.5005,-4.5113,-4.522,-4.5247,-4.5238,-4.5318,-4.5371,-4.5414,-4.5414,-4.5414,-4.5414,-4.5414,-4.5414,-4.5414,-4.5414,-4.5414,-4.5414,-4.5414,-4.5414,-4.5414,-4.5414,-4.5414,-4.5414,-4.5414,-4.5414,-4.5414,-4.5441,-4.5667,-4.5829,-4.5607,-4.5397,-4.5353,-4.53,-4.5257,-4.5047,-4.4785,-5.7188,-5.7224,-5.7496,-5.7895,-5.8293,-5.784,-5.8298,-5.9204,-5.9281,-5.957,-5.9942,-6.0001,-6.0053,-5.9997,-5.9307,-5.8519,-5.8294,-5.7399,-5.7,-5.6929,-5.649,-5.6332,-5.5859,-5.5191,-5.463,-5.4647,-5.4559,-5.4261,-5.3928,-5.391,-5.3243,-5.2225,-5.1435,-5.1084,-5.0926,-5.0908,-5.0891,-5.0891,-5.0943,-5.1066,-5.14,-5.1733,-5.2172,-5.3102,-5.3723,-5.4168,-5.4671,-5.4694,-5.4343,-5.3288,-5.2571,-5.1983,-5.1177,-5.0801,-5.0702,-5.0702,-5.0585,-5.0492,-5.0341,-5.0235,-5.0149,-5.0109,-5.004,-5.0011,-5.0011,-5.0011,-5.0011,-5.0011,-4.9993,-4.9757,-4.943,-4.8111,-4.743,-4.6996,-4.6203,-4.5275,-4.5059,-4.5059,-4.5113,-4.514,-4.5194,-4.53,-4.5371,-4.5371,-4.5397,-4.5397,-4.5414,-4.5414,-4.5414,-4.5414,-4.5414,-4.5414,-4.5423,-4.5423,-4.5423,-4.5414,-4.5414,-4.5414,-4.5414,-4.5397,-4.5414,-4.5414,-4.5414,-4.5476,-4.5615,-4.5752,-4.5829,-4.5854,-4.5667,-4.5667,-4.5752,-4.5658,-4.5555,-4.526,-4.4932,-5.7261,-5.7351,-5.8112,-5.8474,-5.851,-5.8673,-5.9046,-5.9689,-6.0151,-6.0382,-6.0426,-6.0829,-6.0558,-5.9786,-5.8804,-5.7919,-5.7258,-5.6235,-5.5812,-5.5613,-5.5507,-5.5156,-5.4788,-5.4331,-5.4173,-5.391,-5.3805,-5.3875,-5.3296,-5.3138,-5.2383,-5.1417,-5.1066,-5.0891,-5.0891,-5.0891,-5.0891,-5.0891,-5.0908,-5.0996,-5.1136,-5.1084,-5.1698,-5.2506,-5.3138,-5.3857,-5.4337,-5.4449,-5.3969,-5.3197,-5.2443,-5.1688,-5.1171,-5.0908,-5.0891,-5.0846,-5.0702,-5.0564,-5.0425,-5.0331,-5.0217,-5.0178,-5.008,-5.0022,-5.0011,-5.0011,-5.0011,-4.9924,-4.9821,-4.9378,-4.8861,-4.8023,-4.7203,-4.6529,-4.5814,-4.5392,-4.5238,-4.522,-4.5247,-4.5318,-4.5344,-4.5397,-4.5397,-4.5414,-4.5414,-4.5414,-4.5414,-4.5414,-4.5414,-4.5414,-4.5414,-4.5414,-4.5423,-4.5432,-4.5432,-4.5528,-4.5563,-4.5641,-4.545,-4.5423,-4.5397,-4.5528,-4.5615,-4.5778,-4.5963,-4.6087,-4.6087,-4.5963,-4.5778,-4.5837,-4.5988,-4.5811,-4.5632,-4.5428,-4.5194,-5.8601,-5.8166,-5.8909,-5.9579,-6.0158,-6.0693,-6.0792,-6.0566,-6.119,-6.1506,-6.1479,-6.0804,-6.0375,-6.0042,-5.8488,-5.7637,-5.6914,-5.6193,-5.5349,-5.4998,-5.484,-5.4542,-5.4244,-5.3998,-5.4103,-5.4191,-5.4086,-5.3699,-5.3576,-5.3067,-5.1944,-5.1066,-5.0908,-5.0891,-5.0891,-5.0891,-5.0891,-5.0943,-5.0943,-5.1013,-5.0978,-5.0996,-5.1663,-5.2453,-5.2973,-5.377,-5.4507,-5.4384,-5.3875,-5.3138,-5.2418,-5.1681,-5.0996,-5.0891,-5.0891,-5.0891,-5.0819,-5.0729,-5.0575,-5.0492,-5.0408,-5.0257,-5.016,-5.0063,-5.0022,-4.9993,-4.9993,-4.9907,-4.9545,-4.9034,-4.8465,-4.7724,-4.7054,-4.6435,-4.5821,-4.5562,-4.5441,-4.5441,-4.5485,-4.5371,-4.5414,-4.5414,-4.5414,-4.5414,-4.5414,-4.5414,-4.5423,-4.545,-4.5423,-4.545,-4.5528,-4.5554,-4.5563,-4.5641,-4.5675,-4.5727,-4.5803,-4.5829,-4.5615,-4.5537,-4.5752,-4.5854,-4.5912,-4.602,-4.6235,-4.6259,-4.6259,-4.6137,-4.607,-4.6062,-4.6137,-4.5938,-4.5716,-4.5484,-4.5233,-5.9054,-5.8999,-5.9742,-6.0538,-6.1299,-6.1779,-6.1688,-6.1399,-6.1797,-6.1879,-6.1471,-6.0819,-6.0142,-5.9321,-5.8148,-5.7288,-5.6738,-5.5652,-5.4974,-5.5074,-5.4437,-5.4349,-5.4121,-5.4121,-5.4244,-5.4314,-5.4033,-5.3576,-5.326,-5.2348,-5.1224,-5.0961,-5.0891,-5.0891,-5.0891,-5.0891,-5.0891,-5.1031,-5.1154,-5.1277,-5.1277,-5.1277,-5.1997,-5.2576,-5.3008,-5.384,-5.4454,-5.4068,-5.3524,-5.2751,-5.1979,-5.1435,-5.0908,-5.0891,-5.0891,-5.0891,-5.0891,-5.0846,-5.0729,-5.063,-5.0519,-5.038,-5.0257,-5.016,-5.0092,-5.0051,-4.9993,-4.9924,-4.924,-4.862,-4.8,-4.7417,-4.694,-4.643,-4.6109,-4.5761,-4.5727,-4.5727,-4.5615,-4.545,-4.5414,-4.5414,-4.5414,-4.5441,-4.5414,-4.5423,-4.5537,-4.5675,-4.5624,-4.5563,-4.5701,-4.5829,-4.5829,-4.5879,-4.5912,-4.5945,-4.5938,-4.5862,-4.5537,-4.5589,-4.598,-4.6186,-4.6242,-4.6315,-4.6411,-4.6483,-4.6554,-4.6531,-4.6465,-4.6435,-4.6459,-4.6442,-4.6066,-4.5453,-4.5194,-5.9108,-5.9778,-6.0557,-6.1272,-6.1969,-6.2005,-6.1906,-6.1906,-6.1815,-6.1489,-6.0892,-6.0602,-5.9671,-5.8688,-5.7783,-5.702,-5.6354,-5.5426,-5.5012,-5.5344,-5.4612,-5.4314,-5.4489,-5.4823,-5.4279,-5.3822,-5.3401,-5.298,-5.2032,-5.1382,-5.1066,-5.0891,-5.0891,-5.0891,-5.0891,-5.0891,-5.0996,-5.1277,-5.1595,-5.1851,-5.1751,-5.1856,-5.2067,-5.233,-5.2857,-5.3471,-5.3418,-5.3173,-5.2839,-5.2067,-5.1417,-5.0996,-5.0926,-5.0891,-5.0891,-5.0891,-5.0891,-5.0891,-5.0846,-5.0747,-5.0657,-5.0519,-5.0408,-5.0436,-5.0425,-5.0302,-5.0246,-4.9833,-4.9229,-4.8616,-4.8015,-4.7334,-4.6815,-4.6508,-4.6245,-4.6038,-4.598,-4.5854,-4.5589,-4.5528,-4.5615,-4.5615,-4.5693,-4.5744,-4.592,-4.5709,-4.5709,-4.5945,-4.6059,-4.5953,-4.6077,-4.6249,-4.6144,-4.6175,-4.6321,-4.6321,-4.607,-4.5887,-4.5709,-4.5995,-4.6631,-4.6654,-4.6554,-4.6649,-4.6747,-4.6817,-4.6863,-4.689,-4.689,-4.6776,-4.6822,-4.6981,-4.6527,-4.5782,-4.5381,-6.0874,-6.0566,-6.1362,-6.1851,-6.1978,-6.2023,-6.1616,-6.1118,-6.11,-6.0919,-6.0593,-5.9561,-5.8782,-5.8205,-5.748,-5.6695,-5.5883,-5.5426,-5.5056,-5.4762,-5.431,-5.4545,-5.422,-5.4312,-5.3985,-5.3699,-5.3138,-5.2245,-5.1462,-5.1041,-5.0918,-5.0918,-5.0945,-5.0998,-5.0972,-5.0972,-5.1192,-5.1544,-5.1863,-5.1828,-5.1438,-5.1866,-5.2225,-5.2822,-5.3489,-5.377,-5.3682,-5.3348,-5.2786,-5.2049,-5.1294,-5.0978,-5.0891,-5.0891,-5.0891,-5.0891,-5.0891,-5.0891,-5.0891,-5.0846,-5.0784,-5.083,-5.0839,-5.0946,-5.092,-5.0721,-5.036,-4.9828,-4.9232,-4.8594,-4.7989,-4.7307,-4.679,-4.6607,-4.6459,-4.6339,-4.6259,-4.5963,-4.5693,-4.5744,-4.5854,-4.5938,-4.6013,-4.6144,-4.6328,-4.6376,-4.6304,-4.6454,-4.6768,-4.6837,-4.6905,-4.695,-4.6548,-4.6548,-4.6689,-4.6735,-4.6548,-4.6525,-4.646,-4.6809,-4.7248,-4.7248,-4.716,-4.7049,-4.7049,-4.7138,-4.7248,-4.7399,-4.7356,-4.7182,-4.7212,-4.7345,-4.6989,-4.6288,-4.59,-6.1444,-6.1408,-6.1797,-6.2023,-6.1924,-6.1634,-6.1208,-6.0683,-5.9687,-5.9198,-5.9235,-5.8601,-5.8039,-5.7445,-5.6718,-5.6371,-5.5618,-5.532,-5.532,-5.4987,-5.4682,-5.5008,-5.4684,-5.4229,-5.4065,-5.3808,-5.2598,-5.1626,-5.1078,-5.1193,-5.1255,-5.1097,-5.1141,-5.122,-5.1246,-5.1299,-5.1414,-5.1821,-5.2058,-5.1758,-5.1264,-5.1882,-5.2494,-5.3205,-5.3278,-5.3576,-5.3524,-5.3067,-5.2295,-5.1698,-5.1066,-5.0943,-5.0891,-5.0891,-5.0891,-5.0891,-5.0891,-5.0891,-5.0918,-5.0927,-5.0946,-5.1123,-5.1174,-5.1278,-5.1057,-5.0831,-5.0763,-5.0189,-4.8887,-4.8169,-4.7782,-4.7198,-4.7089,-4.6972,-4.684,-4.6701,-4.6701,-4.6613,-4.6418,-4.6363,-4.6448,-4.6507,-4.6578,-4.6671,-4.6814,-4.686,-4.6837,-4.708,-4.7406,-4.7578,-4.7681,-4.7661,-4.7259,-4.695,-4.6972,-4.708,-4.7102,-4.7106,-4.715,-4.7212,-4.7399,-4.7692,-4.7795,-4.7506,-4.7356,-4.7442,-4.7569,-4.7733,-4.7692,-4.7485,-4.7578,-4.7727,-4.722,-4.6605,-4.6021,-6.1027,-6.1652,-6.1652,-6.158,-6.1435,-6.0792,-6.0375,-5.9941,-5.8184,-5.7297,-5.7478,-5.8021,-5.7261,-5.6353,-5.5931,-5.5782,-5.5644,-5.5506,-5.5598,-5.5652,-5.5544,-5.5462,-5.5308,-5.505,-5.4224,-5.3317,-5.2266,-5.1625,-5.1132,-5.1359,-5.1513,-5.141,-5.1513,-5.169,-5.169,-5.169,-5.1721,-5.1775,-5.1826,-5.1787,-5.1892,-5.219,-5.2643,-5.2717,-5.2687,-5.2617,-5.2758,-5.2511,-5.1755,-5.1387,-5.1141,-5.1123,-5.1061,-5.1061,-5.0981,-5.0981,-5.0918,-5.0954,-5.1017,-5.1079,-5.1305,-5.1525,-5.1497,-5.1376,-5.1171,-5.0886,-5.0805,-5.0155,-4.8843,-4.8146,-4.7763,-4.7472,-4.7445,-4.7378,-4.7248,-4.7026,-4.7071,-4.7138,-4.7026,-4.689,-4.699,-4.7066,-4.7154,-4.7241,-4.7327,-4.7349,-4.7494,-4.78,-4.8037,-4.8135,-4.8232,-4.8213,-4.802,-4.7741,-4.7473,-4.7491,-4.7593,-4.7614,-4.7617,-4.7551,-4.7569,-4.7915,-4.7995,-4.7733,-4.7653,-4.7795,-4.7895,-4.7995,-4.7915,-4.7775,-4.7551,-4.7489,-4.7009,-4.6401,-4.5826,-5.9923,-6.0068,-6.0068,-5.9724,-5.9162,-5.8927,-5.851,-5.7895,-5.7478,-5.7188,-5.717,-5.7206,-5.6844,-5.6029,-5.6711,-5.6581,-5.5873,-5.5741,-5.5664,-5.5692,-5.5937,-5.5786,-5.5357,-5.4749,-5.3439,-5.2529,-5.199,-5.1747,-5.1436,-5.1589,-5.169,-5.164,-5.164,-5.174,-5.1715,-5.174,-5.179,-5.184,-5.1914,-5.1945,-5.1962,-5.2271,-5.2658,-5.2971,-5.338,-5.3167,-5.3024,-5.2775,-5.2206,-5.1787,-5.1487,-5.1505,-5.1436,-5.1315,-5.1289,-5.1271,-5.1184,-5.1297,-5.1391,-5.1442,-5.1732,-5.189,-5.1832,-5.1639,-5.1227,-5.0567,-5.04,-5.0108,-4.9142,-4.8784,-4.8409,-4.8068,-4.7937,-4.7856,-4.7754,-4.7399,-4.7248,-4.7234,-4.7194,-4.732,-4.7512,-4.7599,-4.7722,-4.7862,-4.804,-4.8078,-4.8078,-4.8345,-4.8495,-4.8624,-4.8697,-4.8642,-4.8569,-4.8458,-4.8173,-4.8056,-4.8114,-4.8134,-4.8096,-4.8017,-4.8037,-4.819,-4.819,-4.7975,-4.8053,-4.8247,-4.8305,-4.8209,-4.819,-4.8002,-4.7457,-4.7093,-4.6689,-4.6084,-4.5388]},{"header":{"parameterUnit":"m.s-1","parameterCategory":1,"la1":31.0,"la2":29.5877,"lo1":-88.7671,"lo2":-86.6584,"dy":0.0162,"dx":0.0185,"nx":115,"ny":88,"refTime":"2023-07-31T06:00:00:Z","depth":0,"parameterNumber":3,"parameterNumberName":"V-component_of_WINDS"},"data":[0.0,0.0,0.0,0.0,0.0,0.0,0.0,0.0,0.0,0.0,0.0,0.0,0.0,0.0,0.0,0.0,0.0,0.0,0.0,0.0,0.0,0.0,0.0,0.0,0.0,0.0,0.0,0.0,0.0,0.0,0.0,0.0,0.0,0.0,0.0,0.0,0.0,0.0,0.0,0.0,0.0,0.0,0.0,0.0,0.0,0.0,0.0,0.0,0.0,0.0,0.0,0.0,0.0,0.0,0.0,0.0,0.0,0.0,0.0,0.0,0.0,0.0,0.0,0.0,0.0,0.0,0.0,0.0,0.0,0.0,0.0,0.0,0.0,0.0,0.0,0.0,0.0,0.0,0.0,0.0,0.0,0.0,0.0,0.0,0.0,0.0,0.0,0.0,0.0,0.0,0.0,0.0,0.0,0.0,0.0,0.0,0.0,0.0,0.0,0.0,0.0,0.0,0.0,0.0,0.0,0.0,0.0,0.0,0.0,0.0,0.0,0.0,0.0,0.0,0.0,0.0,0.0,0.0,0.0,0.0,0.0,0.0,0.0,0.0,0.0,0.0,0.0,0.0,0.0,0.0,0.0,0.0,0.0,0.0,0.0,0.0,0.0,0.0,0.0,0.0,0.0,0.0,0.0,0.0,0.0,0.0,0.0,0.0,0.0,0.0,0.0,0.0,0.0,0.0,0.0,0.0,0.0,0.0,0.0,0.0,0.0,0.0,0.0,0.0,0.0,0.0,0.0,0.0,0.0,0.0,0.0,0.0,0.0,0.0,0.0,0.0,0.0,0.0,0.0,0.0,0.0,0.0,0.0,0.0,0.0,0.0,0.0,0.0,0.0,0.0,0.0,0.0,0.0,0.0,0.0,0.0,0.0,0.0,0.0,0.0,0.0,0.0,0.0,0.0,0.0,0.0,0.0,0.0,0.0,0.0,0.0,0.0,0.0,0.0,0.0,0.0,0.0,0.0,0.0,0.0,0.0,0.0,0.0,0.0,0.0,0.0,0.0,0.0,0.0,0.0,0.0,0.0,0.0,0.0,0.0,0.0,0.0,0.0,0.0,0.0,0.0,0.0,0.0,0.0,0.0,0.0,0.0,0.0,0.0,0.0,0.0,0.0,0.0,0.0,0.0,0.0,0.0,0.0,0.0,0.0,0.0,0.0,0.0,0.0,0.0,0.0,0.0,0.0,0.0,0.0,0.0,0.0,0.0,0.0,0.0,0.0,0.0,0.0,0.0,0.0,0.0,0.0,0.0,0.0,0.0,0.0,0.0,0.0,0.0,0.0,0.0,0.0,0.0,0.0,0.0,0.0,0.0,0.0,0.0,0.0,0.0,0.0,0.0,0.0,0.0,0.0,0.0,0.0,0.0,0.0,0.0,0.0,0.0,0.0,0.0,0.0,0.0,0.0,0.0,0.0,0.0,0.0,0.0,0.0,0.0,0.0,0.0,0.0,0.0,0.0,0.0,0.0,0.0,0.0,0.0,0.0,0.0,0.0,0.0,0.0,0.0,0.0,0.0,0.0,0.0,0.0,0.0,0.0,0.0,0.0,0.0,0.0,0.0,0.0,0.0,0.0,0.0,0.0,0.0,0.0,0.0,0.0,0.0,0.0,0.0,0.0,0.0,0.0,0.0,0.0,0.0,0.0,0.0,0.0,0.0,0.0,0.0,0.0,0.0,0.0,0.0,0.0,0.0,0.0,0.0,0.0,0.0,0.0,0.0,0.0,0.0,0.0,0.0,0.0,0.0,0.0,0.0,0.0,0.0,0.0,0.0,0.0,0.0,0.0,0.0,0.0,0.0,0.0,0.0,0.0,0.0,0.0,0.0,0.0,0.0,0.0,0.0,0.0,0.0,0.0,0.0,0.0,0.0,0.0,0.0,0.0,0.0,0.0,0.0,0.0,0.0,0.0,0.0,0.0,0.0,0.0,0.0,0.0,0.0,0.0,0.0,0.0,0.0,0.0,0.0,0.0,0.0,0.0,0.0,0.0,0.0,0.0,0.0,0.0,0.0,0.0,0.0,0.0,0.0,0.0,0.0,0.0,0.0,0.0,0.0,0.0,0.0,0.0,0.0,0.0,0.0,0.0,0.0,0.0,0.0,0.0,0.0,0.0,0.0,0.0,0.0,0.0,0.0,0.0,0.0,0.0,0.0,0.0,0.0,0.0,0.0,0.0,0.0,0.0,0.0,0.0,0.0,0.0,0.0,0.0,0.0,0.0,0.0,0.0,0.0,0.0,0.0,0.0,0.0,0.0,0.0,0.0,0.0,0.0,0.0,0.0,0.0,0.0,0.0,0.0,0.0,0.0,0.0,0.0,0.0,0.0,0.0,0.0,0.0,0.0,0.0,0.0,0.0,0.0,0.0,0.0,0.0,0.0,0.0,0.0,0.0,0.0,0.0,0.0,0.0,0.0,0.0,0.0,0.0,0.0,0.0,0.0,0.0,0.0,0.0,0.0,0.0,0.0,0.0,0.0,0.0,0.0,0.0,0.0,0.0,0.0,0.0,0.0,0.0,0.0,0.0,0.0,0.0,0.0,0.0,0.0,0.0,0.0,0.0,0.0,0.0,0.0,0.0,0.0,0.0,0.0,0.0,0.0,0.0,0.0,0.0,0.0,0.0,0.0,0.0,0.0,0.0,0.0,0.0,0.0,0.0,0.0,0.0,0.0,0.0,0.0,0.0,0.0,0.0,0.0,0.0,0.0,0.0,0.0,0.0,0.0,0.0,0.0,0.0,0.0,0.0,0.0,0.0,0.0,0.0,0.0,0.0,0.0,0.0,0.0,0.0,0.0,0.0,0.0,0.0,0.0,0.0,0.0,0.0,0.0,0.0,0.0,0.0,0.0,0.0,0.0,0.0,0.0,0.0,0.0,0.0,0.0,0.0,0.0,0.0,0.0,0.0,0.0,0.0,0.0,0.0,0.0,0.0,0.0,0.0,0.0,0.0,0.0,0.0,0.0,0.0,0.0,0.0,0.0,0.0,0.0,0.0,0.0,0.0,0.0,0.0,0.0,0.0,0.0,0.0,0.0,0.0,0.0,0.0,0.0,0.0,0.0,0.0,0.0,0.0,0.0,0.0,0.0,0.0,0.0,0.0,0.0,0.0,0.0,0.0,0.0,0.0,0.0,0.0,0.0,0.0,0.0,0.0,0.0,0.0,0.0,0.0,0.0,0.0,0.0,0.0,0.0,0.0,0.0,0.0,0.0,0.0,0.0,0.0,0.0,0.0,0.0,0.0,0.0,0.0,0.0,0.0,0.0,0.0,0.0,0.0,0.0,0.0,0.0,0.0,0.0,0.0,0.0,0.0,0.0,0.0,0.0,0.0,0.0,0.0,0.0,0.0,0.0,0.0,0.0,0.0,0.0,0.0,0.0,0.0,0.0,0.0,0.0,0.0,0.0,0.0,0.0,0.0,0.0,0.0,0.0,0.0,0.0,0.0,0.0,0.0,0.0,0.0,0.0,0.0,0.0,0.0,0.0,0.0,0.0,0.0,0.0,0.0,0.0,0.0,0.0,0.0,0.0,0.0,0.0,0.0,0.0,0.0,0.0,0.0,0.0,0.0,0.0,0.0,0.0,0.0,0.0,0.0,0.0,0.0,0.0,0.0,0.0,0.0,0.0,0.0,0.0,0.0,0.0,0.0,0.0,0.0,0.0,0.0,0.0,0.0,0.0,0.0,0.0,0.0,0.0,0.0,0.0,0.0,0.0,0.0,0.0,0.0,0.0,0.0,0.0,0.0,0.0,0.0,0.0,0.0,0.0,0.0,0.0,0.0,0.0,0.0,0.0,0.0,0.0,0.0,0.0,0.0,0.0,0.0,0.0,0.0,0.0,0.0,0.0,0.0,0.0,0.0,0.0,0.0,0.0,0.0,0.0,0.0,0.0,0.0,0.0,0.0,0.0,0.0,0.0,0.0,0.0,0.0,0.0,0.0,0.0,0.0,0.0,0.0,0.0,0.0,0.0,0.0,0.0,0.0,0.0,0.0,0.0,0.0,0.0,0.0,0.0,0.0,0.0,0.0,0.0,0.0,0.0,0.0,0.0,0.0,0.0,0.0,0.0,0.0,0.0,0.0,0.0,0.0,0.0,0.0,0.0,0.0,0.0,0.0,0.0,0.0,0.0,0.0,0.0,0.0,0.0,0.0,0.0,0.0,0.0,0.0,0.0,0.0,0.0,0.0,0.0,0.0,0.0,0.0,0.0,0.0,0.0,0.0,0.0,0.0,0.0,0.0,0.0,0.0,0.0,0.0,0.0,0.0,0.0,-1.2076,0.0,0.0,0.0,0.0,0.0,0.0,0.0,0.0,0.0,0.0,0.0,0.0,0.0,0.0,0.0,0.0,0.0,0.0,0.0,0.0,0.0,0.0,0.0,0.0,0.0,0.0,0.0,0.0,0.0,0.0,0.0,0.0,0.0,0.0,0.0,0.0,0.0,0.0,0.0,0.0,0.0,0.0,0.0,0.0,0.0,0.0,0.0,0.0,0.0,0.0,0.0,0.0,0.0,0.0,0.0,0.0,0.0,0.0,0.0,0.0,0.0,0.0,0.0,0.0,0.0,0.0,0.0,0.0,0.0,0.0,0.0,0.0,0.0,0.0,0.0,0.0,0.0,0.0,0.0,0.0,0.0,0.0,0.0,0.0,0.0,0.0,0.0,0.0,0.0,0.0,0.0,0.0,0.0,0.0,0.0,0.0,0.0,0.0,0.0,0.0,0.0,0.0,0.0,0.0,0.0,0.0,0.0,0.0,0.0,0.0,-1.3121,-1.2724,-1.2312,-1.2076,-1.2076,0.0,0.0,0.0,0.0,0.0,0.0,0.0,0.0,0.0,0.0,0.0,0.0,0.0,0.0,0.0,0.0,0.0,0.0,0.0,0.0,0.0,0.0,0.0,0.0,0.0,0.0,0.0,0.0,0.0,0.0,0.0,0.0,0.0,0.0,0.0,0.0,0.0,0.0,0.0,0.0,0.0,0.0,0.0,0.0,0.0,0.0,0.0,0.0,0.0,0.0,0.0,0.0,0.0,0.0,0.0,0.0,0.0,0.0,0.0,0.0,0.0,0.0,0.0,0.0,0.0,0.0,0.0,0.0,0.0,0.0,0.0,0.0,0.0,0.0,0.0,0.0,0.0,0.0,0.0,0.0,0.0,0.0,0.0,0.0,0.0,0.0,0.0,0.0,0.0,0.0,0.0,0.0,0.0,0.0,0.0,0.0,0.0,0.0,0.0,0.0,0.0,0.0,0.0,0.0,0.0,0.0,0.0,0.0,0.0,0.0,0.0,0.0,-1.2441,-1.2193,-1.211,0.0,0.0,0.0,0.0,0.0,0.0,0.0,0.0,0.0,0.0,0.0,0.0,0.0,0.0,0.0,0.0,0.0,0.0,0.0,0.0,0.0,0.0,0.0,0.0,0.0,0.0,0.0,0.0,0.0,0.0,0.0,0.0,0.0,0.0,0.0,0.0,0.0,0.0,0.0,0.0,0.0,0.0,0.0,0.0,0.0,0.0,0.0,0.0,0.0,0.0,0.0,0.0,0.0,0.0,0.0,0.0,0.0,0.0,0.0,0.0,0.0,0.0,0.0,0.0,0.0,0.0,0.0,0.0,0.0,0.0,0.0,0.0,0.0,0.0,0.0,0.0,0.0,0.0,0.0,0.0,0.0,0.0,0.0,0.0,0.0,0.0,0.0,0.0,0.0,0.0,0.0,0.0,0.0,0.0,0.0,0.0,0.0,0.0,0.0,0.0,0.0,0.0,0.0,0.0,0.0,0.0,0.0,0.0,0.0,0.0,-1.3663,-1.3241,-1.2854,0.0,-1.2138,0.0,0.0,0.0,0.0,0.0,0.0,0.0,0.0,0.0,0.0,0.0,0.0,0.0,0.0,0.0,0.0,0.0,0.0,0.0,0.0,0.0,0.0,0.0,0.0,0.0,0.0,0.0,0.0,0.0,0.0,0.0,0.0,0.0,0.0,0.0,0.0,0.0,0.0,0.0,0.0,0.0,0.0,0.0,0.0,0.0,0.0,0.0,0.0,0.0,0.0,0.0,0.0,0.0,0.0,0.0,0.0,0.0,0.0,0.0,0.0,0.0,0.0,0.0,0.0,0.0,0.0,0.0,0.0,0.0,0.0,0.0,0.0,0.0,0.0,0.0,0.0,0.0,0.0,0.0,0.0,0.0,0.0,0.0,0.0,0.0,0.0,0.0,0.0,0.0,0.0,0.0,0.0,0.0,0.0,0.0,0.0,0.0,0.0,0.0,0.0,0.0,0.0,0.0,0.0,0.0,0.0,0.0,0.0,0.0,0.0,-1.3837,-1.3644,-1.3029,-1.2531,0.0,0.0,0.0,0.0,0.0,0.0,0.0,0.0,0.0,0.0,0.0,0.0,0.0,0.0,0.0,0.0,0.0,0.0,0.0,0.0,0.0,0.0,0.0,0.0,0.0,0.0,0.0,0.0,0.0,0.0,0.0,0.0,0.0,0.0,0.0,0.0,0.0,0.0,0.0,0.0,0.0,0.0,0.0,0.0,0.0,0.0,0.0,0.0,0.0,0.0,0.0,0.0,0.0,0.0,0.0,0.0,0.0,0.0,0.0,0.0,0.0,0.0,0.0,0.0,0.0,0.0,0.0,0.0,0.0,0.0,0.0,0.0,0.0,0.0,0.0,0.0,0.0,0.0,0.0,0.0,0.0,0.0,0.0,0.0,0.0,0.0,0.0,0.0,0.0,0.0,0.0,0.0,0.0,0.0,0.0,0.0,0.0,0.0,0.0,0.0,0.0,0.0,0.0,0.0,0.0,0.0,0.0,0.0,0.0,0.0,-1.4212,-1.4002,-1.3883,-1.3231,-1.267,-1.2275,0.0,0.0,0.0,0.0,0.0,0.0,0.0,0.0,0.0,0.0,0.0,0.0,0.0,0.0,0.0,0.0,0.0,0.0,0.0,0.0,0.0,0.0,0.0,0.0,0.0,0.0,0.0,0.0,0.0,0.0,0.0,0.0,0.0,0.0,0.0,0.0,0.0,0.0,0.0,0.0,0.0,0.0,0.0,0.0,0.0,0.0,0.0,0.0,0.0,0.0,0.0,0.0,0.0,0.0,0.0,0.0,0.0,0.0,0.0,0.0,0.0,0.0,0.0,0.0,0.0,0.0,0.0,0.0,0.0,0.0,0.0,0.0,0.0,0.0,0.0,0.0,0.0,0.0,0.0,0.0,0.0,0.0,0.0,0.0,0.0,0.0,0.0,0.0,0.0,0.0,0.0,0.0,0.0,0.0,0.0,0.0,0.0,0.0,0.0,0.0,0.0,0.0,0.0,0.0,0.0,0.0,0.0,0.0,-1.4504,-1.4497,-1.4286,-1.3892,-1.3507,-1.3093,0.0,0.0,0.0,0.0,0.0,0.0,0.0,0.0,0.0,0.0,0.0,0.0,0.0,0.0,0.0,0.0,0.0,0.0,0.0,0.0,0.0,0.0,0.0,0.0,0.0,0.0,0.0,0.0,0.0,0.0,0.0,0.0,0.0,0.0,0.0,0.0,0.0,0.0,0.0,0.0,0.0,0.0,0.0,0.0,0.0,0.0,0.0,0.0,0.0,0.0,0.0,0.0,0.0,0.0,0.0,0.0,0.0,0.0,0.0,0.0,0.0,0.0,0.0,0.0,0.0,0.0,0.0,0.0,0.0,0.0,0.0,0.0,0.0,0.0,0.0,0.0,0.0,0.0,0.0,0.0,0.0,0.0,0.0,0.0,0.0,0.0,0.0,0.0,0.0,0.0,0.0,0.0,0.0,0.0,0.0,0.0,0.0,0.0,0.0,0.0,0.0,0.0,0.0,0.0,0.0,0.0,0.0,0.0,0.0,-1.4513,-1.4485,-1.4313,-1.3901,-1.3773,-1.3507,0.0,0.0,0.0,0.0,0.0,0.0,0.0,0.0,0.0,0.0,0.0,0.0,0.0,0.0,0.0,0.0,0.0,0.0,0.0,0.0,0.0,0.0,0.0,0.0,0.0,0.0,0.0,0.0,0.0,0.0,0.0,0.0,0.0,0.0,0.0,0.0,0.0,0.0,0.0,0.0,0.0,0.0,0.0,0.0,0.0,0.0,0.0,0.0,0.0,0.0,0.0,0.0,0.0,0.0,0.0,0.0,0.0,0.0,0.0,0.0,0.0,0.0,0.0,0.0,0.0,0.0,0.0,0.0,0.0,0.0,0.0,0.0,0.0,0.0,0.0,0.0,0.0,0.0,0.0,0.0,0.0,0.0,0.0,0.0,0.0,0.0,0.0,0.0,0.0,0.0,0.0,0.0,0.0,0.0,0.0,0.0,0.0,0.0,0.0,0.0,0.0,0.0,0.0,0.0,0.0,0.0,0.0,0.0,0.0,-1.4868,0.0,-1.4884,-1.4656,-1.4458,-1.418,0.0,0.0,0.0,0.0,0.0,0.0,0.0,0.0,0.0,0.0,0.0,0.0,0.0,0.0,0.0,0.0,0.0,0.0,0.0,0.0,0.0,0.0,0.0,0.0,0.0,0.0,0.0,0.0,0.0,0.0,0.0,0.0,0.0,0.0,0.0,0.0,0.0,0.0,0.0,0.0,0.0,0.0,0.0,0.0,0.0,0.0,0.0,0.0,0.0,0.0,0.0,0.0,0.0,0.0,0.0,0.0,0.0,0.0,0.0,0.0,0.0,0.0,0.0,0.0,0.0,0.0,0.0,0.0,0.0,0.0,0.0,0.0,0.0,0.0,0.0,0.0,0.0,0.0,0.0,0.0,0.0,0.0,0.0,0.0,0.0,0.0,0.0,0.0,0.0,0.0,0.0,0.0,0.0,0.0,0.0,0.0,0.0,0.0,0.0,0.0,0.0,0.0,0.0,0.0,0.0,0.0,0.0,0.0,-1.5654,-1.5605,-1.5826,-1.5995,-1.6163,-1.5589,-1.5205,0.0,0.0,0.0,0.0,0.0,0.0,0.0,0.0,0.0,0.0,0.0,0.0,0.0,0.0,0.0,0.0,0.0,0.0,0.0,0.0,0.0,0.0,0.0,0.0,0.0,0.0,0.0,0.0,0.0,0.0,0.0,0.0,0.0,0.0,0.0,0.0,0.0,0.0,0.0,0.0,0.0,0.0,0.0,0.0,0.0,0.0,0.0,0.0,0.0,0.0,0.0,0.0,0.0,0.0,0.0,0.0,0.0,0.0,0.0,0.0,0.0,0.0,0.0,0.0,0.0,0.0,0.0,0.0,0.0,0.0,0.0,0.0,0.0,0.0,0.0,0.0,0.0,0.0,0.0,0.0,0.0,0.0,0.0,0.0,0.0,0.0,0.0,0.0,0.0,0.0,0.0,0.0,0.0,0.0,0.0,0.0,0.0,0.0,0.0,0.0,0.0,0.0,0.0,0.0,0.0,0.0,0.0,0.0,0.0,-1.6053,-1.6094,-1.616,-1.6214,-1.6005,-1.5782,0.0,0.0,0.0,0.0,0.0,0.0,0.0,0.0,0.0,0.0,0.0,0.0,0.0,0.0,0.0,0.0,0.0,0.0,0.0,0.0,0.0,0.0,0.0,0.0,0.0,0.0,0.0,0.0,0.0,0.0,0.0,0.0,0.0,0.0,0.0,0.0,0.0,0.0,0.0,0.0,0.0,0.0,0.0,0.0,0.0,0.0,0.0,0.0,0.0,0.0,0.0,0.0,0.0,0.0,0.0,0.0,0.0,0.0,0.0,0.0,0.0,0.0,0.0,0.0,0.0,0.0,0.0,0.0,0.0,0.0,0.0,0.0,0.0,0.0,0.0,0.0,0.0,0.0,0.0,0.0,0.0,0.0,0.0,0.0,0.0,0.0,0.0,0.0,0.0,0.0,0.0,0.0,0.0,0.0,0.0,0.0,0.0,0.0,0.0,0.0,0.0,0.0,0.0,0.0,0.0,0.0,0.0,0.0,0.0,-1.8237,-1.7721,-1.7459,-1.7468,-1.7087,-1.6759,-1.652,0.0,0.0,0.0,0.0,0.0,0.0,0.0,0.0,0.0,0.0,0.0,0.0,0.0,0.0,0.0,0.0,0.0,0.0,0.0,0.0,0.0,0.0,0.0,0.0,0.0,0.0,0.0,0.0,0.0,0.0,0.0,0.0,0.0,0.0,0.0,0.0,0.0,0.0,0.0,0.0,0.0,0.0,0.0,0.0,0.0,0.0,0.0,0.0,0.0,0.0,0.0,0.0,0.0,0.0,0.0,0.0,0.0,0.0,0.0,0.0,0.0,0.0,0.0,0.0,0.0,0.0,0.0,0.0,0.0,0.0,0.0,0.0,0.0,0.0,0.0,0.0,0.0,0.0,0.0,0.0,0.0,0.0,0.0,0.0,0.0,0.0,0.0,0.0,0.0,0.0,0.0,0.0,0.0,0.0,0.0,0.0,0.0,0.0,0.0,0.0,0.0,0.0,0.0,0.0,0.0,0.0,0.0,0.0,-2.1697,-2.0552,-1.9878,-1.9658,-1.8684,-1.8117,0.0,0.0,0.0,0.0,0.0,0.0,0.0,0.0,0.0,0.0,0.0,0.0,0.0,0.0,0.0,0.0,0.0,0.0,0.0,0.0,0.0,0.0,0.0,0.0,0.0,0.0,0.0,0.0,0.0,0.0,0.0,0.0,0.0,0.0,0.0,0.0,0.0,0.0,0.0,0.0,0.0,0.0,0.0,0.0,0.0,0.0,0.0,0.0,0.0,0.0,0.0,0.0,0.0,0.0,0.0,0.0,0.0,0.0,0.0,0.0,0.0,0.0,0.0,0.0,0.0,0.0,0.0,0.0,0.0,0.0,0.0,0.0,0.0,0.0,0.0,0.0,0.0,0.0,0.0,0.0,0.0,0.0,0.0,0.0,0.0,0.0,0.0,0.0,0.0,0.0,0.0,0.0,0.0,0.0,0.0,0.0,0.0,0.0,0.0,0.0,0.0,0.0,0.0,0.0,0.0,0.0,0.0,0.0,0.0,-2.2998,-2.3886,-2.3196,-2.0901,-2.0212,-1.9429,0.0,0.0,0.0,0.0,0.0,0.0,0.0,0.0,0.0,0.0,0.0,0.0,0.0,0.0,0.0,0.0,0.0,0.0,0.0,0.0,0.0,0.0,0.0,0.0,0.0,0.0,0.0,0.0,0.0,0.0,0.0,0.0,0.0,0.0,0.0,0.0,0.0,0.0,0.0,0.0,0.0,0.0,0.0,0.0,0.0,0.0,0.0,0.0,0.0,0.0,0.0,0.0,0.0,0.0,0.0,0.0,0.0,0.0,0.0,0.0,0.0,0.0,0.0,0.0,0.0,0.0,0.0,0.0,0.0,0.0,0.0,0.0,0.0,0.0,0.0,0.0,0.0,0.0,0.0,0.0,0.0,0.0,0.0,0.0,0.0,0.0,0.0,0.0,0.0,0.0,0.0,0.0,0.0,0.0,0.0,0.0,0.0,0.0,0.0,0.0,0.0,0.0,0.0,0.0,0.0,0.0,0.0,0.0,-2.405,-2.4819,-2.6319,-2.6074,-2.3883,-2.2436,-2.1092,0.0,0.0,0.0,0.0,0.0,0.0,0.0,0.0,0.0,0.0,0.0,0.0,0.0,0.0,0.0,0.0,0.0,0.0,0.0,0.0,0.0,0.0,0.0,0.0,0.0,0.0,0.0,0.0,0.0,0.0,0.0,0.0,0.0,0.0,0.0,0.0,0.0,0.0,0.0,0.0,0.0,0.0,0.0,0.0,0.0,0.0,0.0,0.0,0.0,0.0,0.0,0.0,0.0,0.0,0.0,0.0,0.0,0.0,0.0,0.0,0.0,0.0,0.0,0.0,0.0,0.0,0.0,0.0,0.0,0.0,0.0,0.0,0.0,0.0,0.0,0.0,0.0,0.0,0.0,0.0,0.0,0.0,0.0,0.0,0.0,0.0,0.0,0.0,0.0,0.0,0.0,0.0,0.0,0.0,0.0,0.0,0.0,0.0,0.0,0.0,0.0,0.0,0.0,0.0,0.0,0.0,0.0,0.0,-2.5483,-2.6768,-2.8046,-2.8349,-2.758,-2.4922,-2.293,0.0,0.0,0.0,0.0,0.0,0.0,0.0,0.0,0.0,0.0,0.0,0.0,0.0,0.0,0.0,0.0,0.0,0.0,0.0,0.0,0.0,0.0,0.0,0.0,0.0,0.0,0.0,0.0,0.0,0.0,0.0,0.0,0.0,0.0,0.0,0.0,0.0,0.0,0.0,0.0,0.0,0.0,0.0,0.0,0.0,0.0,0.0,0.0,0.0,0.0,0.0,0.0,0.0,0.0,0.0,0.0,0.0,0.0,0.0,0.0,0.0,0.0,0.0,0.0,0.0,0.0,0.0,0.0,0.0,0.0,0.0,0.0,0.0,0.0,0.0,0.0,0.0,0.0,0.0,0.0,0.0,0.0,0.0,0.0,0.0,0.0,0.0,0.0,0.0,0.0,0.0,0.0,0.0,0.0,0.0,0.0,0.0,0.0,0.0,0.0,0.0,0.0,0.0,0.0,0.0,0.0,0.0,0.0,-2.5788,-2.796,-2.8466,-2.8789,-2.9067,-2.6632,-2.4672,0.0,0.0,0.0,0.0,0.0,0.0,0.0,0.0,0.0,0.0,0.0,0.0,0.0,0.0,0.0,0.0,0.0,0.0,0.0,0.0,0.0,0.0,0.0,0.0,0.0,0.0,0.0,0.0,0.0,0.0,0.0,0.0,0.0,0.0,0.0,0.0,0.0,0.0,0.0,0.0,0.0,0.0,0.0,0.0,0.0,0.0,0.0,0.0,-1.2799,0.0,0.0,0.0,0.0,0.0,0.0,0.0,0.0,0.0,0.0,0.0,0.0,0.0,0.0,0.0,0.0,0.0,0.0,0.0,0.0,0.0,0.0,0.0,0.0,0.0,0.0,0.0,0.0,0.0,0.0,0.0,0.0,0.0,0.0,0.0,0.0,0.0,0.0,0.0,0.0,0.0,0.0,0.0,0.0,0.0,0.0,0.0,0.0,0.0,0.0,0.0,0.0,0.0,0.0,0.0,0.0,0.0,0.0,0.0,-2.695,-2.8727,-2.9173,-2.9534,-2.9746,-2.8348,-2.6652,0.0,0.0,0.0,0.0,0.0,0.0,0.0,0.0,0.0,0.0,0.0,0.0,0.0,0.0,0.0,0.0,0.0,0.0,0.0,0.0,0.0,0.0,0.0,0.0,0.0,0.0,0.0,0.0,0.0,0.0,0.0,0.0,0.0,0.0,0.0,0.0,0.0,0.0,0.0,0.0,0.0,0.0,0.0,0.0,0.0,0.0,0.0,0.0,0.0,0.0,0.0,0.0,0.0,0.0,0.0,0.0,0.0,0.0,0.0,0.0,0.0,0.0,0.0,0.0,0.0,0.0,0.0,0.0,0.0,0.0,0.0,0.0,0.0,0.0,0.0,0.0,0.0,0.0,0.0,0.0,0.0,0.0,0.0,0.0,0.0,0.0,0.0,0.0,0.0,0.0,0.0,0.0,0.0,0.0,0.0,0.0,0.0,0.0,0.0,0.0,0.0,0.0,0.0,0.0,0.0,0.0,0.0,-2.6779,-2.8107,-2.9294,-2.9783,-3.0034,-3.0159,-2.9757,-2.8294,-2.5791,0.0,0.0,0.0,0.0,0.0,0.0,0.0,0.0,0.0,0.0,0.0,0.0,0.0,0.0,0.0,0.0,0.0,0.0,0.0,0.0,0.0,0.0,0.0,0.0,0.0,0.0,0.0,0.0,0.0,0.0,0.0,0.0,0.0,0.0,0.0,0.0,0.0,0.0,-1.1166,-1.2286,0.0,0.0,0.0,0.0,0.0,0.0,0.0,0.0,-1.402,0.0,0.0,0.0,0.0,0.0,0.0,0.0,0.0,0.0,0.0,0.0,0.0,0.0,0.0,0.0,0.0,0.0,0.0,0.0,0.0,0.0,0.0,0.0,0.0,0.0,0.0,0.0,0.0,0.0,0.0,0.0,0.0,0.0,0.0,0.0,0.0,0.0,0.0,0.0,0.0,0.0,0.0,0.0,0.0,0.0,0.0,0.0,0.0,0.0,0.0,0.0,0.0,0.0,0.0,0.0,0.0,-2.6233,-2.6488,-2.7699,-2.9965,-2.9338,-2.9325,-3.0159,-2.9745,-2.8669,-2.6955,0.0,0.0,0.0,0.0,0.0,0.0,0.0,0.0,0.0,0.0,0.0,0.0,0.0,0.0,0.0,0.0,0.0,0.0,0.0,0.0,0.0,0.0,0.0,0.0,0.0,0.0,0.0,0.0,0.0,0.0,0.0,0.0,0.0,0.0,0.0,0.0,0.0,0.0,0.0,-1.3708,-1.4843,0.0,0.0,0.0,0.0,0.0,0.0,0.0,0.0,-1.5225,0.0,0.0,0.0,0.0,0.0,0.0,0.0,0.0,0.0,0.0,0.0,0.0,0.0,0.0,0.0,0.0,0.0,0.0,0.0,0.0,0.0,0.0,0.0,0.0,0.0,0.0,0.0,0.0,0.0,0.0,0.0,0.0,0.0,0.0,0.0,0.0,0.0,0.0,0.0,0.0,0.0,0.0,0.0,0.0,0.0,0.0,0.0,0.0,0.0,0.0,0.0,0.0,0.0,0.0,0.0,-2.6818,-2.7615,-2.8721,-3.0125,-2.9749,-2.9703,-3.017,-2.9745,-2.8792,0.0,0.0,0.0,0.0,0.0,0.0,0.0,0.0,0.0,0.0,0.0,0.0,0.0,0.0,0.0,0.0,0.0,0.0,0.0,0.0,0.0,0.0,0.0,0.0,0.0,0.0,0.0,0.0,0.0,0.0,0.0,0.0,0.0,0.0,0.0,0.0,0.0,0.0,0.0,0.0,-1.5225,-1.6375,-1.6727,0.0,0.0,0.0,0.0,0.0,0.0,-1.6707,-1.6111,0.0,0.0,0.0,0.0,0.0,0.0,0.0,0.0,0.0,0.0,0.0,0.0,0.0,0.0,0.0,0.0,0.0,0.0,0.0,0.0,0.0,0.0,0.0,0.0,0.0,0.0,0.0,0.0,0.0,0.0,0.0,0.0,0.0,0.0,0.0,0.0,0.0,0.0,0.0,0.0,0.0,0.0,0.0,0.0,0.0,0.0,0.0,0.0,0.0,0.0,0.0,0.0,0.0,0.0,0.0,-2.7328,-2.8781,-2.9734,-3.0193,-3.0216,-3.0216,-3.0204,-2.9642,-2.8677,0.0,0.0,0.0,0.0,0.0,0.0,0.0,0.0,0.0,0.0,0.0,0.0,0.0,0.0,0.0,0.0,0.0,0.0,0.0,0.0,0.0,0.0,0.0,0.0,0.0,0.0,0.0,0.0,0.0,0.0,0.0,0.0,0.0,0.0,0.0,0.0,0.0,0.0,0.0,0.0,0.0,-1.7471,-1.7642,-1.7663,0.0,0.0,0.0,0.0,-1.7697,-1.7413,0.0,0.0,0.0,0.0,0.0,0.0,0.0,0.0,0.0,0.0,0.0,0.0,0.0,0.0,0.0,0.0,0.0,0.0,0.0,0.0,0.0,0.0,0.0,0.0,0.0,0.0,0.0,0.0,0.0,0.0,0.0,0.0,0.0,0.0,0.0,0.0,0.0,0.0,0.0,0.0,0.0,0.0,0.0,0.0,0.0,0.0,0.0,0.0,0.0,0.0,0.0,0.0,0.0,0.0,0.0,0.0,-2.7862,-2.8953,-2.9722,-3.0193,-3.0216,-3.0216,-3.0204,-2.9286,-2.8299,0.0,0.0,0.0,0.0,0.0,0.0,0.0,0.0,0.0,0.0,0.0,0.0,0.0,0.0,0.0,0.0,0.0,0.0,0.0,0.0,0.0,0.0,0.0,0.0,0.0,0.0,0.0,0.0,0.0,0.0,0.0,0.0,0.0,0.0,0.0,0.0,0.0,0.0,0.0,0.0,0.0,-1.7664,-1.8142,-1.8248,-1.8283,0.0,0.0,-1.8513,-1.8559,-1.8247,0.0,0.0,0.0,0.0,0.0,0.0,0.0,0.0,0.0,0.0,0.0,0.0,0.0,0.0,0.0,0.0,0.0,0.0,0.0,0.0,0.0,0.0,0.0,0.0,0.0,0.0,0.0,0.0,0.0,0.0,0.0,0.0,0.0,0.0,0.0,0.0,0.0,0.0,0.0,0.0,0.0,0.0,0.0,0.0,0.0,0.0,0.0,0.0,0.0,0.0,0.0,0.0,0.0,0.0,0.0,-2.6749,-2.7966,-2.9251,-2.9998,-3.0216,-3.0216,-3.0216,-3.0216,-2.9228,-2.8187,0.0,0.0,0.0,0.0,0.0,0.0,0.0,0.0,0.0,0.0,0.0,0.0,0.0,0.0,0.0,0.0,0.0,0.0,0.0,0.0,0.0,0.0,0.0,0.0,0.0,0.0,0.0,0.0,0.0,0.0,0.0,0.0,0.0,0.0,0.0,0.0,0.0,0.0,0.0,0.0,0.0,0.0,-1.8968,-1.9375,0.0,0.0,0.0,-1.9153,-1.9367,0.0,0.0,0.0,0.0,0.0,0.0,0.0,0.0,0.0,0.0,0.0,0.0,0.0,0.0,0.0,0.0,0.0,0.0,0.0,0.0,0.0,0.0,0.0,0.0,0.0,0.0,0.0,0.0,0.0,0.0,0.0,0.0,0.0,0.0,0.0,0.0,0.0,0.0,0.0,0.0,0.0,0.0,0.0,0.0,0.0,0.0,0.0,0.0,0.0,0.0,0.0,0.0,0.0,0.0,0.0,0.0,0.0,-2.8161,-2.9515,-3.0216,-3.0216,-3.0216,-3.0216,-3.0204,-2.9366,0.0,0.0,0.0,0.0,0.0,0.0,0.0,0.0,0.0,0.0,0.0,0.0,0.0,0.0,0.0,0.0,0.0,0.0,0.0,0.0,0.0,0.0,0.0,0.0,0.0,0.0,0.0,-1.5205,0.0,0.0,0.0,0.0,0.0,0.0,0.0,0.0,0.0,0.0,0.0,0.0,0.0,0.0,-1.9768,-1.9577,-2.0229,-2.0528,0.0,0.0,-1.9553,-1.9855,-1.9647,-1.9127,0.0,0.0,0.0,0.0,0.0,0.0,0.0,0.0,0.0,0.0,0.0,0.0,0.0,0.0,0.0,0.0,0.0,0.0,0.0,0.0,0.0,0.0,0.0,0.0,0.0,0.0,0.0,0.0,0.0,0.0,0.0,0.0,0.0,0.0,0.0,0.0,0.0,0.0,0.0,0.0,0.0,0.0,0.0,0.0,0.0,0.0,0.0,0.0,0.0,0.0,0.0,0.0,0.0,0.0,0.0,-2.8654,-2.9688,-3.0216,-3.0216,-3.0216,-3.0216,-3.0204,-2.9722,-2.8866,0.0,0.0,0.0,0.0,0.0,0.0,0.0,0.0,0.0,0.0,0.0,0.0,0.0,0.0,0.0,0.0,0.0,0.0,0.0,0.0,0.0,0.0,0.0,0.0,0.0,0.0,0.0,0.0,0.0,0.0,0.0,0.0,0.0,0.0,0.0,0.0,0.0,0.0,0.0,0.0,0.0,-2.0286,-1.9833,-2.0524,-2.0807,0.0,0.0,-1.9874,-1.9902,-1.9893,-1.9496,-1.8464,0.0,0.0,0.0,0.0,0.0,0.0,0.0,0.0,0.0,0.0,0.0,0.0,0.0,0.0,0.0,0.0,0.0,0.0,0.0,0.0,0.0,0.0,0.0,0.0,0.0,0.0,0.0,0.0,0.0,0.0,0.0,0.0,0.0,0.0,0.0,0.0,0.0,0.0,0.0,0.0,0.0,0.0,0.0,0.0,0.0,0.0,0.0,0.0,0.0,0.0,0.0,0.0,0.0,-2.8023,-2.87,-2.9699,-3.0216,-3.0216,-3.0216,-3.0216,-3.0216,-2.9745,-2.8792,0.0,0.0,0.0,0.0,0.0,0.0,0.0,0.0,0.0,0.0,0.0,0.0,0.0,0.0,0.0,0.0,0.0,0.0,0.0,0.0,0.0,0.0,0.0,0.0,0.0,0.0,0.0,0.0,-2.2243,-2.2906,-2.2303,0.0,0.0,0.0,0.0,0.0,0.0,0.0,0.0,0.0,0.0,-2.0431,-2.0422,-2.0858,0.0,0.0,-2.1134,-2.1038,-2.0737,-2.0708,-2.04,-1.9451,-1.9073,0.0,0.0,0.0,0.0,0.0,0.0,0.0,0.0,0.0,0.0,0.0,0.0,0.0,0.0,0.0,0.0,0.0,0.0,0.0,0.0,0.0,0.0,0.0,0.0,0.0,0.0,0.0,0.0,0.0,0.0,0.0,0.0,0.0,0.0,0.0,0.0,0.0,0.0,0.0,0.0,0.0,0.0,0.0,0.0,0.0,0.0,0.0,0.0,0.0,0.0,0.0,0.0,-2.8505,-2.9148,-3.0158,-3.0686,-3.0686,-3.0537,-3.0457,-3.0445,-2.9975,-2.89,0.0,0.0,0.0,0.0,0.0,0.0,0.0,0.0,0.0,0.0,0.0,0.0,0.0,0.0,0.0,0.0,0.0,0.0,0.0,0.0,0.0,0.0,0.0,0.0,0.0,0.0,0.0,0.0,-2.3532,-2.3876,-2.3108,0.0,0.0,0.0,0.0,0.0,0.0,0.0,0.0,0.0,0.0,-2.1444,-2.1141,-2.1461,-2.1807,-2.1877,-2.1936,-2.1777,-2.1444,-2.1278,-2.0986,-2.0372,0.0,0.0,0.0,0.0,0.0,0.0,0.0,0.0,0.0,0.0,0.0,0.0,0.0,0.0,0.0,0.0,0.0,0.0,0.0,0.0,0.0,0.0,0.0,0.0,0.0,0.0,0.0,0.0,0.0,0.0,0.0,0.0,0.0,0.0,0.0,0.0,0.0,0.0,0.0,0.0,0.0,0.0,0.0,0.0,0.0,0.0,0.0,0.0,0.0,0.0,0.0,0.0,0.0,0.0,-3.0181,-3.1157,-3.1756,-3.1756,-3.126,-3.0996,-3.0927,-3.0434,-2.9353,-2.7618,0.0,0.0,0.0,0.0,0.0,0.0,0.0,0.0,0.0,0.0,0.0,0.0,0.0,0.0,0.0,0.0,0.0,0.0,0.0,0.0,0.0,0.0,0.0,0.0,0.0,0.0,-2.3642,-2.4163,-2.4268,0.0,0.0,0.0,0.0,0.0,0.0,0.0,0.0,0.0,0.0,-2.3353,-2.3607,-2.2007,-2.2503,-2.2717,-2.2038,-2.1914,-2.1894,-2.1875,-2.1533,-2.119,0.0,0.0,0.0,0.0,0.0,0.0,0.0,0.0,0.0,0.0,0.0,0.0,0.0,0.0,0.0,0.0,0.0,0.0,0.0,0.0,0.0,0.0,0.0,0.0,0.0,0.0,0.0,-2.069,-2.2229,0.0,0.0,0.0,0.0,0.0,0.0,0.0,0.0,0.0,0.0,0.0,-2.6717,-2.6681,0.0,0.0,0.0,0.0,0.0,0.0,0.0,0.0,0.0,0.0,0.0,0.0,-2.9883,-3.025,-3.1237,-3.1813,-3.1813,-3.1652,-3.1046,-3.0036,-2.98,-2.8625,-2.6212,0.0,0.0,0.0,0.0,0.0,0.0,0.0,0.0,0.0,0.0,0.0,0.0,0.0,0.0,0.0,0.0,0.0,0.0,0.0,0.0,0.0,0.0,0.0,0.0,0.0,-2.3675,0.0,0.0,0.0,0.0,0.0,0.0,0.0,0.0,0.0,0.0,0.0,-2.3691,-2.3438,-2.3507,-2.337,-2.2786,-2.2699,-2.2678,0.0,0.0,0.0,0.0,0.0,0.0,0.0,0.0,0.0,0.0,0.0,0.0,0.0,0.0,-1.9524,-1.8489,-1.8481,-1.8724,-1.9127,0.0,0.0,0.0,0.0,0.0,0.0,0.0,0.0,0.0,0.0,0.0,0.0,0.0,0.0,0.0,0.0,-2.4364,0.0,0.0,0.0,0.0,0.0,0.0,0.0,0.0,-2.6895,-2.7526,-2.8439,-2.8368,-2.8556,0.0,-2.8692,-2.7922,0.0,0.0,0.0,0.0,0.0,0.0,0.0,0.0,-3.0583,-3.0732,-3.1766,-3.2294,-3.2331,-3.2158,-3.1355,-2.9996,-2.8924,-2.7545,-2.5767,-2.4341,-2.3271,0.0,0.0,0.0,0.0,0.0,0.0,0.0,0.0,0.0,0.0,0.0,0.0,0.0,0.0,0.0,0.0,0.0,0.0,0.0,0.0,0.0,0.0,0.0,-2.4898,0.0,0.0,0.0,0.0,0.0,0.0,0.0,0.0,0.0,-2.4587,-2.4923,-2.5006,-2.4559,-2.4148,-2.3795,-2.3463,0.0,0.0,0.0,0.0,0.0,0.0,0.0,-2.2556,-2.2629,-2.2542,-2.2458,-2.2443,-2.2267,-2.2138,-2.2294,0.0,0.0,-2.0937,-2.0891,-2.1198,-2.1672,-2.1657,-2.1534,-2.1607,-2.16,-2.1964,0.0,0.0,0.0,0.0,0.0,0.0,0.0,0.0,-2.4993,-2.523,0.0,-2.6258,0.0,0.0,0.0,0.0,0.0,0.0,0.0,0.0,-2.8369,-2.8618,-2.8668,-2.8906,-2.9027,-2.9037,-2.9321,-2.984,-3.0459,-2.9195,0.0,0.0,0.0,0.0,0.0,0.0,-3.1295,-3.1754,-3.2741,-3.3281,-3.3247,-3.2776,-3.1939,-3.0721,-2.7922,-2.6338,-2.619,-2.4712,-2.3726,-2.3308,-2.2536,0.0,0.0,0.0,0.0,0.0,0.0,0.0,0.0,0.0,0.0,0.0,0.0,0.0,0.0,0.0,0.0,0.0,0.0,0.0,0.0,-2.5466,0.0,0.0,0.0,0.0,0.0,0.0,0.0,0.0,0.0,0.0,-2.5218,-2.5816,-2.6105,-2.5543,0.0,0.0,0.0,0.0,-2.3101,-2.3101,-2.3101,-2.3091,-2.3091,-2.2793,-2.2761,-2.3381,0.0,0.0,-2.3459,-2.3351,-2.3236,-2.3236,-2.3392,-2.3453,-2.3226,-2.3073,-2.3345,-2.4148,-2.3642,-2.3238,-2.3382,-2.3122,-2.3229,-2.4457,0.0,0.0,0.0,0.0,-2.2346,-2.3764,-2.5999,-2.6134,-2.692,-2.8142,-2.8059,0.0,0.0,0.0,0.0,0.0,0.0,-2.8028,-2.8876,-2.87,-2.8974,-2.9669,-2.9423,-2.9511,-2.9905,-3.0334,-3.0674,-3.0916,-3.117,-3.1179,-3.0847,0.0,0.0,0.0,0.0,-3.2133,-3.2305,-3.2948,-3.3281,-3.3281,-3.3132,-3.199,-2.9787,-2.7844,-2.6328,-2.5273,-2.4798,-2.4304,-2.3745,-2.3243,0.0,0.0,0.0,0.0,0.0,0.0,0.0,0.0,0.0,0.0,0.0,0.0,0.0,0.0,0.0,0.0,0.0,0.0,0.0,-2.6221,-2.6846,-2.6872,0.0,0.0,0.0,0.0,0.0,0.0,0.0,0.0,0.0,-2.6082,-2.6438,-2.6668,0.0,0.0,-2.4584,-2.4337,-2.3614,-2.3101,-2.3101,0.0,0.0,0.0,-2.2994,-2.3051,-2.344,-2.3514,-2.366,-2.397,-2.3953,-2.3946,-2.4104,-2.4165,-2.4357,-2.4867,-2.4392,-2.4288,-2.5081,-2.4697,-2.4361,-2.49,-2.455,-2.4293,-2.8587,-2.69,-2.4374,-2.3877,-2.4831,-2.4852,-2.6034,-2.7935,-2.7924,-2.8452,-2.9301,-2.9208,-2.8814,-2.8173,-2.7914,0.0,0.0,0.0,-2.8866,-2.957,-2.929,-2.9505,-3.0042,-2.9789,-2.9815,-3.0156,-3.0467,-3.0706,-3.0905,-3.1739,-3.2085,-3.2036,0.0,0.0,-3.1789,-3.2236,-3.2489,-3.2512,-3.2585,-3.2645,-3.2645,-3.1739,-3.0922,-3.0215,-2.7877,-2.6304,-2.5711,-2.5103,-2.4573,-2.4017,-2.3688,-2.3243,0.0,0.0,0.0,0.0,0.0,0.0,0.0,0.0,0.0,0.0,0.0,-2.1806,0.0,0.0,0.0,0.0,-2.6071,-2.6858,-2.7462,-2.7618,0.0,0.0,0.0,0.0,0.0,0.0,0.0,-2.5877,-2.652,-2.6884,-2.6799,-2.6725,-2.6509,-2.626,-2.5401,-2.4637,-2.4251,0.0,-2.3101,-2.3101,-2.3325,-2.3531,-2.3541,-2.3777,-2.3959,-2.4055,-2.4243,-2.4336,-2.4313,-2.4325,-2.4368,-2.4454,-2.4507,-2.4658,-2.5179,-2.4733,-2.4743,-2.5997,-2.5631,-2.5221,-2.5704,-2.5094,-2.4743,-3.2091,-3.1688,-2.7049,-2.6103,-2.76,-2.7631,-2.8574,-3.0025,-3.0046,-2.9787,-2.9394,-2.9818,-2.9518,-2.8731,-2.8731,0.0,-2.9363,-2.9363,-2.958,-2.9994,-2.9953,-2.9942,-2.9942,-2.9891,-2.988,-2.987,-2.9943,-3.0234,-3.0749,-3.1316,-3.1858,-3.2392,-3.2507,-3.2328,-3.1938,-3.2328,-3.2546,-3.2546,-3.2035,-3.1677,-3.1575,-2.9482,-2.9325,-3.1195,-2.7957,-2.6426,-2.6849,-2.5567,-2.4679,-2.4275,-2.4057,-2.3754,-2.3336,0.0,0.0,0.0,0.0,0.0,0.0,0.0,0.0,0.0,0.0,0.0,0.0,0.0,0.0,0.0,-2.7406,0.0,-2.8474,-2.8065,0.0,0.0,0.0,-2.6946,-2.691,-2.697,-2.698,-2.6942,0.0,0.0,-2.7297,0.0,-2.5972,-2.5221,-2.5147,-2.4849,-2.4028,-2.3535,-2.3198,-2.3247,-2.3772,-2.4207,-2.4172,-2.4641,-2.4977,-2.4869,-2.5064,-2.5008,-2.4712,-2.4609,-2.4588,-2.4673,-2.4611,-2.4631,-2.4611,-2.4705,-2.5104,-2.6621,-2.6218,-2.5663,-2.5746,-2.5105,-2.4743,-3.3058,-3.2892,-3.104,-3.0315,-3.0387,-3.0398,-3.045,-3.0522,-3.0522,-3.0263,-2.9849,-2.9942,-2.987,-2.9673,-2.9673,-2.9725,-2.9829,-2.9829,-2.9891,-2.9973,-2.9632,-2.9466,-2.9446,-2.9114,-2.8938,-2.8938,-2.9352,-2.9803,-3.0361,-3.1257,-3.1833,-3.2191,-3.2601,-3.2841,-3.2937,-3.304,-3.3086,-3.3097,-3.2951,-3.2482,-3.1586,-3.0224,-2.9335,-2.9009,-2.8125,-2.7203,-2.6278,-2.5635,-2.5102,-2.4698,-2.4334,-2.4026,-2.3754,-2.333,0.0,0.0,0.0,0.0,0.0,0.0,0.0,0.0,0.0,-2.5371,-2.6086,0.0,-2.8775,0.0,-2.8726,-2.8811,-2.8534,-2.8402,0.0,0.0,-2.757,-2.7342,-2.6946,-2.7618,-2.785,-2.7059,-2.7651,-2.7586,-2.6367,-2.6475,-2.6165,-2.4816,-2.4624,-2.4686,-2.4741,-2.4384,-2.4111,-2.4102,-2.4235,-2.4359,-2.4434,-2.4631,-2.5021,-2.5083,-2.5164,-2.5214,-2.5302,-2.5337,-2.5361,-2.552,-2.5564,-2.5554,-2.5544,-2.5564,-2.5677,-2.6068,-2.5473,-2.502,-2.5621,-2.5105,-2.4583,-3.3679,-3.3648,-3.3151,-3.2685,-3.2219,-3.164,-3.1226,-3.0998,-3.0988,-3.0843,-3.0605,-3.0605,-3.0501,-3.0305,-3.0294,-3.018,-3.0005,-2.9994,-2.9994,-2.9984,-2.9725,-2.9622,-2.9601,-2.9352,-2.9228,-2.9228,-2.9534,-2.9838,-3.0162,-3.0904,-3.1376,-3.1527,-3.2308,-3.2745,-3.2908,-3.3031,-3.3131,-3.3142,-3.2594,-3.1863,-3.0856,-2.9702,-2.9071,-2.8966,-2.7985,-2.7258,-2.6692,-2.6055,-2.5497,-2.5111,-2.4707,-2.4476,-2.4414,-2.4155,-2.3952,0.0,0.0,0.0,0.0,0.0,0.0,0.0,0.0,0.0,0.0,0.0,-3.0049,0.0,-2.9611,-2.9532,-2.9244,-2.922,-2.9088,-2.8811,-2.8775,-2.8667,-2.8366,-2.8859,-2.8992,-2.8433,-2.8811,-2.8732,-2.7831,-2.7711,-2.727,-2.6113,-2.5675,-2.527,-2.49,-2.491,-2.491,-2.446,-2.4683,-2.5066,-2.5431,-2.5715,-2.5878,-2.5834,-2.5839,-2.5824,-2.5756,-2.5725,-2.577,-2.5885,-2.593,-2.593,-2.593,-2.593,-2.593,-2.5813,-2.5492,-2.5263,-2.5455,-2.5122,-2.4766,-3.4214,-3.4145,-3.4152,-3.3893,-3.3379,-3.2219,-3.1629,-3.1454,-3.1464,-3.1433,-3.1381,-3.1381,-3.1153,-3.0781,-3.077,-3.0553,-3.018,-3.017,-3.0139,-3.0077,-3.0087,-3.0046,-2.9994,-2.9994,-2.9994,-2.9994,-2.9994,-3.0047,-3.0151,-3.0588,-3.0847,-3.0888,-3.175,-3.2269,-3.2269,-3.2443,-3.2566,-3.2667,-3.1659,-3.066,-2.9765,-2.8648,-2.8489,-2.9398,-2.7638,-2.6885,-2.74,-2.6508,-2.5855,-2.5454,-2.5078,-2.4923,-2.5084,-2.4888,-2.493,0.0,-2.5607,0.0,0.0,0.0,0.0,0.0,0.0,0.0,0.0,-3.0313,-3.0759,-3.023,-3.0182,-3.0158,-3.0098,-3.0086,-3.0086,-3.0086,-3.0086,-3.0086,-3.0086,-3.0146,-3.0128,-3.0055,-2.9976,-2.9884,-2.9523,-2.8959,-2.8166,-2.7447,-2.6959,-2.6141,-2.4957,-2.536,-2.5543,-2.4673,-2.5147,-2.5797,-2.6536,-2.6982,-2.7039,-2.6744,-2.6662,-2.6517,-2.6165,-2.6092,-2.6082,-2.6127,-2.6169,-2.6148,-2.6107,-2.6127,-2.6117,-2.6123,-2.6138,-2.5941,-2.5495,-2.535,-2.5137,-3.4691,-3.466,-3.4227,-3.4069,-3.3917,-3.3717,-3.2934,-3.1853,-3.1853,-3.1712,-3.1381,-3.1381,-3.1319,-3.1247,-3.1247,-3.1205,-3.1112,-3.1112,-3.0915,-3.0563,-3.0553,-3.0356,-3.0005,-2.9994,-2.9994,-2.9994,-2.9994,-3.0193,-3.064,-3.0744,-3.0899,-3.1116,-3.1322,-3.1435,-3.1373,0.0,0.0,0.0,-3.0815,-2.9964,-2.8943,-2.7833,-2.7359,-2.7511,-2.6954,0.0,-2.6779,-2.6293,-2.5975,-2.5892,-2.5525,0.0,0.0,0.0,0.0,0.0,0.0,0.0,0.0,0.0,0.0,0.0,-3.0042,-3.044,-3.0536,-3.1156,-3.1332,-3.0826,-3.0766,-3.0585,-3.0134,-3.0086,-3.0086,-3.0086,-3.0098,-3.0086,-3.011,-3.047,-3.0453,-2.9648,-2.9217,-2.8671,-2.7949,-2.6904,-2.634,-2.6353,-2.6707,-2.6628,-2.5623,-2.5803,-2.5881,-2.5536,-2.5748,-2.6194,-2.6794,-2.6938,-2.7098,-2.709,-2.7175,-2.7123,-2.7029,-2.7019,-2.704,-2.7009,-2.705,-2.7019,-2.7019,-2.704,-2.6988,-2.704,-2.7029,-2.6791,-2.5937,-2.5761,-2.573,-3.5086,0.0,-3.4838,-3.461,0.0,-3.4463,-3.3896,-3.3027,-3.2799,-3.2457,-3.2043,-3.2043,-3.1919,-3.1712,-3.1702,-3.1578,-3.1381,-3.1381,-3.1257,-3.1029,-3.1029,-3.0781,-3.0346,-3.0346,-3.0222,-2.9994,-2.9994,-3.0141,-3.0391,-3.0391,-3.0453,-3.0609,-3.0858,-3.1002,-3.1013,-3.0578,-3.0349,-3.0328,-3.0587,-3.0026,-2.8509,-2.7921,-2.7349,-2.6845,0.0,0.0,0.0,0.0,0.0,0.0,0.0,0.0,0.0,0.0,0.0,-2.6584,-2.6604,-2.7336,-2.9075,-2.899,-2.9425,-3.0615,-3.1076,-3.1308,-3.1308,-3.156,-3.1597,-3.1344,-3.1308,-3.1199,-3.0946,-3.091,-3.0855,-3.091,-3.0867,-3.091,-3.0891,-3.068,-3.0381,-2.9859,-2.917,-2.8495,-2.8017,-2.7521,-2.6972,-2.6552,-2.6819,-2.6819,-2.6014,-2.6284,-2.6466,-2.583,-2.6062,-2.639,-2.6651,-2.6986,-2.7129,-2.7262,-2.732,-2.732,-2.732,-2.732,-2.732,-2.732,-2.732,-2.732,-2.732,-2.732,-2.732,-2.732,-2.732,-2.7195,-2.663,-2.6428,-2.619,-3.5428,-3.5428,-3.5428,-3.5211,-3.4879,-3.4879,-3.4569,-3.41,0.0,0.0,0.0,-3.284,-3.2592,-3.2112,-3.2112,-3.1971,-3.1619,-3.1629,-3.1578,-3.1495,-3.1495,-3.1257,-3.0822,-3.0812,-3.0615,-3.0253,-3.0149,-3.0118,-3.0118,-3.0036,-2.9994,-3.0047,-3.0443,-3.0515,-3.0255,-3.0526,-3.0037,-2.8956,-3.0068,-2.9869,-2.8072,-2.7888,-2.745,-2.658,-2.6462,-2.638,-2.6371,-2.6371,-2.6371,-2.6362,-2.6168,-2.5853,-2.5651,-2.5781,-2.621,-2.6831,-2.7267,-2.8244,-3.0055,-3.0162,-3.0608,-3.1613,-3.1705,-3.1705,-3.1705,-3.1705,-3.1705,-3.1705,-3.1705,-3.1705,-3.1705,-3.1705,-3.1705,-3.1705,-3.1705,-3.1649,-3.1415,-3.0722,-3.0135,-2.9897,-2.8993,-2.8448,-2.8344,-2.8132,-2.7898,-2.7152,-2.6829,-2.6686,-2.6004,-2.6322,-2.66,-2.611,-2.6314,-2.6496,-2.6688,-2.6976,-2.732,-2.732,-2.732,-2.732,-2.732,-2.732,-2.732,-2.732,-2.732,-2.732,-2.732,-2.732,-2.732,-2.732,-2.732,-2.732,-2.7289,-2.7009,-2.6635,-3.5428,-3.5428,-3.5428,-3.5387,-3.5335,-3.5324,-3.4848,-3.4132,-3.3989,-3.371,-3.3285,-3.3285,-3.3047,-3.2576,-3.2633,-3.2535,-3.254,-3.254,-3.2323,0.0,-3.1895,-3.1712,-3.1288,-3.1278,-3.1247,-3.1153,-3.0835,-3.0584,-3.0553,-3.0191,-2.9994,-2.9994,-3.0099,-2.9386,-2.8135,-2.9365,-2.8827,-2.6327,-2.8092,-2.8412,-2.7187,-2.6858,-2.6583,-2.6414,-2.5897,-2.5598,-2.5537,-2.5607,-2.5546,-2.5546,-2.5865,-2.5681,-2.5015,-2.5561,-2.622,-2.6946,-2.629,-2.7093,-2.9869,-2.9382,-2.9761,-3.1496,-3.1705,-3.1705,-3.1705,-3.1705,-3.1705,-3.1705,-3.1705,-3.1705,-3.1705,-3.1705,-3.1705,-3.1705,-3.1705,-3.1395,-3.0621,-3.0351,-2.9886,-2.9143,-2.8028,-2.7463,-2.7416,-2.6781,-2.6235,-2.6014,-2.6052,-2.5868,-2.5781,-2.583,-2.6159,-2.6554,-2.6602,-2.6688,-2.6928,-2.7214,-2.7272,-2.732,-2.7309,-2.732,-2.732,-2.732,-2.732,-2.732,-2.732,-2.732,-2.732,-2.732,-2.732,-2.732,-2.732,-2.732,-2.732,-2.7216,-2.7143,-3.5428,-3.5428,-3.5428,-3.5428,-3.5345,-3.4584,-3.3933,-3.3295,-3.2794,-3.2762,-3.3,-3.3027,-3.2913,-3.268,-3.2669,-3.2669,-3.2669,-3.2669,-3.2613,-3.2359,-3.2359,-3.2168,-3.1764,-3.1743,-3.1609,-3.1371,-3.1164,-3.0936,-3.0688,-3.046,-3.0021,-2.9363,-2.928,-2.8963,-2.8422,-2.8804,-2.8271,-2.6718,-2.7824,-2.7877,-2.6836,-2.6615,-2.6412,-2.618,-2.5881,-2.5635,-2.5372,-2.5372,-2.5372,-2.5372,-2.5589,-2.5433,-2.4872,-2.5377,-2.577,-2.5931,-2.5777,-2.6748,-2.9265,-2.9989,-3.0727,-3.1613,-3.1705,-3.1705,-3.1705,-3.1705,-3.1705,-3.1705,-3.1705,-3.1705,-3.1705,-3.1705,-3.1705,-3.1705,-3.1705,-3.1516,-3.1048,-3.0498,-3.0034,-2.9464,-2.8168,-2.7226,-2.7179,-2.6322,-2.5684,-2.5684,-2.5684,-2.5684,-2.5684,-2.5684,-2.5839,-2.6169,-2.6255,-2.64,-2.663,-2.6928,-2.7034,-2.7092,-2.7225,-2.732,-2.732,-2.732,-2.732,-2.732,-2.732,-2.732,-2.732,-2.732,-2.732,-2.732,-2.732,-2.732,-2.732,-2.732,-2.732,-3.5511,-3.5428,-3.5428,-3.5366,-3.5108,-3.3534,-3.2729,-3.2474,-3.1549,-3.1483,-3.2031,-3.2418,-3.259,-3.2669,-3.2669,-3.2612,-3.243,-3.2373,-3.2248,-3.2076,-3.2086,-3.1893,-3.1578,-3.1727,-3.1656,-3.1404,-3.1467,-3.1329,-3.0998,-3.0619,-2.9735,-2.8514,-2.8412,-2.8422,-2.8422,-2.8067,-2.7584,-2.7098,-2.7501,-2.7349,-2.6636,-2.6499,-2.6289,-2.6039,-2.592,-2.5736,-2.539,-2.5372,-2.5372,-2.5372,-2.5372,-2.5197,-2.4854,-2.517,-2.5314,-2.5179,-2.5441,-2.6578,-2.8637,-3.0393,-3.1472,-3.1705,-3.1705,-3.1705,-3.1705,-3.1705,-3.1705,-3.1705,-3.1705,-3.1705,-3.1705,-3.1705,-3.1705,-3.1705,-3.1484,-3.1149,-3.0958,-3.0125,-2.9418,-2.9061,-2.7804,-2.6829,-2.6733,-2.6187,-2.5732,-2.5684,-2.5684,-2.5684,-2.5684,-2.5684,-2.5684,-2.5732,-2.5907,-2.6139,-2.6197,-2.6602,-2.6853,-2.69,-2.7092,-2.7225,-2.7262,-2.7262,-2.7262,-2.7262,-2.732,-2.732,-2.732,-2.732,-2.732,-2.732,-2.732,-2.732,-2.732,-2.732,-2.732,-3.5801,-3.5449,-3.5428,-3.518,-3.4594,-3.2415,-3.1682,-3.185,-3.1046,-3.0439,-3.0352,-3.1476,-3.2246,-3.2643,-3.2669,-3.219,-3.1469,-3.1401,-3.0995,-3.0304,-3.0177,-3.0158,-3.0218,-3.0984,-3.1321,-3.1327,-3.164,-3.1762,-3.1628,-3.0213,-2.8854,-2.7647,-2.7492,-2.7168,-2.6527,-2.6636,-2.6427,-2.5898,-2.6118,-2.64,-2.6564,-2.6269,-2.6048,-2.6012,-2.5672,-2.546,-2.5372,-2.5372,-2.5372,-2.5372,-2.5353,-2.5231,-2.4845,-2.4917,-2.514,-2.5498,-2.5294,-2.6225,-2.8548,-2.9752,-3.0711,-3.1572,-3.1617,-3.1661,-3.1717,-3.1673,-3.1705,-3.1705,-3.1705,-3.1717,-3.1705,-3.1661,-3.1572,-3.1383,-3.0779,-2.9977,-2.9189,-2.8064,-2.7105,-2.6207,-2.6332,-2.5878,-2.6052,-2.5868,-2.5732,-2.5684,-2.5684,-2.5684,-2.5684,-2.5684,-2.5684,-2.5732,-2.5917,-2.6159,-2.6352,-2.6699,-2.6794,-2.6853,-2.69,-2.7034,-2.7119,-2.7119,-2.6986,-2.7262,-2.732,-2.732,-2.732,-2.732,-2.732,-2.732,-2.732,-2.732,-2.732,-2.732,-2.732,-3.6008,-3.5801,-3.5542,-3.4698,-3.3296,-3.1015,-2.9995,-2.9852,-2.8904,-2.8694,-2.9094,-2.9718,-3.034,-3.1073,-3.1594,-3.1353,-3.0529,-3.1053,-3.082,-2.9943,-2.9884,-2.9884,-2.9943,-3.0295,-3.047,-3.0461,-3.0702,-3.0888,-3.0824,-2.9482,-2.8317,-2.7699,-2.7037,-2.6518,-2.6364,-2.6463,-2.6209,-2.5734,-2.5962,-2.6181,-2.6282,-2.6363,-2.6215,-2.6021,-2.5855,-2.5653,-2.5399,-2.5372,-2.5262,-2.5051,-2.5023,-2.4932,-2.4618,-2.478,-2.4937,-2.5078,-2.5391,-2.5994,-2.7029,-2.8254,-2.9489,-3.0711,-3.026,-3.0407,-3.156,-3.1149,-3.1059,-3.1617,-3.1705,-3.1484,-3.0913,-3.0824,-3.0588,-3.0022,-2.9567,-2.9143,-2.8727,-2.8344,-2.7898,-2.7484,-2.6924,-2.6552,-2.6514,-2.6052,-2.5732,-2.5684,-2.5684,-2.5684,-2.5684,-2.5684,-2.5684,-2.5732,-2.583,-2.5868,-2.6024,-2.6255,-2.64,-2.6438,-2.6544,-2.6747,-2.6948,-2.6986,-2.6986,-2.7262,-2.7262,-2.7272,-2.732,-2.732,-2.732,-2.732,-2.732,-2.732,-2.732,-2.732,-2.732,-3.6138,-3.5534,-3.4473,-3.3418,-3.2185,-2.9825,-2.8731,-2.8532,-2.7531,-2.7487,-2.8071,-2.8131,-2.848,-2.9244,-3.0344,-3.0412,-2.9707,-3.0236,-3.006,-2.9185,-2.9126,-2.9116,-2.9116,-2.9412,-2.953,-2.9589,-2.9825,-2.989,-2.9747,-2.8738,-2.78,-2.7253,-2.6351,-2.5988,-2.6008,-2.6045,-2.5889,-2.5624,-2.5844,-2.6017,-2.6127,-2.6409,-2.6444,-2.6214,-2.6186,-2.6048,-2.5729,-2.5754,-2.5509,-2.5185,-2.5005,-2.49,-2.4675,-2.4801,-2.4849,-2.4851,-2.5445,-2.5936,-2.6086,-2.7179,-2.8412,-2.9556,-2.9085,-2.9418,-3.0689,-3.0351,-3.0306,-3.1104,-3.1059,-3.0543,-3.0362,-3.0215,-2.9749,-2.8866,-2.8495,-2.8308,-2.8262,-2.8132,-2.7757,-2.7814,-2.6962,-2.6781,-2.6686,-2.6139,-2.5684,-2.5684,-2.5684,-2.5684,-2.5684,-2.5684,-2.5684,-2.5684,-2.5684,-2.5684,-2.5732,-2.5965,-2.6052,-2.61,-2.6304,-2.6496,-2.6699,-2.6747,-2.6747,-2.688,-2.7023,-2.7081,-2.7034,-2.7081,-2.7272,-2.732,-2.732,-2.732,-2.732,-2.732,-2.732,-3.6326,-3.4379,-3.1685,-3.1141,-3.152,-2.8915,-2.8149,-2.8742,-2.7661,-2.715,-2.728,-2.7194,-2.7194,-2.7444,-2.9135,-2.9412,-2.8659,-2.8746,-2.8328,-2.7427,-2.7384,-2.7254,-2.7254,-2.8131,-2.8531,-2.86,-2.9303,-2.9149,-2.8128,-2.797,-2.708,-2.5639,-2.5505,-2.5259,-2.503,-2.4979,-2.5026,-2.5229,-2.556,-2.5844,-2.6072,-2.6418,-2.6573,-2.6527,-2.6554,-2.6509,-2.6472,-2.6509,-2.6352,-2.5947,-2.5534,-2.5269,-2.5056,-2.4923,-2.4937,-2.5061,-2.5468,-2.5956,-2.645,-2.6884,-2.7636,-2.8577,-2.8588,-2.9096,-3.0034,-2.9326,-2.9246,-3.017,-2.9555,-2.9326,-2.9841,-2.9943,-2.9647,-2.8727,-2.784,-2.7426,-2.7284,-2.6552,-2.5917,-2.5965,-2.5955,-2.5965,-2.583,-2.5732,-2.5684,-2.5684,-2.5684,-2.5684,-2.5684,-2.5684,-2.5684,-2.5684,-2.5684,-2.5684,-2.5732,-2.5868,-2.6004,-2.6052,-2.6052,-2.6197,-2.6304,-2.6352,-2.64,-2.6496,-2.6592,-2.664,-2.664,-2.6794,-2.7081,-2.7225,-2.732,-2.732,-2.7225,-2.7262,-2.7262,-3.4636,-3.3331,-3.1221,-3.0501,-3.0564,-2.8752,-2.803,-2.8026,-2.7651,-2.7415,-2.7372,-2.7176,-2.7201,-2.7459,-2.7876,-2.79,-2.7685,-2.8449,-2.8199,-2.7254,-2.7313,-2.7295,-2.7142,-2.7487,-2.7608,-2.7668,-2.7951,-2.788,-2.7482,-2.7709,-2.7142,-2.5878,-2.548,-2.5189,-2.4889,-2.4821,-2.4868,-2.497,-2.5404,-2.5734,-2.5907,-2.63,-2.6591,-2.6591,-2.6591,-2.6463,-2.6251,-2.6188,-2.5938,-2.5234,-2.5069,-2.4946,-2.479,-2.5017,-2.5043,-2.4928,-2.5129,-2.5415,-2.5617,-2.5744,-2.6428,-2.7537,-2.7115,-2.7531,-2.868,-2.8344,-2.8168,-2.8912,-2.8958,-2.8716,-2.8448,-2.8819,-2.8819,-2.7934,-2.7416,-2.6914,-2.637,-2.5917,-2.5684,-2.5684,-2.5684,-2.5684,-2.5684,-2.5684,-2.5684,-2.5684,-2.5684,-2.5684,-2.5684,-2.5684,-2.5684,-2.5684,-2.5684,-2.5684,-2.5684,-2.5732,-2.582,-2.582,-2.5868,-2.6014,-2.611,-2.6149,-2.6197,-2.6352,-2.64,-2.6496,-2.6544,-2.6784,-2.7023,-2.7167,-2.7214,-2.7119,-2.7081,-2.7071,-2.7034,-3.3308,-3.2431,-3.086,-3.0123,-2.9827,-2.8847,-2.8237,-2.798,-2.7852,-2.7792,-2.7741,-2.7535,-2.7509,-2.7586,-2.7484,-2.7347,-2.7339,-2.8167,-2.8027,-2.7185,-2.745,-2.7415,-2.7124,-2.7081,-2.7081,-2.7081,-2.7081,-2.7081,-2.7116,-2.7447,-2.7123,-2.6114,-2.5737,-2.5369,-2.5035,-2.4889,-2.4821,-2.4932,-2.5357,-2.5679,-2.5798,-2.6309,-2.6591,-2.6591,-2.6591,-2.6389,-2.6039,-2.6012,-2.5644,-2.4913,-2.4836,-2.4684,-2.4594,-2.4932,-2.5062,-2.4804,-2.491,-2.5044,-2.5044,-2.5034,-2.5486,-2.6454,-2.6042,-2.637,-2.7945,-2.7295,-2.7295,-2.7898,-2.7851,-2.7474,-2.7474,-2.784,-2.7793,-2.6924,-2.6733,-2.6466,-2.582,-2.5732,-2.5684,-2.5684,-2.5684,-2.5684,-2.5684,-2.5684,-2.5684,-2.5684,-2.5684,-2.5684,-2.5684,-2.5684,-2.5684,-2.5684,-2.5684,-2.5684,-2.5684,-2.5732,-2.5732,-2.5732,-2.5781,-2.583,-2.5917,-2.5955,-2.6052,-2.6207,-2.6314,-2.641,-2.6592,-2.6784,-2.6928,-2.7071,-2.6976,-2.6832,-2.6794,-2.6794,-2.6794,-3.2471,-3.1837,-3.0496,-2.9731,-2.9361,-2.8987,-2.8768,-2.864,-2.8306,-2.8152,-2.8177,-2.8126,-2.7886,-2.7783,-2.7963,-2.7938,-2.7664,-2.7822,-2.7641,-2.7193,-2.7492,-2.7441,-2.709,-2.7081,-2.7081,-2.7081,-2.7081,-2.7081,-2.7133,-2.7142,-2.6936,-2.6465,-2.6071,-2.5677,-2.5409,-2.5009,-2.4821,-2.4923,-2.5412,-2.5679,-2.5789,-2.6309,-2.6591,-2.6591,-2.6591,-2.6389,-2.603,-2.5993,-2.5607,-2.4895,-2.4757,-2.4725,-2.4545,-2.4735,-2.4873,-2.4845,-2.4903,-2.4913,-2.4913,-2.4884,-2.507,-2.5421,-2.5333,-2.5849,-2.6723,-2.637,-2.6187,-2.6867,-2.6514,-2.6139,-2.6914,-2.7152,-2.6914,-2.5965,-2.6052,-2.6014,-2.5781,-2.5684,-2.5684,-2.5684,-2.5684,-2.5684,-2.5684,-2.5684,-2.5684,-2.5684,-2.5684,-2.5684,-2.5684,-2.5684,-2.5684,-2.5684,-2.5684,-2.5684,-2.5684,-2.5684,-2.5684,-2.5684,-2.5732,-2.5732,-2.5781,-2.582,-2.582,-2.5927,-2.6072,-2.6169,-2.6304,-2.6486,-2.6544,-2.664,-2.6544,-2.6592,-2.6544,-2.6496,-2.6592,-3.1252,-3.087,-3.0187,-2.9667,-2.9316,-2.9188,-2.9008,-2.8751,-2.8366,-2.8349,-2.8468,-2.8023,-2.8006,-2.8306,-2.8289,-2.8126,-2.8032,-2.8254,-2.8066,-2.7586,-2.7826,-2.7664,-2.7167,-2.7081,-2.7081,-2.7081,-2.7081,-2.7081,-2.709,-2.709,-2.6876,-2.6482,-2.6122,-2.5746,-2.5386,-2.5018,-2.4868,-2.5072,-2.5459,-2.5798,-2.5962,-2.6418,-2.6591,-2.6591,-2.6582,-2.6443,-2.603,-2.5754,-2.5307,-2.4803,-2.456,-2.4339,-2.4378,-2.4489,-2.4637,-2.4637,-2.4784,-2.4892,-2.4892,-2.4892,-2.4932,-2.4981,-2.5039,-2.5274,-2.58,-2.5664,-2.5674,-2.6139,-2.5868,-2.5917,-2.61,-2.6139,-2.6274,-2.6686,-2.6733,-2.6322,-2.583,-2.5684,-2.5684,-2.5684,-2.5684,-2.5684,-2.5684,-2.5684,-2.5684,-2.5684,-2.5684,-2.5684,-2.5684,-2.5684,-2.5684,-2.5684,-2.5684,-2.5684,-2.5684,-2.5684,-2.5684,-2.5684,-2.5684,-2.5684,-2.5684,-2.5684,-2.5684,-2.5732,-2.583,-2.5927,-2.6062,-2.6159,-2.6255,-2.6352,-2.6448,-2.64,-2.6255,-2.6255,-2.6304,-3.0575,-3.0215,-2.9992,-2.9667,-2.9325,-2.9307,-2.9188,-2.8965,-2.8717,-2.8751,-2.8837,-2.8477,-2.8417,-2.8717,-2.8648,-2.8528,-2.8451,-2.8682,-2.8443,-2.792,-2.8049,-2.7783,-2.7158,-2.7081,-2.7081,-2.7107,-2.721,-2.727,-2.727,-2.7261,-2.7141,-2.6859,-2.6268,-2.5831,-2.554,-2.5078,-2.4915,-2.5229,-2.5514,-2.5844,-2.6136,-2.6409,-2.6591,-2.6591,-2.6591,-2.6454,-2.6188,-2.5855,-2.5387,-2.4831,-2.4431,-2.422,-2.4202,-2.4291,-2.439,-2.439,-2.4548,-2.4637,-2.4637,-2.4597,-2.4686,-2.4735,-2.4735,-2.4883,-2.5128,-2.5235,-2.5391,-2.5538,-2.5635,-2.5684,-2.5732,-2.5684,-2.6004,-2.6552,-2.6552,-2.637,-2.5771,-2.5684,-2.5684,-2.5684,-2.5684,-2.5684,-2.5684,-2.5684,-2.5684,-2.5684,-2.5684,-2.5684,-2.5684,-2.5684,-2.5684,-2.5684,-2.5684,-2.5684,-2.5684,-2.5684,-2.5684,-2.5684,-2.5684,-2.5684,-2.5684,-2.5684,-2.5684,-2.5732,-2.5781,-2.5781,-2.5927,-2.5975,-2.6072,-2.6217,-2.6265,-2.611,-2.5965,-2.5965,-2.6014,-3.0224,-2.9915,-2.9907,-2.9667,-2.9325,-2.9307,-2.929,-2.9282,-2.9162,-2.9162,-2.9239,-2.9051,-2.8991,-2.8914,-2.9085,-2.9042,-2.8854,-2.8759,-2.8563,-2.822,-2.8109,-2.7723,-2.715,-2.7133,-2.7176,-2.7201,-2.7484,-2.7629,-2.7646,-2.7569,-2.7595,-2.7415,-2.6473,-2.5934,-2.5746,-2.5189,-2.497,-2.5284,-2.5569,-2.5907,-2.6136,-2.6528,-2.6609,-2.66,-2.6637,-2.6628,-2.6481,-2.605,-2.5561,-2.484,-2.444,-2.4211,-2.4211,-2.4211,-2.4202,-2.4202,-2.4202,-2.4251,-2.4211,-2.4251,-2.4341,-2.4489,-2.4489,-2.4578,-2.4833,-2.5039,-2.5235,-2.5342,-2.5538,-2.5684,-2.5684,-2.5684,-2.5781,-2.5732,-2.5868,-2.5781,-2.5732,-2.5684,-2.5684,-2.5684,-2.5684,-2.5684,-2.5684,-2.5684,-2.5684,-2.5684,-2.5684,-2.5684,-2.5684,-2.5684,-2.5684,-2.5684,-2.5684,-2.5684,-2.5684,-2.5684,-2.5684,-2.5684,-2.5684,-2.5684,-2.5684,-2.5684,-2.5684,-2.5732,-2.5742,-2.5742,-2.5742,-2.583,-2.5878,-2.5878,-2.583,-2.5732,-2.5732,-2.5771,-2.582,-3.0224,-2.9915,-2.9907,-2.9676,-2.9333,-2.9307,-2.9307,-2.923,-2.8725,-2.8871,-2.9102,-2.8717,-2.8802,-2.9162,-2.9256,-2.9248,-2.9111,-2.8879,-2.8571,-2.8194,-2.7878,-2.7535,-2.7218,-2.7347,-2.7467,-2.7518,-2.7843,-2.804,-2.8015,-2.7792,-2.7646,-2.7561,-2.6483,-2.5951,-2.5823,-2.5358,-2.5264,-2.5569,-2.5852,-2.6154,-2.6482,-2.682,-2.6866,-2.6628,-2.6857,-2.6839,-2.6554,-2.5894,-2.5368,-2.4821,-2.4381,-2.4211,-2.4211,-2.4211,-2.4211,-2.4211,-2.4211,-2.4211,-2.4211,-2.4211,-2.4202,-2.4242,-2.4291,-2.4399,-2.4587,-2.4686,-2.4892,-2.5186,-2.5382,-2.5489,-2.5635,-2.5684,-2.5684,-2.5684,-2.5684,-2.5684,-2.5684,-2.5684,-2.5684,-2.5684,-2.5684,-2.5684,-2.5684,-2.5684,-2.5684,-2.5684,-2.5684,-2.5684,-2.5684,-2.5684,-2.5684,-2.5684,-2.5684,-2.5684,-2.5684,-2.5684,-2.5684,-2.5684,-2.5684,-2.5684,-2.5684,-2.5684,-2.5684,-2.5684,-2.5684,-2.5684,-2.5684,-2.5732,-2.5684,-2.5684,-2.5684,-2.5684,-2.5684,-2.5732,-2.5732,-2.9838,-2.965,-2.965,-2.9521,-2.9316,-2.9307,-2.9222,-2.9059,-2.8828,-2.8785,-2.8991,-2.8828,-2.8896,-2.929,-2.9307,-2.9307,-2.9248,-2.8768,-2.8417,-2.8177,-2.7801,-2.7509,-2.739,-2.7544,-2.7689,-2.7895,-2.8254,-2.8417,-2.8408,-2.8203,-2.8032,-2.7689,-2.673,-2.6064,-2.59,-2.5661,-2.564,-2.5963,-2.6339,-2.668,-2.6875,-2.705,-2.6921,-2.6701,-2.683,-2.6793,-2.6518,-2.6012,-2.5381,-2.49,-2.445,-2.4211,-2.4211,-2.4211,-2.4211,-2.4211,-2.4211,-2.4211,-2.4211,-2.4211,-2.4211,-2.4202,-2.4211,-2.4251,-2.439,-2.444,-2.4686,-2.4883,-2.5039,-2.5284,-2.5489,-2.5635,-2.5684,-2.5684,-2.5684,-2.5684,-2.5684,-2.5684,-2.5684,-2.5684,-2.5684,-2.5684,-2.5684,-2.5684,-2.5684,-2.5684,-2.5684,-2.5684,-2.5684,-2.5684,-2.5684,-2.5684,-2.5684,-2.5684,-2.5684,-2.5684,-2.5684,-2.5684,-2.5684,-2.5684,-2.5684,-2.5684,-2.5684,-2.5684,-2.5684,-2.5684,-2.5684,-2.5684,-2.5684,-2.5684,-2.5684,-2.5684,-2.5684,-2.5684,-2.5684,-2.9151,-2.9125,-2.9233,-2.9299,-2.9256,-2.929,-2.9128,-2.8896,-2.9042,-2.9016,-2.8896,-2.9111,-2.917,-2.9307,-2.9307,-2.9307,-2.9265,-2.858,-2.8186,-2.7955,-2.7732,-2.7604,-2.7706,-2.7818,-2.8006,-2.828,-2.8648,-2.8802,-2.8794,-2.8768,-2.8528,-2.7955,-2.7004,-2.6362,-2.6069,-2.5934,-2.6026,-2.6296,-2.6769,-2.7015,-2.7039,-2.7141,-2.6967,-2.6664,-2.6609,-2.6646,-2.6499,-2.6186,-2.5663,-2.4927,-2.4496,-2.4303,-2.4248,-2.4211,-2.4211,-2.4211,-2.4211,-2.4211,-2.4211,-2.4211,-2.4211,-2.4211,-2.4211,-2.4211,-2.4251,-2.4341,-2.4517,-2.4718,-2.4773,-2.499,-2.5342,-2.5538,-2.5684,-2.5684,-2.5684,-2.5684,-2.5684,-2.5684,-2.5684,-2.5684,-2.5684,-2.5684,-2.5684,-2.5684,-2.5684,-2.5684,-2.5684,-2.5684,-2.5684,-2.5684,-2.5684,-2.5684,-2.5684,-2.5684,-2.5684,-2.5684,-2.5684,-2.5684,-2.5684,-2.5684,-2.5684,-2.5684,-2.5684,-2.5684,-2.5684,-2.5684,-2.5684,-2.5684,-2.5684,-2.5684,-2.5684,-2.5684,-2.5684,-2.5684,-2.5684,-2.8352,-2.8102,-2.8918,-2.9145,-2.8965,-2.9179,-2.9102,-2.8785,-2.8854,-2.8862,-2.8811,-2.8871,-2.9068,-2.9307,-2.9307,-2.9307,-2.9213,-2.8528,-2.7912,-2.7355,-2.7569,-2.7792,-2.8075,-2.834,-2.8554,-2.8734,-2.9025,-2.9179,-2.9136,-2.8905,-2.858,-2.8083,-2.7184,-2.6456,-2.6352,-2.6059,-2.6044,-2.6333,-2.6718,-2.6884,-2.6962,-2.7057,-2.6985,-2.6637,-2.6591,-2.6591,-2.6563,-2.6232,-2.5782,-2.5332,-2.4886,-2.4615,-2.4293,-2.4211,-2.4211,-2.4211,-2.4211,-2.4211,-2.4211,-2.4211,-2.4211,-2.4211,-2.4211,-2.4211,-2.4211,-2.427,-2.4507,-2.4796,-2.4734,-2.4888,-2.5283,-2.5557,-2.5703,-2.5703,-2.5684,-2.5684,-2.5684,-2.5684,-2.5684,-2.5684,-2.5684,-2.5684,-2.5684,-2.5684,-2.5684,-2.5684,-2.5684,-2.5684,-2.5684,-2.5684,-2.5684,-2.5684,-2.5684,-2.5684,-2.5684,-2.5684,-2.5684,-2.5684,-2.5684,-2.5684,-2.5684,-2.5684,-2.5684,-2.5684,-2.5684,-2.5684,-2.5684,-2.5684,-2.5684,-2.5684,-2.5684,-2.5684,-2.5684,-2.5684,-2.5684,-2.7328,-2.7108,-2.8175,-2.8485,-2.8424,-2.8844,-2.8854,-2.8597,-2.8708,-2.8674,-2.8622,-2.8837,-2.9136,-2.9307,-2.9307,-2.9307,-2.9136,-2.8537,-2.7886,-2.7527,-2.7715,-2.81,-2.8468,-2.8819,-2.9025,-2.9051,-2.9196,-2.9299,-2.9248,-2.9093,-2.8751,-2.8186,-2.7372,-2.6842,-2.6593,-2.6362,-2.651,-2.6705,-2.692,-2.7077,-2.7019,-2.6953,-2.6865,-2.6664,-2.6591,-2.6591,-2.6554,-2.6453,-2.5949,-2.558,-2.5387,-2.5001,-2.4349,-2.4211,-2.4211,-2.4211,-2.4211,-2.4211,-2.4211,-2.4211,-2.4211,-2.4229,-2.4211,-2.4211,-2.4275,-2.4367,-2.4578,-2.4905,-2.4974,-2.5079,-2.5362,-2.5789,-2.5927,-2.5713,-2.5684,-2.5684,-2.5684,-2.5684,-2.5684,-2.5684,-2.5684,-2.5684,-2.5684,-2.5684,-2.5684,-2.5684,-2.5684,-2.5684,-2.5684,-2.5684,-2.5684,-2.5684,-2.5684,-2.5684,-2.5684,-2.5684,-2.5684,-2.5684,-2.5684,-2.5684,-2.5684,-2.5684,-2.5684,-2.5684,-2.5684,-2.5684,-2.5684,-2.5684,-2.5684,-2.5684,-2.5684,-2.5684,-2.5684,-2.5684,-2.5684,-2.6462,-2.6304,-2.7432,-2.7985,-2.805,-2.8583,-2.858,-2.8289,-2.8614,-2.858,-2.8391,-2.8982,-2.9273,-2.9307,-2.9307,-2.9273,-2.8956,-2.8554,-2.7938,-2.7646,-2.7946,-2.8331,-2.8725,-2.9059,-2.9256,-2.9307,-2.9307,-2.9307,-2.9307,-2.9248,-2.8862,-2.8237,-2.7792,-2.7218,-2.6773,-2.6667,-2.6698,-2.6809,-2.6883,-2.6978,-2.6948,-2.6711,-2.6581,-2.661,-2.6591,-2.6655,-2.671,-2.6637,-2.6316,-2.5617,-2.5892,-2.5405,-2.4661,-2.4376,-2.4395,-2.4422,-2.4496,-2.4523,-2.4551,-2.4486,-2.4468,-2.4395,-2.4422,-2.4422,-2.4523,-2.4744,-2.4964,-2.519,-2.5404,-2.5708,-2.5708,-2.6039,-2.6122,-2.5937,-2.5762,-2.5693,-2.5684,-2.5684,-2.5684,-2.5684,-2.5684,-2.5684,-2.5684,-2.5684,-2.5684,-2.5684,-2.5684,-2.5684,-2.5684,-2.5684,-2.5684,-2.5684,-2.5684,-2.5684,-2.5684,-2.5684,-2.5684,-2.5684,-2.5684,-2.5684,-2.5684,-2.5684,-2.5684,-2.5684,-2.5684,-2.5684,-2.5684,-2.5684,-2.5684,-2.5684,-2.5684,-2.5684,-2.5684,-2.5684,-2.5684,-2.6389,-2.6288,-2.7956,-2.8648,-2.8648,-2.8777,-2.8545,-2.8297,-2.858,-2.8554,-2.8323,-2.8965,-2.9282,-2.9307,-2.9307,-2.8982,-2.8545,-2.8237,-2.8006,-2.7758,-2.8032,-2.8408,-2.8845,-2.9153,-2.9299,-2.9307,-2.9307,-2.9307,-2.9307,-2.9265,-2.8896,-2.8263,-2.7835,-2.7381,-2.6859,-2.6498,-2.6368,-2.647,-2.6365,-2.6189,-2.6266,-2.6339,-2.6427,-2.66,-2.6628,-2.6784,-2.7004,-2.7031,-2.6756,-2.6058,-2.6324,-2.5837,-2.5166,-2.5084,-2.5124,-2.5111,-2.5102,-2.5056,-2.5084,-2.5148,-2.5194,-2.5221,-2.5139,-2.5157,-2.5133,-2.5225,-2.5399,-2.5823,-2.6169,-2.6489,-2.6423,-2.6439,-2.6356,-2.6211,-2.5898,-2.5693,-2.5684,-2.5684,-2.5684,-2.5684,-2.5684,-2.5684,-2.5684,-2.5684,-2.5684,-2.5684,-2.5684,-2.5684,-2.5684,-2.5684,-2.5635,-2.5684,-2.5684,-2.5684,-2.5684,-2.5684,-2.5684,-2.5684,-2.5684,-2.5684,-2.5684,-2.5684,-2.5684,-2.5684,-2.5684,-2.5684,-2.5684,-2.5684,-2.5684,-2.5684,-2.5684,-2.5684,-2.5684,-2.5684,-2.5684,-2.5355,-2.554,-2.6905,-2.7819,-2.8258,-2.8426,-2.8374,-2.8203,-2.8186,-2.8186,-2.8357,-2.8777,-2.9153,-2.9265,-2.9307,-2.8888,-2.8366,-2.8194,-2.8075,-2.798,-2.8126,-2.852,-2.8974,-2.9248,-2.929,-2.9307,-2.9307,-2.9307,-2.9307,-2.9307,-2.8879,-2.8323,-2.798,-2.7544,-2.6884,-2.6448,-2.6199,-2.6172,-2.5841,-2.5757,-2.6021,-2.6242,-2.6446,-2.6573,-2.6802,-2.6985,-2.7141,-2.7473,-2.7252,-2.682,-2.6784,-2.6426,-2.6013,-2.5793,-2.5793,-2.5491,-2.5399,-2.539,-2.5381,-2.5372,-2.5396,-2.5353,-2.539,-2.5372,-2.5436,-2.5607,-2.5901,-2.6312,-2.6745,-2.6967,-2.6707,-2.6698,-2.66,-2.6357,-2.6006,-2.5723,-2.5684,-2.5684,-2.5684,-2.5684,-2.5684,-2.5684,-2.5684,-2.5684,-2.5684,-2.5684,-2.5684,-2.5684,-2.5684,-2.5586,-2.5489,-2.5489,-2.544,-2.543,-2.5479,-2.5479,-2.5538,-2.5586,-2.5586,-2.5586,-2.5586,-2.5528,-2.5635,-2.5684,-2.5684,-2.5635,-2.5684,-2.5684,-2.5684,-2.5684,-2.5684,-2.5684,-2.5684,-2.5684,-2.5684,-2.446,-2.4876,-2.5969,-2.693,-2.7748,-2.8095,-2.8203,-2.8117,-2.7792,-2.786,-2.822,-2.8614,-2.8999,-2.9239,-2.923,-2.8948,-2.8331,-2.8331,-2.8323,-2.8323,-2.8349,-2.87,-2.9136,-2.9307,-2.9307,-2.9307,-2.9307,-2.9307,-2.929,-2.9196,-2.8794,-2.828,-2.8092,-2.7518,-2.667,-2.6242,-2.6105,-2.5823,-2.5463,-2.5622,-2.6175,-2.6489,-2.6701,-2.683,-2.7141,-2.7399,-2.7526,-2.7746,-2.773,-2.7436,-2.7233,-2.7059,-2.6674,-2.6582,-2.6279,-2.5748,-2.5619,-2.561,-2.5637,-2.5665,-2.5738,-2.5757,-2.5718,-2.5637,-2.5702,-2.603,-2.6269,-2.6672,-2.7079,-2.7343,-2.7141,-2.6995,-2.6853,-2.6543,-2.6103,-2.5684,-2.5684,-2.5684,-2.5684,-2.5684,-2.5684,-2.5684,-2.5684,-2.5684,-2.5684,-2.5635,-2.5635,-2.5538,-2.5489,-2.5294,-2.5235,-2.5186,-2.5137,-2.5128,-2.5128,-2.5226,-2.5235,-2.5333,-2.5333,-2.5333,-2.5333,-2.5333,-2.543,-2.5489,-2.5538,-2.5538,-2.5635,-2.5684,-2.5684,-2.5684,-2.5684,-2.5684,-2.5684,-2.5684,-2.5684,-2.4761,-2.5239,-2.6559,-2.7371,-2.7837,-2.804,-2.8194,-2.8143,-2.7758,-2.7835,-2.8169,-2.8588,-2.8948,-2.9239,-2.9307,-2.9068,-2.8785,-2.8657,-2.864,-2.8631,-2.8657,-2.8871,-2.9256,-2.9307,-2.9307,-2.9307,-2.9307,-2.9307,-2.9213,-2.8991,-2.8657,-2.8186,-2.7578,-2.6944,-2.6448,-2.5917,-2.5546,-2.5386,-2.5086,-2.5332,-2.6137,-2.652,-2.6962,-2.7377,-2.7616,-2.7772,-2.7952,-2.8107,-2.8074,-2.7801,-2.7691,-2.7315,-2.6756,-2.6591,-2.6573,-2.6472,-2.6444,-2.6435,-2.6362,-2.6307,-2.6289,-2.627,-2.6388,-2.6417,-2.6353,-2.6353,-2.658,-2.6907,-2.726,-2.7457,-2.7443,-2.7243,-2.7039,-2.667,-2.6191,-2.5801,-2.5684,-2.5684,-2.5684,-2.5684,-2.5684,-2.5684,-2.5635,-2.5684,-2.5684,-2.5586,-2.5538,-2.544,-2.5294,-2.5088,-2.4892,-2.4843,-2.4843,-2.4833,-2.4873,-2.4932,-2.503,-2.5079,-2.5137,-2.5137,-2.5137,-2.5137,-2.5137,-2.5235,-2.5294,-2.5391,-2.543,-2.5528,-2.5635,-2.5684,-2.5635,-2.5684,-2.5684,-2.5684,-2.5684,-2.4317,-2.5229,-2.5815,-2.6842,-2.7981,-2.7741,-2.7807,-2.8003,-2.7569,-2.7518,-2.7886,-2.8271,-2.8751,-2.9213,-2.9307,-2.9111,-2.8845,-2.8794,-2.8785,-2.8794,-2.8819,-2.8974,-2.923,-2.9307,-2.9307,-2.9307,-2.9273,-2.9153,-2.9025,-2.8837,-2.858,-2.8117,-2.7432,-2.6773,-2.6234,-2.5643,-2.5292,-2.5143,-2.5082,-2.5336,-2.5933,-2.6356,-2.6694,-2.7242,-2.7467,-2.7692,-2.7863,-2.8097,-2.8174,-2.802,-2.7824,-2.7475,-2.7159,-2.6875,-2.6582,-2.6582,-2.6573,-2.6564,-2.6564,-2.6591,-2.6591,-2.6591,-2.6591,-2.6554,-2.6582,-2.6646,-2.6646,-2.6745,-2.7161,-2.7431,-2.7494,-2.723,-2.7065,-2.6777,-2.624,-2.5937,-2.5684,-2.5684,-2.5684,-2.5684,-2.5684,-2.5635,-2.5586,-2.5586,-2.5538,-2.543,-2.5333,-2.5186,-2.5039,-2.4833,-2.4646,-2.4449,-2.4498,-2.4489,-2.4578,-2.4677,-2.4784,-2.4883,-2.4941,-2.4941,-2.4892,-2.4892,-2.4892,-2.4883,-2.4883,-2.503,-2.5235,-2.5382,-2.5479,-2.5528,-2.5586,-2.5586,-2.5635,-2.5684,-2.5684,-2.3758,-2.4785,-2.5069,-2.6121,-2.7466,-2.7195,-2.7427,-2.7786,-2.7345,-2.7287,-2.7672,-2.8134,-2.8734,-2.9179,-2.929,-2.917,-2.8939,-2.8914,-2.8914,-2.8914,-2.8939,-2.9076,-2.9248,-2.9307,-2.9307,-2.9282,-2.8991,-2.8922,-2.8759,-2.846,-2.8126,-2.7997,-2.709,-2.6525,-2.5977,-2.5463,-2.5069,-2.4889,-2.5098,-2.5383,-2.5874,-2.6293,-2.6654,-2.7,-2.7346,-2.7526,-2.7579,-2.7825,-2.8164,-2.8286,-2.7723,-2.7452,-2.7516,-2.7004,-2.6628,-2.6591,-2.6591,-2.6591,-2.6591,-2.6591,-2.6591,-2.6591,-2.6591,-2.6591,-2.6591,-2.6591,-2.6646,-2.6646,-2.7008,-2.7269,-2.7315,-2.7093,-2.6975,-2.6688,-2.621,-2.5918,-2.5684,-2.5684,-2.5684,-2.5684,-2.5635,-2.5538,-2.5489,-2.544,-2.5382,-2.5235,-2.5137,-2.499,-2.4784,-2.4538,-2.444,-2.4301,-2.4301,-2.435,-2.439,-2.4489,-2.4587,-2.4637,-2.4745,-2.4745,-2.4646,-2.4597,-2.4587,-2.4538,-2.4587,-2.4784,-2.503,-2.5186,-2.5333,-2.5333,-2.5382,-2.5489,-2.5538,-2.5635,-2.5684,-2.331,-2.3775,-2.477,-2.5275,-2.561,-2.668,-2.7101,-2.7305,-2.7144,-2.7234,-2.7732,-2.8349,-2.8862,-2.923,-2.9307,-2.9282,-2.9248,-2.9273,-2.923,-2.923,-2.9273,-2.923,-2.9265,-2.9248,-2.9196,-2.9102,-2.8742,-2.8588,-2.846,-2.7826,-2.7621,-2.7458,-2.6662,-2.6174,-2.5729,-2.5266,-2.4958,-2.4821,-2.5026,-2.5418,-2.5905,-2.6399,-2.6916,-2.7314,-2.7677,-2.7975,-2.7975,-2.7942,-2.8017,-2.8307,-2.7683,-2.732,-2.7366,-2.6921,-2.6564,-2.6527,-2.6527,-2.6527,-2.6591,-2.6591,-2.6591,-2.6591,-2.6591,-2.6591,-2.6591,-2.6591,-2.6591,-2.6636,-2.6954,-2.7161,-2.7141,-2.7022,-2.6833,-2.6616,-2.6248,-2.5859,-2.5684,-2.5684,-2.5684,-2.5645,-2.5596,-2.544,-2.5294,-2.5186,-2.5186,-2.503,-2.4794,-2.4637,-2.4498,-2.435,-2.4301,-2.4211,-2.4211,-2.4202,-2.4202,-2.4301,-2.4399,-2.4399,-2.4449,-2.4399,-2.4301,-2.4301,-2.4341,-2.439,-2.4489,-2.4637,-2.4833,-2.4932,-2.503,-2.5079,-2.5137,-2.5245,-2.5391,-2.5489,-2.5635,-2.3179,-2.3388,-2.3966,-2.4709,-2.544,-2.5554,-2.6136,-2.6906,-2.6652,-2.7108,-2.7972,-2.8306,-2.8751,-2.917,-2.9307,-2.9307,-2.9307,-2.9307,-2.9282,-2.9213,-2.9128,-2.9136,-2.9102,-2.8871,-2.8597,-2.8571,-2.828,-2.7912,-2.7612,-2.7347,-2.7133,-2.6807,-2.6225,-2.5866,-2.548,-2.5129,-2.4889,-2.4821,-2.4928,-2.5255,-2.5823,-2.6088,-2.6577,-2.7244,-2.7357,-2.753,-2.7633,-2.7711,-2.7758,-2.778,-2.7499,-2.7224,-2.6956,-2.6526,-2.6345,-2.63,-2.6309,-2.6418,-2.6527,-2.6591,-2.6591,-2.6591,-2.6591,-2.6591,-2.6591,-2.6591,-2.6591,-2.6691,-2.6845,-2.7053,-2.7049,-2.6817,-2.6605,-2.6524,-2.6266,-2.581,-2.5635,-2.5635,-2.5586,-2.5489,-2.5391,-2.5284,-2.5088,-2.4883,-2.4883,-2.4833,-2.4538,-2.4301,-2.4251,-2.4211,-2.4211,-2.4211,-2.4211,-2.4211,-2.4211,-2.4211,-2.4211,-2.4211,-2.4211,-2.4211,-2.4211,-2.4211,-2.4251,-2.4291,-2.4341,-2.4449,-2.4548,-2.4695,-2.4784,-2.4833,-2.4883,-2.499,-2.5137,-2.5391,-2.5489,-2.3106,-2.3135,-2.3354,-2.4013,-2.4875,-2.4682,-2.5249,-2.6166,-2.5977,-2.6612,-2.787,-2.8188,-2.8708,-2.9162,-2.917,-2.9136,-2.9076,-2.8999,-2.8965,-2.8854,-2.8742,-2.8777,-2.8674,-2.8434,-2.8066,-2.798,-2.7715,-2.7364,-2.7218,-2.7133,-2.6773,-2.6345,-2.596,-2.5617,-2.5386,-2.5026,-2.483,-2.4821,-2.4881,-2.5018,-2.5549,-2.572,-2.5994,-2.6661,-2.6824,-2.7142,-2.7297,-2.7392,-2.7398,-2.7302,-2.7129,-2.6795,-2.6403,-2.6111,-2.6007,-2.6017,-2.6072,-2.619,-2.6418,-2.6582,-2.6591,-2.6591,-2.6591,-2.6591,-2.6591,-2.6591,-2.6591,-2.6591,-2.6791,-2.689,-2.6888,-2.6607,-2.6496,-2.6397,-2.5904,-2.5479,-2.5489,-2.5489,-2.544,-2.5342,-2.5186,-2.4981,-2.4932,-2.4735,-2.4637,-2.4587,-2.4449,-2.4251,-2.4251,-2.4211,-2.4211,-2.4211,-2.4211,-2.4211,-2.4211,-2.4211,-2.4211,-2.4211,-2.4211,-2.4211,-2.4211,-2.4211,-2.4211,-2.4251,-2.4251,-2.4211,-2.4152,-2.4093,-2.4291,-2.4587,-2.4695,-2.4843,-2.499,-2.5235,-2.5284,-2.3106,-2.3106,-2.3128,-2.3332,-2.3861,-2.431,-2.4698,-2.5012,-2.5249,-2.6002,-2.7342,-2.8179,-2.8849,-2.9114,-2.8951,-2.8888,-2.8794,-2.8511,-2.8349,-2.8357,-2.828,-2.8246,-2.8109,-2.7878,-2.7544,-2.7424,-2.7141,-2.6936,-2.7004,-2.661,-2.6149,-2.5867,-2.5634,-2.5352,-2.5374,-2.5001,-2.483,-2.4821,-2.4821,-2.4907,-2.5086,-2.536,-2.572,-2.6182,-2.6482,-2.679,-2.7177,-2.7297,-2.7201,-2.6994,-2.6804,-2.6465,-2.6072,-2.581,-2.5697,-2.5734,-2.5907,-2.6017,-2.6127,-2.6418,-2.6527,-2.6582,-2.6591,-2.6591,-2.6591,-2.6591,-2.6591,-2.6591,-2.6636,-2.6791,-2.663,-2.6371,-2.6371,-2.6126,-2.5616,-2.5284,-2.5284,-2.5284,-2.5235,-2.5137,-2.4833,-2.4578,-2.4686,-2.4686,-2.444,-2.435,-2.4251,-2.4211,-2.4211,-2.4211,-2.4211,-2.4211,-2.4211,-2.4211,-2.4211,-2.4211,-2.4211,-2.4211,-2.4211,-2.4211,-2.4211,-2.4211,-2.4211,-2.4211,-2.4211,-2.4211,-2.3805,-2.3438,-2.3895,-2.4399,-2.4646,-2.4794,-2.4941,-2.502,-2.4992,-2.3106,-2.3106,-2.3106,-2.3296,-2.3608,-2.3614,-2.4071,-2.495,-2.5556,-2.6168,-2.6874,-2.7749,-2.8315,-2.8515,-2.8753,-2.8742,-2.8674,-2.8391,-2.8194,-2.8143,-2.7929,-2.8032,-2.7869,-2.7381,-2.7039,-2.7056,-2.6739,-2.6525,-2.6662,-2.6311,-2.6131,-2.5833,-2.5343,-2.5026,-2.4975,-2.4847,-2.483,-2.4821,-2.4847,-2.4932,-2.5155,-2.5318,-2.5626,-2.6191,-2.6379,-2.6696,-2.722,-2.7237,-2.7029,-2.672,-2.6464,-2.6189,-2.566,-2.5264,-2.5412,-2.5395,-2.5505,-2.5679,-2.5962,-2.6245,-2.6409,-2.6527,-2.6591,-2.6591,-2.6591,-2.6591,-2.6591,-2.6591,-2.6591,-2.6691,-2.6607,-2.6191,-2.5989,-2.5834,-2.5447,-2.5133,-2.5039,-2.5039,-2.499,-2.4883,-2.4686,-2.4489,-2.444,-2.4498,-2.435,-2.4251,-2.4211,-2.4211,-2.4211,-2.4211,-2.4211,-2.4211,-2.4211,-2.4211,-2.4211,-2.4211,-2.4211,-2.4211,-2.4211,-2.4211,-2.4211,-2.4211,-2.4211,-2.4211,-2.4211,-2.4161,-2.3646,-2.3288,-2.3805,-2.4202,-2.4242,-2.4341,-2.4381,-2.4522,-2.4634,-2.3106,-2.312,-2.323,-2.3391,-2.3552,-2.3369,-2.385,-2.4826,-2.5546,-2.6056,-2.6375,-2.7107,-2.7605,-2.7818,-2.805,-2.8069,-2.804,-2.7918,-2.7801,-2.7766,-2.7552,-2.7475,-2.7244,-2.6919,-2.6645,-2.6653,-2.661,-2.6465,-2.6302,-2.6294,-2.5968,-2.5472,-2.5086,-2.4915,-2.4838,-2.483,-2.4821,-2.4821,-2.4847,-2.4907,-2.5069,-2.5232,-2.5446,-2.59,-2.6275,-2.6566,-2.6961,-2.7046,-2.6873,-2.6496,-2.6139,-2.5918,-2.5168,-2.4915,-2.5072,-2.5072,-2.5221,-2.545,-2.5789,-2.6081,-2.6245,-2.6364,-2.6537,-2.6591,-2.6591,-2.6591,-2.6591,-2.6591,-2.6582,-2.6526,-2.6352,-2.5919,-2.5618,-2.5517,-2.5217,-2.4839,-2.4784,-2.4784,-2.4686,-2.4637,-2.4538,-2.4341,-2.4251,-2.4251,-2.4202,-2.4202,-2.4211,-2.4211,-2.4211,-2.4211,-2.4211,-2.4211,-2.4152,-2.4152,-2.4152,-2.4211,-2.4211,-2.4211,-2.4211,-2.4202,-2.4211,-2.4211,-2.4211,-2.4053,-2.3746,-2.3438,-2.3288,-2.3238,-2.3646,-2.3646,-2.3438,-2.3578,-2.3777,-2.3876,-2.3954,-2.3135,-2.3171,-2.3479,-2.3625,-2.364,-2.3706,-2.3931,-2.4267,-2.5146,-2.5553,-2.5649,-2.6686,-2.6962,-2.6775,-2.6954,-2.7008,-2.6852,-2.7049,-2.7071,-2.7124,-2.7073,-2.6902,-2.6722,-2.6499,-2.6422,-2.6294,-2.6242,-2.6277,-2.5994,-2.5917,-2.5549,-2.5078,-2.4907,-2.4821,-2.4821,-2.4821,-2.4821,-2.4821,-2.483,-2.4872,-2.4941,-2.4915,-2.5215,-2.5609,-2.5917,-2.6268,-2.6576,-2.6704,-2.6395,-2.6018,-2.5649,-2.528,-2.4958,-2.483,-2.4821,-2.4868,-2.5072,-2.5348,-2.5624,-2.5852,-2.6072,-2.619,-2.6418,-2.6527,-2.6591,-2.6591,-2.6591,-2.6545,-2.649,-2.6324,-2.6048,-2.5669,-2.5297,-2.5066,-2.4746,-2.4582,-2.4498,-2.4489,-2.444,-2.435,-2.4301,-2.4202,-2.4202,-2.4211,-2.4211,-2.4211,-2.4211,-2.4211,-2.4211,-2.4211,-2.4211,-2.4211,-2.4152,-2.4093,-2.4093,-2.3954,-2.3845,-2.3696,-2.4102,-2.4152,-2.4202,-2.3954,-2.3746,-2.3388,-2.2979,-2.2728,-2.2728,-2.2979,-2.3388,-2.3229,-2.2929,-2.3279,-2.3628,-2.3084,-2.3028,-2.3676,-2.3501,-2.3801,-2.4071,-2.4305,-2.4599,-2.4562,-2.4547,-2.5034,-2.5241,-2.5308,-2.581,-2.6017,-2.5951,-2.6041,-2.6267,-2.6389,-2.6502,-2.6548,-2.6602,-2.6747,-2.6602,-2.6456,-2.6336,-2.6388,-2.6431,-2.6379,-2.6191,-2.6131,-2.5883,-2.5335,-2.4907,-2.483,-2.4821,-2.4821,-2.4821,-2.4821,-2.4847,-2.4847,-2.4881,-2.4864,-2.4872,-2.5198,-2.5583,-2.5765,-2.6225,-2.6585,-2.6525,-2.6277,-2.5917,-2.5566,-2.5206,-2.4872,-2.4821,-2.4821,-2.4821,-2.4923,-2.5017,-2.5284,-2.545,-2.5615,-2.5953,-2.6181,-2.6409,-2.6527,-2.6582,-2.6582,-2.6536,-2.6344,-2.614,-2.5837,-2.5442,-2.4953,-2.4495,-2.4236,-2.4099,-2.4035,-2.4035,-2.3994,-2.4251,-2.4211,-2.4211,-2.4211,-2.4211,-2.4211,-2.4211,-2.4152,-2.4102,-2.4152,-2.4102,-2.3954,-2.3904,-2.3845,-2.3696,-2.3587,-2.3488,-2.3338,-2.3288,-2.3746,-2.3895,-2.3438,-2.3238,-2.3079,-2.282,-2.2426,-2.2375,-2.2375,-2.2627,-2.2719,-2.2778,-2.2627,-2.3029,-2.3294,-2.2801,-2.2429,-2.3859,-2.3837,-2.4137,-2.4459,-2.4766,-2.5039,-2.5002,-2.4885,-2.5046,-2.5001,-2.4914,-2.5114,-2.5065,-2.4952,-2.5359,-2.5806,-2.5932,-2.6321,-2.6516,-2.6713,-2.6551,-2.6508,-2.6396,-2.6396,-2.6456,-2.6491,-2.6354,-2.6131,-2.5977,-2.5532,-2.4984,-2.4855,-2.4821,-2.4821,-2.4821,-2.4821,-2.4821,-2.4889,-2.4949,-2.5009,-2.5009,-2.5009,-2.536,-2.5643,-2.5782,-2.6259,-2.6559,-2.6371,-2.6105,-2.5729,-2.5352,-2.5086,-2.483,-2.4821,-2.4821,-2.4821,-2.4821,-2.4868,-2.5017,-2.5174,-2.5395,-2.567,-2.5953,-2.6181,-2.6354,-2.6473,-2.6582,-2.6545,-2.6251,-2.592,-2.5589,-2.5146,-2.45,-2.3913,-2.3684,-2.3506,-2.3488,-2.3488,-2.3746,-2.4102,-2.4211,-2.4211,-2.4211,-2.4161,-2.4211,-2.4152,-2.3895,-2.3587,-2.3687,-2.3845,-2.3538,-2.3288,-2.3288,-2.3188,-2.3079,-2.297,-2.3029,-2.3179,-2.3895,-2.3795,-2.2987,-2.2526,-2.2367,-2.2215,-2.2013,-2.1861,-2.1709,-2.1759,-2.1853,-2.1962,-2.1912,-2.1903,-2.2282,-2.26,-2.2287,-2.3881,-2.4152,-2.4466,-2.4833,-2.5037,-2.5052,-2.509,-2.509,-2.5053,-2.4921,-2.4679,-2.4562,-2.426,-2.4084,-2.4676,-2.5015,-2.5312,-2.5698,-2.6166,-2.6918,-2.6636,-2.6491,-2.6576,-2.6739,-2.6473,-2.6251,-2.6045,-2.584,-2.5378,-2.5061,-2.4907,-2.4821,-2.4821,-2.4821,-2.4821,-2.4821,-2.4872,-2.5009,-2.5025,-2.508,-2.5241,-2.5292,-2.5395,-2.5523,-2.578,-2.608,-2.6054,-2.5934,-2.5771,-2.5395,-2.5078,-2.4872,-2.4838,-2.4821,-2.4821,-2.4821,-2.4821,-2.4821,-2.4868,-2.5026,-2.5119,-2.5395,-2.5615,-2.556,-2.5624,-2.5907,-2.6017,-2.5666,-2.5219,-2.4571,-2.407,-2.3729,-2.315,-2.2935,-2.2805,-2.2828,-2.2987,-2.3238,-2.3795,-2.3954,-2.3746,-2.3746,-2.3596,-2.3497,-2.302,-2.3479,-2.3479,-2.297,-2.2652,-2.2911,-2.266,-2.2308,-2.2568,-2.2459,-2.2156,-2.2156,-2.2719,-2.3129,-2.3479,-2.287,-2.1497,-2.1446,-2.1709,-2.1505,-2.1242,-2.1089,-2.0987,-2.0877,-2.0877,-2.1132,-2.103,-2.0672,-2.102,-2.1653,-2.1768,-2.4672,-2.4547,-2.487,-2.5068,-2.5119,-2.5059,-2.4973,-2.4693,-2.4686,-2.4613,-2.4481,-2.4064,-2.3749,-2.3664,-2.3735,-2.3993,-2.4299,-2.504,-2.5381,-2.5827,-2.605,-2.6236,-2.6372,-2.627,-2.6184,-2.6191,-2.5917,-2.5341,-2.503,-2.4825,-2.4765,-2.4765,-2.471,-2.4599,-2.4654,-2.4654,-2.4692,-2.4862,-2.4738,-2.4721,-2.4811,-2.5227,-2.5472,-2.5763,-2.6088,-2.6225,-2.6182,-2.602,-2.5746,-2.5386,-2.5018,-2.4864,-2.4821,-2.4821,-2.4821,-2.4821,-2.4821,-2.4821,-2.4821,-2.4868,-2.4906,-2.4723,-2.4659,-2.4437,-2.4492,-2.4944,-2.4971,-2.4505,-2.3945,-2.3243,-2.2697,-2.2311,-2.1943,-2.1919,-2.1912,-2.2165,-2.2375,-2.2979,-2.3596,-2.3497,-2.3238,-2.3029,-2.2878,-2.2568,-2.2097,-2.1996,-2.2148,-2.1785,-2.1006,-2.0853,-2.07,-2.0597,-2.1582,-2.1582,-2.1277,-2.1175,-2.1582,-2.1633,-2.1726,-2.0963,-2.0055,-2.0055,-2.0261,-2.0518,-2.0518,-2.0313,-2.0055,-1.9694,-1.9797,-2.021,-2.004,-1.9672,-1.9764,-2.0307,-2.0556,-2.4825,-2.481,-2.5046,-2.5059,-2.5097,-2.498,-2.473,-2.4518,-2.4115,-2.3918,-2.3932,-2.3676,-2.3449,-2.3355,-2.3276,-2.335,-2.368,-2.427,-2.4847,-2.5204,-2.5353,-2.5578,-2.5718,-2.5721,-2.5427,-2.5377,-2.4737,-2.428,-2.4568,-2.4144,-2.3968,-2.4303,-2.4256,-2.4089,-2.4033,-2.4058,-2.418,-2.4233,-2.3999,-2.3998,-2.4178,-2.4608,-2.532,-2.5734,-2.5985,-2.6131,-2.6105,-2.5883,-2.5506,-2.5215,-2.4907,-2.4847,-2.4821,-2.4821,-2.4821,-2.4821,-2.4821,-2.4821,-2.4765,-2.4701,-2.4573,-2.4111,-2.3863,-2.364,-2.2466,-2.2831,-2.2934,-2.2543,-2.2667,-2.2079,-2.2218,-2.1946,-2.115,-2.079,-2.1038,-2.1344,-2.1344,-2.1489,-2.1954,-2.2114,-2.1844,-2.1625,-2.1473,-2.1269,-2.0904,-2.0802,-2.0853,-2.0349,-1.9576,-1.9102,-1.8842,-1.8894,-1.9878,-2.0597,-2.0546,-2.0349,-2.0297,-2.0238,-2.0135,-2.004,-1.9694,-1.9027,-1.8767,-1.9435,-1.9797,-1.9591,-1.928,-1.8923,-1.9027,-1.9487,-1.9102,-1.862,-1.8839,-1.9007,-1.8886,-2.4657,-2.4987,-2.4987,-2.4958,-2.4899,-2.4562,-2.4393,-2.4218,-2.3508,-2.3149,-2.3223,-2.3442,-2.3135,-2.2983,-2.3239,-2.3391,-2.3619,-2.3991,-2.4464,-2.4632,-2.473,-2.5057,-2.5206,-2.516,-2.4711,-2.4158,-2.3544,-2.3868,-2.432,-2.3745,-2.3408,-2.3632,-2.3408,-2.3014,-2.3014,-2.3014,-2.3231,-2.3255,-2.3142,-2.2989,-2.3376,-2.3853,-2.4688,-2.5215,-2.5413,-2.5379,-2.5447,-2.5328,-2.4964,-2.4648,-2.4393,-2.4384,-2.4423,-2.4423,-2.459,-2.459,-2.4765,-2.4646,-2.447,-2.4295,-2.372,-2.3143,-2.3063,-2.2272,-2.1,-2.0559,-2.0656,-2.0647,-2.0796,-2.0934,-2.1078,-2.1012,-2.0139,-1.9746,-2.0055,-2.057,-2.0467,-2.0313,-2.057,-2.0877,-2.0554,-2.0282,-2.0076,-1.987,-1.9664,-1.9612,-1.931,-1.8648,-1.814,-1.7877,-1.7615,-1.7608,-1.8073,-1.8745,-1.9361,-1.9369,-1.9169,-1.9117,-1.9057,-1.9272,-1.928,-1.8513,-1.8304,-1.8923,-1.9072,-1.8767,-1.8565,-1.8304,-1.8513,-1.8819,-1.8372,-1.7933,-1.7986,-1.7986,-1.7248,-2.421,-2.4269,-2.4269,-2.413,-2.3903,-2.3808,-2.364,-2.3391,-2.3223,-2.3106,-2.3098,-2.3113,-2.2967,-2.2637,-2.2985,-2.3148,-2.3072,-2.3589,-2.3771,-2.3855,-2.4322,-2.4619,-2.4574,-2.4162,-2.3792,-2.3387,-2.3012,-2.3175,-2.3576,-2.3239,-2.3014,-2.3127,-2.3127,-2.2901,-2.2958,-2.2901,-2.2788,-2.2675,-2.2505,-2.2384,-2.2931,-2.3341,-2.3721,-2.4071,-2.4256,-2.4159,-2.4095,-2.3982,-2.3723,-2.3465,-2.3464,-2.3472,-2.3576,-2.3792,-2.3848,-2.384,-2.4072,-2.3784,-2.3488,-2.3376,-2.2628,-2.156,-2.1139,-2.0146,-1.9089,-1.828,-1.8282,-1.8114,-1.8251,-1.8483,-1.8643,-1.8874,-1.8401,-1.861,-1.8871,-1.9694,-2.0055,-1.9989,-2.0033,-1.9782,-1.9317,-1.905,-1.8738,-1.8433,-1.8021,-1.7975,-1.7975,-1.7417,-1.6935,-1.6683,-1.653,-1.663,-1.6783,-1.71,-1.7832,-1.8087,-1.7989,-1.7937,-1.7982,-1.8192,-1.814,-1.7898,-1.7898,-1.8356,-1.8206,-1.7799,-1.7641,-1.7845,-1.7898,-1.8067,-1.7684,-1.7373,-1.734,-1.7173,-1.6632]}]]